<?xml version='1.0' encoding='UTF-8'?><gpx version="1.1" creator="JPX - https://github.com/jenetics/jpx" xmlns="http://www.topografix.com/GPX/1/1"><trk><trkseg><trkpt lat="43.84449698007466" lon="13.019533928198758"><ele>10.0</ele><time>2026-04-18T08:22:08.555Z</time></trkpt><trkpt lat="43.84454985472398" lon="13.01962901870307"><ele>10.0</ele><time>2026-04-18T08:22:27.803Z</time></trkpt><trkpt lat="43.84459298543491" lon="13.019745339610045"><ele>10.0</ele><time>2026-04-18T08:22:36.853Z</time></trkpt><trkpt lat="43.84454927317977" lon="13.019640945199267"><ele>10.0</ele><time>2026-04-18T08:22:43.413Z</time></trkpt><trkpt lat="43.844535732958484" lon="13.019918369337425"><ele>10.0</ele><time>2026-04-18T08:22:46.212Z</time></trkpt><trkpt lat="43.84457437775596" lon="13.019766083453854"><ele>10.0</ele><time>2026-04-18T08:22:53.485Z</time></trkpt><trkpt lat="43.844620766225695" lon="13.01968682360961"><ele>10.0</ele><time>2026-04-18T08:22:56.013Z</time></trkpt><trkpt lat="43.84460922243032" lon="13.019803941790531"><ele>10.0</ele><time>2026-04-18T08:23:41.999Z</time></trkpt><trkpt lat="43.84459083264391" lon="13.01989076424265"><ele>10.0</ele><time>2026-04-18T08:23:43.999Z</time></trkpt><trkpt lat="43.84455116467402" lon="13.020003339688216"><ele>10.0</ele><time>2026-04-18T08:23:45.999Z</time></trkpt><trkpt lat="43.84457858052606" lon="13.020113940959035"><ele>10.0</ele><time>2026-04-18T08:23:47.999Z</time></trkpt><trkpt lat="43.844648128301465" lon="13.02020351358655"><ele>10.0</ele><time>2026-04-18T08:23:49.999Z</time></trkpt><trkpt lat="43.84470247292489" lon="13.020269273992966"><ele>10.0</ele><time>2026-04-18T08:23:52.999Z</time></trkpt><trkpt lat="43.844837501345744" lon="13.020062060460946"><ele>10.0</ele><time>2026-04-18T08:23:58Z</time></trkpt><trkpt lat="43.844891989046715" lon="13.019940806795454"><ele>10.0</ele><time>2026-04-18T08:23:59Z</time></trkpt><trkpt lat="43.84495959758216" lon="13.019817010271828"><ele>10.0</ele><time>2026-04-18T08:24:00Z</time></trkpt><trkpt lat="43.84501834793399" lon="13.01971092291226"><ele>10.0</ele><time>2026-04-18T08:24:01Z</time></trkpt><trkpt lat="43.84506727797017" lon="13.019604370119795"><ele>10.0</ele><time>2026-04-18T08:24:02Z</time></trkpt><trkpt lat="43.845120235932264" lon="13.019514884903172"><ele>10.0</ele><time>2026-04-18T08:24:03Z</time></trkpt><trkpt lat="43.84517191647971" lon="13.019426301369665"><ele>9.666666666666668</ele><time>2026-04-18T08:24:04Z</time></trkpt><trkpt lat="43.845212330291396" lon="13.01935391564569"><ele>9.333333333333334</ele><time>2026-04-18T08:24:05Z</time></trkpt><trkpt lat="43.84527735537569" lon="13.019221735968488"><ele>9.0</ele><time>2026-04-18T08:24:07Z</time></trkpt><trkpt lat="43.845326627261684" lon="13.019116003699077"><ele>8.666666666666666</ele><time>2026-04-18T08:24:09Z</time></trkpt><trkpt lat="43.84538241885426" lon="13.019030985179693"><ele>8.333333333333332</ele><time>2026-04-18T08:24:11Z</time></trkpt><trkpt lat="43.845409591471416" lon="13.018942416422469"><ele>8.0</ele><time>2026-04-18T08:24:14Z</time></trkpt><trkpt lat="43.84534339659088" lon="13.018820895291663"><ele>7.999999999999999</ele><time>2026-04-18T08:24:19Z</time></trkpt><trkpt lat="43.845286541662496" lon="13.018745498222932"><ele>8.0</ele><time>2026-04-18T08:24:23Z</time></trkpt><trkpt lat="43.84522558705909" lon="13.018676407336322"><ele>8.0</ele><time>2026-04-18T08:24:25Z</time></trkpt><trkpt lat="43.84517362586669" lon="13.018609661692823"><ele>8.0</ele><time>2026-04-18T08:24:26.999Z</time></trkpt><trkpt lat="43.84510294231794" lon="13.01853641876488"><ele>7.999999999999999</ele><time>2026-04-18T08:24:29.999Z</time></trkpt><trkpt lat="43.84504613806622" lon="13.018479028420126"><ele>8.0</ele><time>2026-04-18T08:24:31.999Z</time></trkpt><trkpt lat="43.844998213474256" lon="13.018413752475167"><ele>8.666666666666666</ele><time>2026-04-18T08:24:34.999Z</time></trkpt><trkpt lat="43.8449541544073" lon="13.018344485248592"><ele>9.333333333333332</ele><time>2026-04-18T08:24:37.999Z</time></trkpt><trkpt lat="43.844889292627215" lon="13.018271579973842"><ele>10.0</ele><time>2026-04-18T08:24:40.999Z</time></trkpt><trkpt lat="43.84484541217294" lon="13.018200254864881"><ele>10.666666666666666</ele><time>2026-04-18T08:24:44.999Z</time></trkpt><trkpt lat="43.844758066305104" lon="13.018341751038157"><ele>11.333333333333334</ele><time>2026-04-18T08:24:46.999Z</time></trkpt><trkpt lat="43.844703885336976" lon="13.018422954487574"><ele>12.0</ele><time>2026-04-18T08:24:47.999Z</time></trkpt><trkpt lat="43.84465244341043" lon="13.018481441195235"><ele>12.0</ele><time>2026-04-18T08:24:48.999Z</time></trkpt><trkpt lat="43.84457397911415" lon="13.018620751684374"><ele>12.0</ele><time>2026-04-18T08:24:50.999Z</time></trkpt><trkpt lat="43.84450416638144" lon="13.018748601616792"><ele>12.0</ele><time>2026-04-18T08:24:52.999Z</time></trkpt><trkpt lat="43.84444527077127" lon="13.018860293544273"><ele>12.0</ele><time>2026-04-18T08:24:54.999Z</time></trkpt><trkpt lat="43.84436182735477" lon="13.01894976037809"><ele>12.0</ele><time>2026-04-18T08:24:56.999Z</time></trkpt><trkpt lat="43.844289470367244" lon="13.01904851159651"><ele>12.666666666666666</ele><time>2026-04-18T08:24:58.999Z</time></trkpt><trkpt lat="43.84422181049749" lon="13.019157282189193"><ele>13.333333333333332</ele><time>2026-04-18T08:25:00.999Z</time></trkpt><trkpt lat="43.84413651136931" lon="13.019291338070865"><ele>14.0</ele><time>2026-04-18T08:25:03Z</time></trkpt><trkpt lat="43.844077698828976" lon="13.019349425219461"><ele>14.666666666666666</ele><time>2026-04-18T08:25:04Z</time></trkpt><trkpt lat="43.84403686699215" lon="13.019430641107979"><ele>15.333333333333332</ele><time>2026-04-18T08:25:05Z</time></trkpt><trkpt lat="43.84398774403453" lon="13.019502127784202"><ele>16.0</ele><time>2026-04-18T08:25:06Z</time></trkpt><trkpt lat="43.84394004500793" lon="13.019568980548058"><ele>15.999999999999998</ele><time>2026-04-18T08:25:07Z</time></trkpt><trkpt lat="43.843889826291985" lon="13.019643319481627"><ele>16.0</ele><time>2026-04-18T08:25:08Z</time></trkpt><trkpt lat="43.84384307993979" lon="13.019713238185545"><ele>16.0</ele><time>2026-04-18T08:25:09Z</time></trkpt><trkpt lat="43.84379509156056" lon="13.019774482745378"><ele>16.0</ele><time>2026-04-18T08:25:10Z</time></trkpt><trkpt lat="43.84371528526893" lon="13.019880867082971"><ele>15.999999999999998</ele><time>2026-04-18T08:25:12Z</time></trkpt><trkpt lat="43.84365591195463" lon="13.019960583670514"><ele>16.0</ele><time>2026-04-18T08:25:14Z</time></trkpt><trkpt lat="43.843604256343376" lon="13.020037780946645"><ele>16.142857142857142</ele><time>2026-04-18T08:25:16Z</time></trkpt><trkpt lat="43.84354559498125" lon="13.020093988625431"><ele>16.285714285714285</ele><time>2026-04-18T08:25:18Z</time></trkpt><trkpt lat="43.843510315879485" lon="13.020167676895715"><ele>16.428571428571427</ele><time>2026-04-18T08:25:31Z</time></trkpt><trkpt lat="43.843447537701195" lon="13.020242791734074"><ele>16.57142857142857</ele><time>2026-04-18T08:25:35Z</time></trkpt><trkpt lat="43.84340244901467" lon="13.020328908430228"><ele>16.714285714285715</ele><time>2026-04-18T08:25:41Z</time></trkpt><trkpt lat="43.84334675126575" lon="13.020378477157045"><ele>16.857142857142854</ele><time>2026-04-18T08:25:44Z</time></trkpt><trkpt lat="43.84329427197881" lon="13.020452869306128"><ele>17.0</ele><time>2026-04-18T08:25:47.999Z</time></trkpt><trkpt lat="43.8432390661362" lon="13.020512947892561"><ele>17.0</ele><time>2026-04-18T08:25:50.999Z</time></trkpt><trkpt lat="43.84319099923183" lon="13.020583667206278"><ele>17.0</ele><time>2026-04-18T08:25:53.999Z</time></trkpt><trkpt lat="43.84314062355702" lon="13.020642854483874"><ele>17.0</ele><time>2026-04-18T08:25:55.999Z</time></trkpt><trkpt lat="43.84307768178407" lon="13.020736152729517"><ele>17.0</ele><time>2026-04-18T08:25:58.999Z</time></trkpt><trkpt lat="43.84302955822254" lon="13.02079349364935"><ele>17.0</ele><time>2026-04-18T08:26:00.999Z</time></trkpt><trkpt lat="43.84297138705848" lon="13.020888635163526"><ele>17.0</ele><time>2026-04-18T08:26:03.999Z</time></trkpt><trkpt lat="43.842905841627385" lon="13.020983083637866"><ele>16.999999999999996</ele><time>2026-04-18T08:26:06.999Z</time></trkpt><trkpt lat="43.842857078698046" lon="13.02104842376761"><ele>17.0</ele><time>2026-04-18T08:26:08.999Z</time></trkpt><trkpt lat="43.84279798593841" lon="13.021099794542108"><ele>17.0</ele><time>2026-04-18T08:26:10.999Z</time></trkpt><trkpt lat="43.84275425888287" lon="13.021169947335068"><ele>17.0</ele><time>2026-04-18T08:26:12.999Z</time></trkpt><trkpt lat="43.84271204656718" lon="13.021237875030904"><ele>17.0</ele><time>2026-04-18T08:26:14.999Z</time></trkpt><trkpt lat="43.8426591417278" lon="13.021305628441118"><ele>16.999999999999996</ele><time>2026-04-18T08:26:16.999Z</time></trkpt><trkpt lat="43.84262641876102" lon="13.021381498203061"><ele>17.0</ele><time>2026-04-18T08:26:18.999Z</time></trkpt><trkpt lat="43.84257899757524" lon="13.021452694028392"><ele>16.999999999999996</ele><time>2026-04-18T08:26:20.999Z</time></trkpt><trkpt lat="43.842525472443015" lon="13.021525574424055"><ele>17.0</ele><time>2026-04-18T08:26:22.999Z</time></trkpt><trkpt lat="43.84247379879451" lon="13.021608722005746"><ele>17.0</ele><time>2026-04-18T08:26:24.999Z</time></trkpt><trkpt lat="43.84242406354802" lon="13.021695823136874"><ele>17.0</ele><time>2026-04-18T08:26:26.999Z</time></trkpt><trkpt lat="43.84238675855373" lon="13.02177428179554"><ele>17.0</ele><time>2026-04-18T08:26:28.999Z</time></trkpt><trkpt lat="43.84233511275996" lon="13.021830916233172"><ele>16.999999999999996</ele><time>2026-04-18T08:26:30.999Z</time></trkpt><trkpt lat="43.842283991201384" lon="13.021910486723659"><ele>17.0</ele><time>2026-04-18T08:26:32.999Z</time></trkpt><trkpt lat="43.842240149289644" lon="13.021986460808483"><ele>16.666666666666668</ele><time>2026-04-18T08:26:34.999Z</time></trkpt><trkpt lat="43.84218730274432" lon="13.02206212038409"><ele>16.333333333333336</ele><time>2026-04-18T08:26:36.999Z</time></trkpt><trkpt lat="43.84214130101297" lon="13.022139100867317"><ele>16.0</ele><time>2026-04-18T08:26:38.999Z</time></trkpt><trkpt lat="43.84206626307562" lon="13.022192129240446"><ele>15.666666666666668</ele><time>2026-04-18T08:26:40.999Z</time></trkpt><trkpt lat="43.84201380266991" lon="13.022267824815442"><ele>15.333333333333334</ele><time>2026-04-18T08:26:42.999Z</time></trkpt><trkpt lat="43.84196392738493" lon="13.022339790290076"><ele>15.0</ele><time>2026-04-18T08:26:44.999Z</time></trkpt><trkpt lat="43.841912494504406" lon="13.0224124761854"><ele>15.0</ele><time>2026-04-18T08:26:46.999Z</time></trkpt><trkpt lat="43.841862412992135" lon="13.022480610780915"><ele>15.0</ele><time>2026-04-18T08:26:48.999Z</time></trkpt><trkpt lat="43.841811472141394" lon="13.022555352760094"><ele>15.0</ele><time>2026-04-18T08:26:51.999Z</time></trkpt><trkpt lat="43.841752475743526" lon="13.022594050625441"><ele>15.0</ele><time>2026-04-18T08:27:09.999Z</time></trkpt><trkpt lat="43.841679966897814" lon="13.022657481387796"><ele>15.0</ele><time>2026-04-18T08:27:12.999Z</time></trkpt><trkpt lat="43.84170376618497" lon="13.022825272297439"><ele>15.0</ele><time>2026-04-18T08:27:15.999Z</time></trkpt><trkpt lat="43.84174123561781" lon="13.022910513807348"><ele>14.6</ele><time>2026-04-18T08:27:16.999Z</time></trkpt><trkpt lat="43.84182087098473" lon="13.023029683059894"><ele>14.2</ele><time>2026-04-18T08:27:18.999Z</time></trkpt><trkpt lat="43.84190583409223" lon="13.02314719955876"><ele>13.8</ele><time>2026-04-18T08:27:20.999Z</time></trkpt><trkpt lat="43.84194787387429" lon="13.023215397149848"><ele>13.4</ele><time>2026-04-18T08:27:21.999Z</time></trkpt><trkpt lat="43.84202961484968" lon="13.023347873693115"><ele>13.0</ele><time>2026-04-18T08:27:23.999Z</time></trkpt><trkpt lat="43.8421122218707" lon="13.023477436380483"><ele>11.5</ele><time>2026-04-18T08:27:25.999Z</time></trkpt><trkpt lat="43.84219502658475" lon="13.023607047459935"><ele>10.0</ele><time>2026-04-18T08:27:27.999Z</time></trkpt><trkpt lat="43.842273927542806" lon="13.023734737609255"><ele>8.5</ele><time>2026-04-18T08:27:29.999Z</time></trkpt><trkpt lat="43.842359692388385" lon="13.023853833252966"><ele>7.0</ele><time>2026-04-18T08:27:32Z</time></trkpt><trkpt lat="43.842432577518586" lon="13.02396132963885"><ele>7.000000000000001</ele><time>2026-04-18T08:27:34Z</time></trkpt><trkpt lat="43.84249655678655" lon="13.024076800891656"><ele>7.0</ele><time>2026-04-18T08:27:36Z</time></trkpt><trkpt lat="43.84254073776896" lon="13.024217268344904"><ele>7.0</ele><time>2026-04-18T08:27:38Z</time></trkpt><trkpt lat="43.84254609266187" lon="13.024307513096817"><ele>7.0</ele><time>2026-04-18T08:27:39Z</time></trkpt><trkpt lat="43.842532297052784" lon="13.024407639502687"><ele>7.000000000000001</ele><time>2026-04-18T08:27:40Z</time></trkpt><trkpt lat="43.84250342803428" lon="13.024501494535038"><ele>7.0</ele><time>2026-04-18T08:27:41Z</time></trkpt><trkpt lat="43.842473714727404" lon="13.0245942017939"><ele>6.666666666666667</ele><time>2026-04-18T08:27:42Z</time></trkpt><trkpt lat="43.842436915452986" lon="13.024679403730904"><ele>6.333333333333334</ele><time>2026-04-18T08:27:43Z</time></trkpt><trkpt lat="43.84235821250174" lon="13.024794408150957"><ele>6.0</ele><time>2026-04-18T08:27:45Z</time></trkpt><trkpt lat="43.84232446078246" lon="13.024888797635018"><ele>5.666666666666667</ele><time>2026-04-18T08:27:47Z</time></trkpt><trkpt lat="43.84226480209415" lon="13.024963939993636"><ele>5.333333333333334</ele><time>2026-04-18T08:27:57Z</time></trkpt><trkpt lat="43.84222000313019" lon="13.02504499789272"><ele>5.0</ele><time>2026-04-18T08:27:58.999Z</time></trkpt><trkpt lat="43.84217890924454" lon="13.025119351932908"><ele>4.833333333333334</ele><time>2026-04-18T08:28:00.999Z</time></trkpt><trkpt lat="43.84212416310868" lon="13.025217233176551"><ele>4.666666666666667</ele><time>2026-04-18T08:28:03.999Z</time></trkpt><trkpt lat="43.84217228233654" lon="13.025369905643991"><ele>4.5</ele><time>2026-04-18T08:28:35.999Z</time></trkpt><trkpt lat="43.84212001874098" lon="13.025442388104876"><ele>4.333333333333333</ele><time>2026-04-18T08:38:01Z</time></trkpt><trkpt lat="43.842076834965674" lon="13.025528389620483"><ele>4.166666666666666</ele><time>2026-04-18T08:38:03Z</time></trkpt><trkpt lat="43.84202609263059" lon="13.025591266551645"><ele>4.0</ele><time>2026-04-18T08:38:05Z</time></trkpt><trkpt lat="43.84195773789793" lon="13.025667091997953"><ele>3.9999999999999996</ele><time>2026-04-18T08:38:08Z</time></trkpt><trkpt lat="43.84189165774786" lon="13.025682259799932"><ele>4.0</ele><time>2026-04-18T08:38:12Z</time></trkpt><trkpt lat="43.84181684370894" lon="13.025746220836062"><ele>4.0</ele><time>2026-04-18T08:38:15Z</time></trkpt><trkpt lat="43.841760373922185" lon="13.0258255669138"><ele>4.0</ele><time>2026-04-18T08:38:18Z</time></trkpt><trkpt lat="43.84171608474073" lon="13.025922494813363"><ele>3.9999999999999996</ele><time>2026-04-18T08:38:20Z</time></trkpt><trkpt lat="43.841642831584885" lon="13.026064988955628"><ele>4.0</ele><time>2026-04-18T08:38:22Z</time></trkpt><trkpt lat="43.84159812767513" lon="13.026140573920083"><ele>3.9999999999999996</ele><time>2026-04-18T08:38:23Z</time></trkpt><trkpt lat="43.841555168039626" lon="13.026222600679999"><ele>4.0</ele><time>2026-04-18T08:38:24Z</time></trkpt><trkpt lat="43.841522475690894" lon="13.026310158674933"><ele>4.0</ele><time>2026-04-18T08:38:25Z</time></trkpt><trkpt lat="43.84144664522256" lon="13.02643482353232"><ele>4.0</ele><time>2026-04-18T08:38:27Z</time></trkpt><trkpt lat="43.841390889971514" lon="13.02648214213601"><ele>3.9999999999999996</ele><time>2026-04-18T08:38:28Z</time></trkpt><trkpt lat="43.841341397520274" lon="13.026556011503976"><ele>4.0</ele><time>2026-04-18T08:38:29Z</time></trkpt><trkpt lat="43.84130242167236" lon="13.026653570770664"><ele>3.6666666666666665</ele><time>2026-04-18T08:38:30Z</time></trkpt><trkpt lat="43.84126703106587" lon="13.026760993635689"><ele>3.333333333333333</ele><time>2026-04-18T08:38:31Z</time></trkpt><trkpt lat="43.841223618858784" lon="13.026850236657983"><ele>3.0</ele><time>2026-04-18T08:38:32Z</time></trkpt><trkpt lat="43.84117169946562" lon="13.026927341954396"><ele>2.6666666666666665</ele><time>2026-04-18T08:38:33Z</time></trkpt><trkpt lat="43.84111886016684" lon="13.027010754407373"><ele>2.333333333333333</ele><time>2026-04-18T08:38:34Z</time></trkpt><trkpt lat="43.84106052007069" lon="13.027109556924781"><ele>2.0</ele><time>2026-04-18T08:38:35Z</time></trkpt><trkpt lat="43.840997668032294" lon="13.027219347183532"><ele>2.6</ele><time>2026-04-18T08:38:36Z</time></trkpt><trkpt lat="43.84093767410827" lon="13.027330927424877"><ele>3.2</ele><time>2026-04-18T08:38:37Z</time></trkpt><trkpt lat="43.840877458805814" lon="13.027449924777935"><ele>3.8</ele><time>2026-04-18T08:38:38Z</time></trkpt><trkpt lat="43.840809948520615" lon="13.02756528874745"><ele>4.4</ele><time>2026-04-18T08:38:39Z</time></trkpt><trkpt lat="43.840745807973775" lon="13.027678476785642"><ele>5.0</ele><time>2026-04-18T08:38:40Z</time></trkpt><trkpt lat="43.84067937346216" lon="13.027793302002017"><ele>5.0</ele><time>2026-04-18T08:38:41Z</time></trkpt><trkpt lat="43.84061315255249" lon="13.02791442277794"><ele>5.0</ele><time>2026-04-18T08:38:42Z</time></trkpt><trkpt lat="43.84054980705757" lon="13.028029597944327"><ele>5.0</ele><time>2026-04-18T08:38:43Z</time></trkpt><trkpt lat="43.840493165638726" lon="13.028143058915692"><ele>5.0</ele><time>2026-04-18T08:38:44Z</time></trkpt><trkpt lat="43.84044068646644" lon="13.02824146626064"><ele>5.0</ele><time>2026-04-18T08:38:45Z</time></trkpt><trkpt lat="43.84039086885927" lon="13.028324459428369"><ele>4.833333333333334</ele><time>2026-04-18T08:38:46Z</time></trkpt><trkpt lat="43.84034513817662" lon="13.028402841196064"><ele>4.666666666666667</ele><time>2026-04-18T08:38:47Z</time></trkpt><trkpt lat="43.84030566247904" lon="13.028475833875056"><ele>4.5</ele><time>2026-04-18T08:38:48Z</time></trkpt><trkpt lat="43.84026365457536" lon="13.028550097684725"><ele>4.333333333333333</ele><time>2026-04-18T08:38:49Z</time></trkpt><trkpt lat="43.840217395937735" lon="13.028640722197595"><ele>4.166666666666666</ele><time>2026-04-18T08:38:50Z</time></trkpt><trkpt lat="43.84016973460757" lon="13.02873471729727"><ele>4.0</ele><time>2026-04-18T08:38:51Z</time></trkpt><trkpt lat="43.84011926557098" lon="13.028827547739443"><ele>4.0</ele><time>2026-04-18T08:38:52Z</time></trkpt><trkpt lat="43.84006435728682" lon="13.028923542201333"><ele>4.0</ele><time>2026-04-18T08:38:53Z</time></trkpt><trkpt lat="43.84001122936508" lon="13.029019607168399"><ele>4.0</ele><time>2026-04-18T08:38:54Z</time></trkpt><trkpt lat="43.839954445889326" lon="13.029124162888616"><ele>4.0</ele><time>2026-04-18T08:38:55Z</time></trkpt><trkpt lat="43.839901989677706" lon="13.029236984691213"><ele>4.0</ele><time>2026-04-18T08:38:56Z</time></trkpt><trkpt lat="43.839845368654714" lon="13.029349105235458"><ele>4.0</ele><time>2026-04-18T08:38:57Z</time></trkpt><trkpt lat="43.83978636763838" lon="13.02945930957429"><ele>4.0</ele><time>2026-04-18T08:38:58Z</time></trkpt><trkpt lat="43.83972538546054" lon="13.029567672507564"><ele>4.0</ele><time>2026-04-18T08:38:59Z</time></trkpt><trkpt lat="43.83966184544559" lon="13.029672113930827"><ele>4.0</ele><time>2026-04-18T08:38:59.999Z</time></trkpt><trkpt lat="43.83959991170131" lon="13.029779984947382"><ele>4.0</ele><time>2026-04-18T08:39:00.999Z</time></trkpt><trkpt lat="43.83954249741475" lon="13.029883042310768"><ele>3.9999999999999996</ele><time>2026-04-18T08:39:01.999Z</time></trkpt><trkpt lat="43.83949013530853" lon="13.029968938779774"><ele>4.0</ele><time>2026-04-18T08:39:02.999Z</time></trkpt><trkpt lat="43.839426516930786" lon="13.030080049831993"><ele>4.0</ele><time>2026-04-18T08:39:04.999Z</time></trkpt><trkpt lat="43.83937813554375" lon="13.030167257849062"><ele>4.0</ele><time>2026-04-18T08:39:06.999Z</time></trkpt><trkpt lat="43.8393276316344" lon="13.030256928505327"><ele>3.9999999999999996</ele><time>2026-04-18T08:39:08.999Z</time></trkpt><trkpt lat="43.839276327038796" lon="13.030372974549786"><ele>4.0</ele><time>2026-04-18T08:39:10.999Z</time></trkpt><trkpt lat="43.83920721242236" lon="13.030502745794942"><ele>4.166666666666666</ele><time>2026-04-18T08:39:12.999Z</time></trkpt><trkpt lat="43.83916894576004" lon="13.030572262809052"><ele>4.333333333333333</ele><time>2026-04-18T08:39:13.999Z</time></trkpt><trkpt lat="43.83912812034468" lon="13.030648362665596"><ele>4.5</ele><time>2026-04-18T08:39:14.999Z</time></trkpt><trkpt lat="43.83908403978682" lon="13.030728709160721"><ele>4.666666666666667</ele><time>2026-04-18T08:39:15.999Z</time></trkpt><trkpt lat="43.83903551455591" lon="13.030813586021976"><ele>4.833333333333334</ele><time>2026-04-18T08:39:16.999Z</time></trkpt><trkpt lat="43.83898227992038" lon="13.030906452676414"><ele>5.0</ele><time>2026-04-18T08:39:17.999Z</time></trkpt><trkpt lat="43.838925407761806" lon="13.031004025626133"><ele>4.5</ele><time>2026-04-18T08:39:18.999Z</time></trkpt><trkpt lat="43.83887165711992" lon="13.031096568471487"><ele>4.0</ele><time>2026-04-18T08:39:19.999Z</time></trkpt><trkpt lat="43.838820193093994" lon="13.031188991427602"><ele>3.5</ele><time>2026-04-18T08:39:20.999Z</time></trkpt><trkpt lat="43.83876689589468" lon="13.031283547702387"><ele>3.0</ele><time>2026-04-18T08:39:21.999Z</time></trkpt><trkpt lat="43.8387144915262" lon="13.031383023789235"><ele>2.5</ele><time>2026-04-18T08:39:22.999Z</time></trkpt><trkpt lat="43.83865964073771" lon="13.031484553946287"><ele>2.0</ele><time>2026-04-18T08:39:23.999Z</time></trkpt><trkpt lat="43.838603952787366" lon="13.031586407375832"><ele>2.2</ele><time>2026-04-18T08:39:24.999Z</time></trkpt><trkpt lat="43.83854976133343" lon="13.03168914379173"><ele>2.4000000000000004</ele><time>2026-04-18T08:39:25.999Z</time></trkpt><trkpt lat="43.838492015001165" lon="13.031796000794541"><ele>2.5999999999999996</ele><time>2026-04-18T08:39:26.999Z</time></trkpt><trkpt lat="43.83843841618792" lon="13.031894470309338"><ele>2.8</ele><time>2026-04-18T08:39:27.999Z</time></trkpt><trkpt lat="43.838382573108106" lon="13.031990752488712"><ele>3.0</ele><time>2026-04-18T08:39:28.999Z</time></trkpt><trkpt lat="43.83832559935536" lon="13.032090764808194"><ele>3.0</ele><time>2026-04-18T08:39:29.999Z</time></trkpt><trkpt lat="43.83826477039087" lon="13.032195201069383"><ele>3.0</ele><time>2026-04-18T08:39:30.999Z</time></trkpt><trkpt lat="43.838207391183275" lon="13.032303084135348"><ele>3.0</ele><time>2026-04-18T08:39:31.999Z</time></trkpt><trkpt lat="43.83814664444643" lon="13.032412505054822"><ele>3.0</ele><time>2026-04-18T08:39:32.999Z</time></trkpt><trkpt lat="43.83808948668234" lon="13.032521948943204"><ele>3.0</ele><time>2026-04-18T08:39:33.999Z</time></trkpt><trkpt lat="43.838029897818515" lon="13.032633120285936"><ele>3.0</ele><time>2026-04-18T08:39:34.999Z</time></trkpt><trkpt lat="43.837964655101025" lon="13.032749811213671"><ele>3.0</ele><time>2026-04-18T08:39:35.999Z</time></trkpt><trkpt lat="43.837893893406616" lon="13.032869589433792"><ele>3.0</ele><time>2026-04-18T08:39:36.999Z</time></trkpt><trkpt lat="43.837815673371196" lon="13.033005073670624"><ele>3.0</ele><time>2026-04-18T08:39:37.999Z</time></trkpt><trkpt lat="43.83773576017669" lon="13.033159514307453"><ele>3.0</ele><time>2026-04-18T08:39:38.999Z</time></trkpt><trkpt lat="43.83764862759629" lon="13.03332528485947"><ele>3.0</ele><time>2026-04-18T08:39:39.999Z</time></trkpt><trkpt lat="43.8375574928543" lon="13.033500162247135"><ele>3.0</ele><time>2026-04-18T08:39:40.999Z</time></trkpt><trkpt lat="43.83746440663496" lon="13.03367298273001"><ele>3.0</ele><time>2026-04-18T08:39:41.999Z</time></trkpt><trkpt lat="43.83736407671755" lon="13.03384752244366"><ele>3.0</ele><time>2026-04-18T08:39:42.999Z</time></trkpt><trkpt lat="43.83726788253917" lon="13.03401980128387"><ele>3.0</ele><time>2026-04-18T08:39:43.999Z</time></trkpt><trkpt lat="43.83717188178685" lon="13.03418724400674"><ele>3.0</ele><time>2026-04-18T08:39:44.999Z</time></trkpt><trkpt lat="43.837082144165905" lon="13.034354936434571"><ele>3.0</ele><time>2026-04-18T08:39:45.999Z</time></trkpt><trkpt lat="43.836991266770504" lon="13.034518236614554"><ele>3.0</ele><time>2026-04-18T08:39:46.999Z</time></trkpt><trkpt lat="43.836900453711145" lon="13.03467370234098"><ele>3.0</ele><time>2026-04-18T08:39:47.999Z</time></trkpt><trkpt lat="43.83681414176569" lon="13.034831260876391"><ele>3.0</ele><time>2026-04-18T08:39:48.999Z</time></trkpt><trkpt lat="43.83672292130062" lon="13.034980616864328"><ele>3.0</ele><time>2026-04-18T08:39:49.999Z</time></trkpt><trkpt lat="43.83663218105714" lon="13.035136571424038"><ele>3.0</ele><time>2026-04-18T08:39:50.999Z</time></trkpt><trkpt lat="43.83654553345607" lon="13.035292320638915"><ele>3.0</ele><time>2026-04-18T08:39:51.999Z</time></trkpt><trkpt lat="43.836456714231694" lon="13.035447288253314"><ele>3.0</ele><time>2026-04-18T08:39:52.999Z</time></trkpt><trkpt lat="43.836370502378365" lon="13.035600696152441"><ele>3.0</ele><time>2026-04-18T08:39:53.999Z</time></trkpt><trkpt lat="43.83628848397954" lon="13.035755390627356"><ele>3.0</ele><time>2026-04-18T08:39:54.999Z</time></trkpt><trkpt lat="43.83621030570781" lon="13.035902675644957"><ele>3.0</ele><time>2026-04-18T08:39:55.999Z</time></trkpt><trkpt lat="43.83613517965498" lon="13.036041447707502"><ele>3.0</ele><time>2026-04-18T08:39:56.999Z</time></trkpt><trkpt lat="43.83605823214668" lon="13.03618341329902"><ele>3.0</ele><time>2026-04-18T08:39:57.999Z</time></trkpt><trkpt lat="43.835982115082444" lon="13.036320028750715"><ele>3.0</ele><time>2026-04-18T08:39:58.999Z</time></trkpt><trkpt lat="43.83591197496337" lon="13.03646665110923"><ele>3.0</ele><time>2026-04-18T08:39:59.999Z</time></trkpt><trkpt lat="43.83583430537048" lon="13.036606041100692"><ele>2.25</ele><time>2026-04-18T08:40:00.999Z</time></trkpt><trkpt lat="43.83576275213029" lon="13.036743416623796"><ele>1.5</ele><time>2026-04-18T08:40:01.999Z</time></trkpt><trkpt lat="43.83569064677313" lon="13.036870022366697"><ele>0.75</ele><time>2026-04-18T08:40:02.999Z</time></trkpt><trkpt lat="43.835618720432315" lon="13.0369931402989"><ele>0.0</ele><time>2026-04-18T08:40:03.999Z</time></trkpt><trkpt lat="43.83554912802406" lon="13.03711807401366"><ele>0.0</ele><time>2026-04-18T08:40:04.999Z</time></trkpt><trkpt lat="43.8354802797132" lon="13.037247279832096"><ele>0.0</ele><time>2026-04-18T08:40:05.999Z</time></trkpt><trkpt lat="43.83541002716794" lon="13.037374142267502"><ele>0.0</ele><time>2026-04-18T08:40:06.999Z</time></trkpt><trkpt lat="43.835343582149385" lon="13.037496545495676"><ele>0.0</ele><time>2026-04-18T08:40:07.999Z</time></trkpt><trkpt lat="43.835275714815666" lon="13.037613360549674"><ele>0.0</ele><time>2026-04-18T08:40:08.999Z</time></trkpt><trkpt lat="43.83520871424893" lon="13.037726437958478"><ele>0.0</ele><time>2026-04-18T08:40:09.999Z</time></trkpt><trkpt lat="43.83514544490502" lon="13.037836952236903"><ele>0.0</ele><time>2026-04-18T08:40:10.999Z</time></trkpt><trkpt lat="43.83508625677456" lon="13.037949226981562"><ele>0.0</ele><time>2026-04-18T08:40:11.999Z</time></trkpt><trkpt lat="43.83502677996029" lon="13.038055837856541"><ele>0.0</ele><time>2026-04-18T08:40:12.999Z</time></trkpt><trkpt lat="43.83497017814019" lon="13.038168314928834"><ele>0.0</ele><time>2026-04-18T08:40:13.999Z</time></trkpt><trkpt lat="43.83491044482381" lon="13.038283193845839"><ele>0.0</ele><time>2026-04-18T08:40:14.999Z</time></trkpt><trkpt lat="43.834850949853" lon="13.038392460531115"><ele>0.0</ele><time>2026-04-18T08:40:15.999Z</time></trkpt><trkpt lat="43.83479027127159" lon="13.038498767199078"><ele>0.0</ele><time>2026-04-18T08:40:16.999Z</time></trkpt><trkpt lat="43.834729557417354" lon="13.038606235336296"><ele>0.0</ele><time>2026-04-18T08:40:17.999Z</time></trkpt><trkpt lat="43.834668222572226" lon="13.038714781914058"><ele>0.0</ele><time>2026-04-18T08:40:18.999Z</time></trkpt><trkpt lat="43.834602778147904" lon="13.038828519367781"><ele>0.0</ele><time>2026-04-18T08:40:19.999Z</time></trkpt><trkpt lat="43.83454264136958" lon="13.03894239606153"><ele>0.0</ele><time>2026-04-18T08:40:20.999Z</time></trkpt><trkpt lat="43.83448308251944" lon="13.0390451279754"><ele>0.0</ele><time>2026-04-18T08:40:21.999Z</time></trkpt><trkpt lat="43.83442483124881" lon="13.039146788312365"><ele>0.0</ele><time>2026-04-18T08:40:22.999Z</time></trkpt><trkpt lat="43.83436581965201" lon="13.039256664140513"><ele>0.0</ele><time>2026-04-18T08:40:23.999Z</time></trkpt><trkpt lat="43.83430866976718" lon="13.039364980062464"><ele>0.0</ele><time>2026-04-18T08:40:24.999Z</time></trkpt><trkpt lat="43.834253555131575" lon="13.039477600924515"><ele>0.0</ele><time>2026-04-18T08:40:25.999Z</time></trkpt><trkpt lat="43.83419931009159" lon="13.039584736383384"><ele>0.0</ele><time>2026-04-18T08:40:26.999Z</time></trkpt><trkpt lat="43.834149237491566" lon="13.039678626349234"><ele>0.0</ele><time>2026-04-18T08:40:27.999Z</time></trkpt><trkpt lat="43.834100039141084" lon="13.039762910667386"><ele>0.16666666666666666</ele><time>2026-04-18T08:40:28.999Z</time></trkpt><trkpt lat="43.8340487918063" lon="13.039832580617489"><ele>0.3333333333333333</ele><time>2026-04-18T08:40:29.999Z</time></trkpt><trkpt lat="43.833996278977594" lon="13.039884892162169"><ele>0.5</ele><time>2026-04-18T08:40:30.999Z</time></trkpt><trkpt lat="43.83389088557388" lon="13.039969665538688"><ele>0.6666666666666666</ele><time>2026-04-18T08:40:32.999Z</time></trkpt><trkpt lat="43.833827870653494" lon="13.04001684251974"><ele>0.8333333333333333</ele><time>2026-04-18T08:40:33.999Z</time></trkpt><trkpt lat="43.83378101063172" lon="13.040090319116889"><ele>1.0</ele><time>2026-04-18T08:40:34.999Z</time></trkpt><trkpt lat="43.83374365366551" lon="13.04017155273343"><ele>1.0</ele><time>2026-04-18T08:40:35.999Z</time></trkpt><trkpt lat="43.83371025024616" lon="13.04028753891906"><ele>1.0</ele><time>2026-04-18T08:40:36.999Z</time></trkpt><trkpt lat="43.83367574750906" lon="13.040409201543524"><ele>1.0</ele><time>2026-04-18T08:40:37.999Z</time></trkpt><trkpt lat="43.83363918825293" lon="13.040533159282115"><ele>1.0</ele><time>2026-04-18T08:40:38.999Z</time></trkpt><trkpt lat="43.833586922260324" lon="13.040653681596856"><ele>1.0</ele><time>2026-04-18T08:40:39.999Z</time></trkpt><trkpt lat="43.833517158421174" lon="13.040786831182514"><ele>1.25</ele><time>2026-04-18T08:40:40.999Z</time></trkpt><trkpt lat="43.83344043797172" lon="13.040938293384082"><ele>1.5</ele><time>2026-04-18T08:40:41.999Z</time></trkpt><trkpt lat="43.833356732894515" lon="13.041097060406926"><ele>1.75</ele><time>2026-04-18T08:40:42.999Z</time></trkpt><trkpt lat="43.8332780550446" lon="13.041249168027447"><ele>2.0</ele><time>2026-04-18T08:40:43.999Z</time></trkpt><trkpt lat="43.833199523371825" lon="13.041396495681859"><ele>2.0</ele><time>2026-04-18T08:40:44.999Z</time></trkpt><trkpt lat="43.83311906634684" lon="13.041537513478563"><ele>2.0</ele><time>2026-04-18T08:40:45.999Z</time></trkpt><trkpt lat="43.83304481958775" lon="13.041681042325417"><ele>2.0</ele><time>2026-04-18T08:40:46.999Z</time></trkpt><trkpt lat="43.83297601322002" lon="13.04180832952512"><ele>2.0</ele><time>2026-04-18T08:40:47.999Z</time></trkpt><trkpt lat="43.83290766126251" lon="13.041924714565129"><ele>1.8</ele><time>2026-04-18T08:40:48.999Z</time></trkpt><trkpt lat="43.83285549048996" lon="13.042012833338958"><ele>1.6</ele><time>2026-04-18T08:40:49.999Z</time></trkpt><trkpt lat="43.832798227040946" lon="13.042110194817841"><ele>1.4000000000000001</ele><time>2026-04-18T08:40:51.999Z</time></trkpt><trkpt lat="43.832743109218235" lon="13.04219350840734"><ele>1.2000000000000002</ele><time>2026-04-18T08:40:54.999Z</time></trkpt><trkpt lat="43.83269185365153" lon="13.042289570833042"><ele>1.0</ele><time>2026-04-18T08:40:56.999Z</time></trkpt><trkpt lat="43.83262237061165" lon="13.042411591775654"><ele>1.1666666666666665</ele><time>2026-04-18T08:40:58.999Z</time></trkpt><trkpt lat="43.83255004102901" lon="13.042558182610126"><ele>1.3333333333333333</ele><time>2026-04-18T08:41:00.999Z</time></trkpt><trkpt lat="43.83250955219983" lon="13.04263532755987"><ele>1.5</ele><time>2026-04-18T08:41:01.999Z</time></trkpt><trkpt lat="43.83246529178201" lon="13.042717228302728"><ele>1.6666666666666665</ele><time>2026-04-18T08:41:02.999Z</time></trkpt><trkpt lat="43.83241794020126" lon="13.04280353766567"><ele>1.8333333333333333</ele><time>2026-04-18T08:41:03.999Z</time></trkpt><trkpt lat="43.83236773633516" lon="13.042892414677114"><ele>2.0</ele><time>2026-04-18T08:41:04.999Z</time></trkpt><trkpt lat="43.8323152237354" lon="13.042982292681748"><ele>2.0</ele><time>2026-04-18T08:41:05.999Z</time></trkpt><trkpt lat="43.83225850647313" lon="13.043079821654167"><ele>2.0</ele><time>2026-04-18T08:41:06.999Z</time></trkpt><trkpt lat="43.83219974314888" lon="13.043184827841884"><ele>2.0</ele><time>2026-04-18T08:41:07.999Z</time></trkpt><trkpt lat="43.83213517792605" lon="13.043296892874878"><ele>2.0</ele><time>2026-04-18T08:41:08.999Z</time></trkpt><trkpt lat="43.832069147414025" lon="13.043416553156721"><ele>2.0</ele><time>2026-04-18T08:41:09.999Z</time></trkpt><trkpt lat="43.83200741535687" lon="13.043531747733438"><ele>2.1666666666666665</ele><time>2026-04-18T08:41:10.999Z</time></trkpt><trkpt lat="43.831951585816704" lon="13.043639341666172"><ele>2.333333333333333</ele><time>2026-04-18T08:41:11.999Z</time></trkpt><trkpt lat="43.831897351609236" lon="13.043728016535772"><ele>2.5</ele><time>2026-04-18T08:41:12.999Z</time></trkpt><trkpt lat="43.83184496258676" lon="13.043819288788951"><ele>2.6666666666666665</ele><time>2026-04-18T08:41:13.999Z</time></trkpt><trkpt lat="43.83177913424016" lon="13.04385185316861"><ele>2.8333333333333335</ele><time>2026-04-18T08:41:14.999Z</time></trkpt><trkpt lat="43.831705350227836" lon="13.04382908867819"><ele>3.0</ele><time>2026-04-18T08:41:15.999Z</time></trkpt><trkpt lat="43.831632050369926" lon="13.043797895899615"><ele>3.2</ele><time>2026-04-18T08:41:16.999Z</time></trkpt><trkpt lat="43.83156230718086" lon="13.043735758744143"><ele>3.4</ele><time>2026-04-18T08:41:17.999Z</time></trkpt><trkpt lat="43.83150583179484" lon="13.043635666666791"><ele>3.6000000000000005</ele><time>2026-04-18T08:41:18.999Z</time></trkpt><trkpt lat="43.831449897484255" lon="13.043536246436835"><ele>3.8000000000000003</ele><time>2026-04-18T08:41:19.999Z</time></trkpt><trkpt lat="43.83139018731087" lon="13.043432060611318"><ele>4.0</ele><time>2026-04-18T08:41:20.999Z</time></trkpt><trkpt lat="43.83132597603434" lon="13.043323659735643"><ele>4.166666666666666</ele><time>2026-04-18T08:41:21.999Z</time></trkpt><trkpt lat="43.831260956127956" lon="13.043217541042447"><ele>4.333333333333333</ele><time>2026-04-18T08:41:22.999Z</time></trkpt><trkpt lat="43.831196207324616" lon="13.043117480900914"><ele>4.5</ele><time>2026-04-18T08:41:23.999Z</time></trkpt><trkpt lat="43.83115670559279" lon="13.04302076117571"><ele>4.666666666666667</ele><time>2026-04-18T08:41:24.999Z</time></trkpt><trkpt lat="43.8311147529552" lon="13.042945207643719"><ele>4.833333333333334</ele><time>2026-04-18T08:41:25.999Z</time></trkpt><trkpt lat="43.831014844979286" lon="13.042927428761638"><ele>5.0</ele><time>2026-04-18T08:41:26.999Z</time></trkpt><trkpt lat="43.83094044434207" lon="13.042915294607704"><ele>5.0</ele><time>2026-04-18T08:41:27.999Z</time></trkpt><trkpt lat="43.83086311687845" lon="13.042959703326668"><ele>5.0</ele><time>2026-04-18T08:41:28.999Z</time></trkpt><trkpt lat="43.83078596027673" lon="13.043003761203586"><ele>5.0</ele><time>2026-04-18T08:41:29.999Z</time></trkpt><trkpt lat="43.83073166576968" lon="13.043096255122917"><ele>5.0</ele><time>2026-04-18T08:41:30.999Z</time></trkpt><trkpt lat="43.830667990043565" lon="13.043200674951036"><ele>5.0</ele><time>2026-04-18T08:41:31.999Z</time></trkpt><trkpt lat="43.8305955649594" lon="13.043305089429982"><ele>5.0</ele><time>2026-04-18T08:41:32.999Z</time></trkpt><trkpt lat="43.83053020668632" lon="13.043440375981922"><ele>5.0</ele><time>2026-04-18T08:41:33.999Z</time></trkpt><trkpt lat="43.83044961179358" lon="13.043606653450404"><ele>5.0</ele><time>2026-04-18T08:41:34.999Z</time></trkpt><trkpt lat="43.83035014528571" lon="13.043803996642302"><ele>5.0</ele><time>2026-04-18T08:41:35.999Z</time></trkpt><trkpt lat="43.83021906194998" lon="13.043992187322795"><ele>5.666666666666667</ele><time>2026-04-18T08:41:36.999Z</time></trkpt><trkpt lat="43.83010808593049" lon="13.044205613770133"><ele>6.333333333333334</ele><time>2026-04-18T08:41:37.999Z</time></trkpt><trkpt lat="43.82999586583016" lon="13.044402948922349"><ele>7.0</ele><time>2026-04-18T08:41:38.999Z</time></trkpt><trkpt lat="43.82988640524886" lon="13.044575574682924"><ele>7.0</ele><time>2026-04-18T08:41:39.999Z</time></trkpt><trkpt lat="43.829787290155245" lon="13.04474547567839"><ele>7.0</ele><time>2026-04-18T08:41:40.999Z</time></trkpt><trkpt lat="43.829696656113946" lon="13.044894157459034"><ele>7.0</ele><time>2026-04-18T08:41:41.999Z</time></trkpt><trkpt lat="43.82960801294029" lon="13.045045017503485"><ele>7.0</ele><time>2026-04-18T08:41:42.999Z</time></trkpt><trkpt lat="43.8295266809857" lon="13.045178336248291"><ele>7.0</ele><time>2026-04-18T08:41:43.999Z</time></trkpt><trkpt lat="43.82946158733883" lon="13.045289318290223"><ele>6.999999999999999</ele><time>2026-04-18T08:41:44.999Z</time></trkpt><trkpt lat="43.8294009681468" lon="13.04539438294873"><ele>6.999999999999999</ele><time>2026-04-18T08:41:45.999Z</time></trkpt><trkpt lat="43.82935340127206" lon="13.045487503198435"><ele>7.0</ele><time>2026-04-18T08:41:46.999Z</time></trkpt><trkpt lat="43.82930160429452" lon="13.045548286472222"><ele>7.0</ele><time>2026-04-18T08:41:47.999Z</time></trkpt><trkpt lat="43.82933354948411" lon="13.045736259482457"><ele>6.3999999999999995</ele><time>2026-04-18T08:41:49.999Z</time></trkpt><trkpt lat="43.82937496016284" lon="13.045830440331896"><ele>5.799999999999999</ele><time>2026-04-18T08:41:50.999Z</time></trkpt><trkpt lat="43.829434396354394" lon="13.045926076769126"><ele>5.2</ele><time>2026-04-18T08:41:51.999Z</time></trkpt><trkpt lat="43.82951173856275" lon="13.046027476943586"><ele>4.6</ele><time>2026-04-18T08:41:52.999Z</time></trkpt><trkpt lat="43.82959389099246" lon="13.046129773421244"><ele>4.0</ele><time>2026-04-18T08:41:53.999Z</time></trkpt><trkpt lat="43.82967993161119" lon="13.046197902788238"><ele>4.0</ele><time>2026-04-18T08:41:54.999Z</time></trkpt><trkpt lat="43.82975143975647" lon="13.046274347257585"><ele>4.0</ele><time>2026-04-18T08:41:55.999Z</time></trkpt><trkpt lat="43.82982773983528" lon="13.046359398344999"><ele>4.0</ele><time>2026-04-18T08:41:56.999Z</time></trkpt><trkpt lat="43.8299004228907" lon="13.04644063143555"><ele>4.0</ele><time>2026-04-18T08:41:57.999Z</time></trkpt><trkpt lat="43.82996881283224" lon="13.04651797398699"><ele>4.0</ele><time>2026-04-18T08:41:58.999Z</time></trkpt><trkpt lat="43.83003160271343" lon="13.046587840183793"><ele>3.8000000000000003</ele><time>2026-04-18T08:41:59.999Z</time></trkpt><trkpt lat="43.830124721946355" lon="13.046682538907048"><ele>3.6000000000000005</ele><time>2026-04-18T08:42:01.999Z</time></trkpt><trkpt lat="43.83014105637756" lon="13.04686691262452"><ele>3.4</ele><time>2026-04-18T08:42:03.999Z</time></trkpt><trkpt lat="43.83012645900728" lon="13.046959065075"><ele>3.2</ele><time>2026-04-18T08:42:04.999Z</time></trkpt><trkpt lat="43.83010405838602" lon="13.047063039797273"><ele>3.0</ele><time>2026-04-18T08:42:05.999Z</time></trkpt><trkpt lat="43.83002426082969" lon="13.047165570078015"><ele>3.0</ele><time>2026-04-18T08:42:06.999Z</time></trkpt><trkpt lat="43.82996393304081" lon="13.04727836512142"><ele>3.0</ele><time>2026-04-18T08:42:07.999Z</time></trkpt><trkpt lat="43.829901825960555" lon="13.047405047680238"><ele>3.0</ele><time>2026-04-18T08:42:09Z</time></trkpt><trkpt lat="43.82983694335311" lon="13.047526762553964"><ele>3.0</ele><time>2026-04-18T08:42:10Z</time></trkpt><trkpt lat="43.829765424957586" lon="13.047655201412816"><ele>3.0</ele><time>2026-04-18T08:42:11Z</time></trkpt><trkpt lat="43.82969144548753" lon="13.04779413681688"><ele>2.75</ele><time>2026-04-18T08:42:12Z</time></trkpt><trkpt lat="43.829612970937596" lon="13.047937746979507"><ele>2.5</ele><time>2026-04-18T08:42:13Z</time></trkpt><trkpt lat="43.8295338442212" lon="13.048082085793938"><ele>2.25</ele><time>2026-04-18T08:42:14Z</time></trkpt><trkpt lat="43.829453660085626" lon="13.04822492183777"><ele>2.0</ele><time>2026-04-18T08:42:15Z</time></trkpt><trkpt lat="43.82937294917524" lon="13.04836703677483"><ele>2.0</ele><time>2026-04-18T08:42:16Z</time></trkpt><trkpt lat="43.829295255548736" lon="13.048509436528745"><ele>2.0</ele><time>2026-04-18T08:42:17Z</time></trkpt><trkpt lat="43.82922192314248" lon="13.048646523770943"><ele>2.0</ele><time>2026-04-18T08:42:18Z</time></trkpt><trkpt lat="43.82914209261756" lon="13.048776966144027"><ele>2.0</ele><time>2026-04-18T08:42:19Z</time></trkpt><trkpt lat="43.82906810463631" lon="13.048904628917285"><ele>2.0</ele><time>2026-04-18T08:42:20Z</time></trkpt><trkpt lat="43.82899860448113" lon="13.049019335342113"><ele>2.0</ele><time>2026-04-18T08:42:21Z</time></trkpt><trkpt lat="43.82891900664539" lon="13.049140013478631"><ele>2.0</ele><time>2026-04-18T08:42:22Z</time></trkpt><trkpt lat="43.82884253184752" lon="13.049276744596773"><ele>2.0</ele><time>2026-04-18T08:42:23Z</time></trkpt><trkpt lat="43.82877356220126" lon="13.049431434257837"><ele>2.25</ele><time>2026-04-18T08:42:24Z</time></trkpt><trkpt lat="43.82869720671665" lon="13.0495728602368"><ele>2.5</ele><time>2026-04-18T08:42:25Z</time></trkpt><trkpt lat="43.82862171383364" lon="13.049724524710713"><ele>2.75</ele><time>2026-04-18T08:42:26Z</time></trkpt><trkpt lat="43.82853918343888" lon="13.04986504758089"><ele>3.0</ele><time>2026-04-18T08:42:27Z</time></trkpt><trkpt lat="43.82845826941269" lon="13.050005300226776"><ele>3.25</ele><time>2026-04-18T08:42:28Z</time></trkpt><trkpt lat="43.828378776353475" lon="13.050152893815378"><ele>3.5</ele><time>2026-04-18T08:42:29Z</time></trkpt><trkpt lat="43.828296100820346" lon="13.05031301699972"><ele>3.75</ele><time>2026-04-18T08:42:30Z</time></trkpt><trkpt lat="43.82820774352957" lon="13.050480971520958"><ele>4.0</ele><time>2026-04-18T08:42:31Z</time></trkpt><trkpt lat="43.82811306211249" lon="13.050649327137"><ele>4.0</ele><time>2026-04-18T08:42:32Z</time></trkpt><trkpt lat="43.82801757126233" lon="13.050812529855785"><ele>4.0</ele><time>2026-04-18T08:42:33Z</time></trkpt><trkpt lat="43.827923828954475" lon="13.050972334509838"><ele>4.0</ele><time>2026-04-18T08:42:34Z</time></trkpt><trkpt lat="43.82783424203077" lon="13.051127661438633"><ele>4.0</ele><time>2026-04-18T08:42:35Z</time></trkpt><trkpt lat="43.82774179788034" lon="13.051305631234964"><ele>4.0</ele><time>2026-04-18T08:42:36Z</time></trkpt><trkpt lat="43.82764490186672" lon="13.051490776908338"><ele>4.0</ele><time>2026-04-18T08:42:37Z</time></trkpt><trkpt lat="43.82754666815987" lon="13.051676167834108"><ele>4.0</ele><time>2026-04-18T08:42:38Z</time></trkpt><trkpt lat="43.82744797048928" lon="13.051862631236412"><ele>2.6666666666666665</ele><time>2026-04-18T08:42:39Z</time></trkpt><trkpt lat="43.82734342237728" lon="13.05205677419613"><ele>1.3333333333333333</ele><time>2026-04-18T08:42:40Z</time></trkpt><trkpt lat="43.82723388221065" lon="13.052252833932972"><ele>0.0</ele><time>2026-04-18T08:42:41Z</time></trkpt><trkpt lat="43.827125219688995" lon="13.052444902958987"><ele>-0.3333333333333333</ele><time>2026-04-18T08:42:42Z</time></trkpt><trkpt lat="43.82702002606922" lon="13.05263179893794"><ele>-0.6666666666666666</ele><time>2026-04-18T08:42:43Z</time></trkpt><trkpt lat="43.82691348823588" lon="13.052818041815192"><ele>-1.0</ele><time>2026-04-18T08:42:44Z</time></trkpt><trkpt lat="43.82681064840443" lon="13.053001420704463"><ele>-0.3333333333333333</ele><time>2026-04-18T08:42:45Z</time></trkpt><trkpt lat="43.826709162803894" lon="13.053175378831718"><ele>0.3333333333333333</ele><time>2026-04-18T08:42:46Z</time></trkpt><trkpt lat="43.82661261932154" lon="13.053341918613217"><ele>1.0</ele><time>2026-04-18T08:42:47Z</time></trkpt><trkpt lat="43.82652466830862" lon="13.053500921552914"><ele>1.25</ele><time>2026-04-18T08:42:48Z</time></trkpt><trkpt lat="43.82644180078257" lon="13.053650015343687"><ele>1.5</ele><time>2026-04-18T08:42:49Z</time></trkpt><trkpt lat="43.82636629234994" lon="13.053794239784656"><ele>1.75</ele><time>2026-04-18T08:42:50Z</time></trkpt><trkpt lat="43.82629114895008" lon="13.053927209872123"><ele>2.0</ele><time>2026-04-18T08:42:51Z</time></trkpt><trkpt lat="43.82621906050043" lon="13.05404364536962"><ele>1.9999999999999998</ele><time>2026-04-18T08:42:52Z</time></trkpt><trkpt lat="43.82615340091948" lon="13.054127710656537"><ele>2.0</ele><time>2026-04-18T08:42:53Z</time></trkpt><trkpt lat="43.826093095753805" lon="13.054196362605575"><ele>2.0</ele><time>2026-04-18T08:42:54Z</time></trkpt><trkpt lat="43.82602520187324" lon="13.054262134655843"><ele>2.0</ele><time>2026-04-18T08:42:55Z</time></trkpt><trkpt lat="43.82594135342539" lon="13.054311083670832"><ele>1.9999999999999998</ele><time>2026-04-18T08:42:56Z</time></trkpt><trkpt lat="43.82584949283146" lon="13.054333180816526"><ele>2.0</ele><time>2026-04-18T08:42:57Z</time></trkpt><trkpt lat="43.82574444853437" lon="13.054337763616298"><ele>2.25</ele><time>2026-04-18T08:42:58Z</time></trkpt><trkpt lat="43.82562941134896" lon="13.054323232324021"><ele>2.5</ele><time>2026-04-18T08:42:59Z</time></trkpt><trkpt lat="43.82550950265976" lon="13.05433292539251"><ele>2.75</ele><time>2026-04-18T08:43:00Z</time></trkpt><trkpt lat="43.82538063254543" lon="13.054257668535076"><ele>3.0</ele><time>2026-04-18T08:43:01Z</time></trkpt><trkpt lat="43.82525511390843" lon="13.054213153647817"><ele>2.5</ele><time>2026-04-18T08:43:02Z</time></trkpt><trkpt lat="43.82513433889432" lon="13.054168198642243"><ele>2.0</ele><time>2026-04-18T08:43:03Z</time></trkpt><trkpt lat="43.82501191126266" lon="13.054122342954068"><ele>1.5</ele><time>2026-04-18T08:43:04Z</time></trkpt><trkpt lat="43.824883752005505" lon="13.054078363350122"><ele>1.0</ele><time>2026-04-18T08:43:05Z</time></trkpt><trkpt lat="43.824756211108" lon="13.054034277207087"><ele>1.0</ele><time>2026-04-18T08:43:06Z</time></trkpt><trkpt lat="43.82462800594728" lon="13.053994399823898"><ele>1.0</ele><time>2026-04-18T08:43:07Z</time></trkpt><trkpt lat="43.824503334927485" lon="13.053948963215753"><ele>1.0</ele><time>2026-04-18T08:43:08Z</time></trkpt><trkpt lat="43.82438074044099" lon="13.053912219518619"><ele>1.0</ele><time>2026-04-18T08:43:09Z</time></trkpt><trkpt lat="43.82426235900076" lon="13.05387874078187"><ele>0.75</ele><time>2026-04-18T08:43:10Z</time></trkpt><trkpt lat="43.82413828855471" lon="13.053845296257869"><ele>0.5</ele><time>2026-04-18T08:43:11Z</time></trkpt><trkpt lat="43.82401064894427" lon="13.053809887369558"><ele>0.25</ele><time>2026-04-18T08:43:12Z</time></trkpt><trkpt lat="43.8238696885305" lon="13.053765669975883"><ele>0.0</ele><time>2026-04-18T08:43:13Z</time></trkpt><trkpt lat="43.82372260266857" lon="13.053715718285781"><ele>0.0</ele><time>2026-04-18T08:43:14Z</time></trkpt><trkpt lat="43.82358222686297" lon="13.053673051528063"><ele>0.0</ele><time>2026-04-18T08:43:15Z</time></trkpt><trkpt lat="43.823432487386" lon="13.053626605814813"><ele>0.0</ele><time>2026-04-18T08:43:16Z</time></trkpt><trkpt lat="43.823281161956096" lon="13.053570881209772"><ele>1.0</ele><time>2026-04-18T08:43:17Z</time></trkpt><trkpt lat="43.82312873696914" lon="13.053513382308493"><ele>2.0</ele><time>2026-04-18T08:43:18Z</time></trkpt><trkpt lat="43.822975835585915" lon="13.053454871974127"><ele>3.0</ele><time>2026-04-18T08:43:19Z</time></trkpt><trkpt lat="43.822829025141544" lon="13.05338049427282"><ele>3.0</ele><time>2026-04-18T08:43:20Z</time></trkpt><trkpt lat="43.82268706214329" lon="13.053303695424097"><ele>3.0</ele><time>2026-04-18T08:43:21Z</time></trkpt><trkpt lat="43.822537740779914" lon="13.053227107255852"><ele>3.0</ele><time>2026-04-18T08:43:22Z</time></trkpt><trkpt lat="43.82238791904282" lon="13.053151519054552"><ele>3.0</ele><time>2026-04-18T08:43:23Z</time></trkpt><trkpt lat="43.82224224087171" lon="13.053077693905902"><ele>3.0</ele><time>2026-04-18T08:43:24Z</time></trkpt><trkpt lat="43.82210166827006" lon="13.053002154605169"><ele>3.0</ele><time>2026-04-18T08:43:25Z</time></trkpt><trkpt lat="43.82196100232487" lon="13.052927684047393"><ele>3.0</ele><time>2026-04-18T08:43:26Z</time></trkpt><trkpt lat="43.82181651792842" lon="13.052856318456787"><ele>3.0</ele><time>2026-04-18T08:43:27Z</time></trkpt><trkpt lat="43.82167031949153" lon="13.052781114789436"><ele>3.0</ele><time>2026-04-18T08:43:28Z</time></trkpt><trkpt lat="43.82152731117704" lon="13.052705645338502"><ele>2.75</ele><time>2026-04-18T08:43:29Z</time></trkpt><trkpt lat="43.821392254452384" lon="13.052636228307609"><ele>2.5</ele><time>2026-04-18T08:43:30Z</time></trkpt><trkpt lat="43.821275692523784" lon="13.052567397610018"><ele>2.25</ele><time>2026-04-18T08:43:31Z</time></trkpt><trkpt lat="43.82116360221338" lon="13.052497069519237"><ele>2.0</ele><time>2026-04-18T08:43:32Z</time></trkpt><trkpt lat="43.82104662540119" lon="13.052442594629804"><ele>2.5</ele><time>2026-04-18T08:43:33Z</time></trkpt><trkpt lat="43.820928419275575" lon="13.052390600503404"><ele>3.0</ele><time>2026-04-18T08:43:34Z</time></trkpt><trkpt lat="43.82080888973472" lon="13.052325350579526"><ele>3.5</ele><time>2026-04-18T08:43:35Z</time></trkpt><trkpt lat="43.82068309833257" lon="13.052300572762945"><ele>4.0</ele><time>2026-04-18T08:43:36Z</time></trkpt><trkpt lat="43.82055670723421" lon="13.052260427022672"><ele>4.0</ele><time>2026-04-18T08:43:37Z</time></trkpt><trkpt lat="43.820434165092735" lon="13.05219519905857"><ele>4.0</ele><time>2026-04-18T08:43:38Z</time></trkpt><trkpt lat="43.82030828823474" lon="13.05215180280943"><ele>4.0</ele><time>2026-04-18T08:43:39Z</time></trkpt><trkpt lat="43.82017827913992" lon="13.052127808865094"><ele>4.0</ele><time>2026-04-18T08:43:40Z</time></trkpt><trkpt lat="43.820050108429335" lon="13.052077318452696"><ele>4.0</ele><time>2026-04-18T08:43:41Z</time></trkpt><trkpt lat="43.81992018418394" lon="13.052039097628032"><ele>4.0</ele><time>2026-04-18T08:43:42Z</time></trkpt><trkpt lat="43.819792416193344" lon="13.051995646696291"><ele>4.0</ele><time>2026-04-18T08:43:43Z</time></trkpt><trkpt lat="43.81966310523903" lon="13.051952876664966"><ele>4.0</ele><time>2026-04-18T08:43:44Z</time></trkpt><trkpt lat="43.81953233691394" lon="13.051912899084956"><ele>4.0</ele><time>2026-04-18T08:43:45Z</time></trkpt><trkpt lat="43.81940197001094" lon="13.051871677580715"><ele>4.0</ele><time>2026-04-18T08:43:46Z</time></trkpt><trkpt lat="43.819271055415115" lon="13.051830627943112"><ele>4.0</ele><time>2026-04-18T08:43:47Z</time></trkpt><trkpt lat="43.81913970463977" lon="13.051777956277036"><ele>4.0</ele><time>2026-04-18T08:43:48Z</time></trkpt><trkpt lat="43.819006684602854" lon="13.05173347206466"><ele>4.0</ele><time>2026-04-18T08:43:49Z</time></trkpt><trkpt lat="43.8188727270201" lon="13.051678985089058"><ele>4.0</ele><time>2026-04-18T08:43:50Z</time></trkpt><trkpt lat="43.8187401232639" lon="13.051636197249385"><ele>4.0</ele><time>2026-04-18T08:43:51Z</time></trkpt><trkpt lat="43.81860564970112" lon="13.051595626967979"><ele>4.0</ele><time>2026-04-18T08:43:52Z</time></trkpt><trkpt lat="43.818473043504554" lon="13.05154715417161"><ele>3.0</ele><time>2026-04-18T08:43:53Z</time></trkpt><trkpt lat="43.81833861391418" lon="13.051505737433155"><ele>2.0</ele><time>2026-04-18T08:43:54Z</time></trkpt><trkpt lat="43.81820449259803" lon="13.051468144727616"><ele>1.0</ele><time>2026-04-18T08:43:55Z</time></trkpt><trkpt lat="43.81806904700708" lon="13.051427271119204"><ele>0.0</ele><time>2026-04-18T08:43:56Z</time></trkpt><trkpt lat="43.817934921063426" lon="13.051389682813298"><ele>0.0</ele><time>2026-04-18T08:43:57Z</time></trkpt><trkpt lat="43.81780260500971" lon="13.051328780675693"><ele>0.0</ele><time>2026-04-18T08:43:58Z</time></trkpt><trkpt lat="43.81766195601448" lon="13.051314286586834"><ele>0.0</ele><time>2026-04-18T08:43:59Z</time></trkpt><trkpt lat="43.817523984647075" lon="13.051293089903696"><ele>0.0</ele><time>2026-04-18T08:44:00Z</time></trkpt><trkpt lat="43.81738440975194" lon="13.051284499016438"><ele>1.25</ele><time>2026-04-18T08:44:01Z</time></trkpt><trkpt lat="43.81724533650315" lon="13.051282140160975"><ele>2.5</ele><time>2026-04-18T08:44:02Z</time></trkpt><trkpt lat="43.817106984552325" lon="13.05128857432221"><ele>3.75</ele><time>2026-04-18T08:44:03Z</time></trkpt><trkpt lat="43.816968175287094" lon="13.051301228748375"><ele>5.0</ele><time>2026-04-18T08:44:04Z</time></trkpt><trkpt lat="43.81683209228501" lon="13.051331535110437"><ele>5.5</ele><time>2026-04-18T08:44:05Z</time></trkpt><trkpt lat="43.81670024042601" lon="13.05137287857671"><ele>6.0</ele><time>2026-04-18T08:44:06Z</time></trkpt><trkpt lat="43.81657263292366" lon="13.051418956405724"><ele>6.5</ele><time>2026-04-18T08:44:07Z</time></trkpt><trkpt lat="43.81644657307294" lon="13.051465463098605"><ele>7.0</ele><time>2026-04-18T08:44:08Z</time></trkpt><trkpt lat="43.81632033663471" lon="13.051527899596334"><ele>7.0</ele><time>2026-04-18T08:44:09Z</time></trkpt><trkpt lat="43.8162005492837" lon="13.051594647497069"><ele>7.0</ele><time>2026-04-18T08:44:10Z</time></trkpt><trkpt lat="43.81607840127364" lon="13.051661660271904"><ele>7.0</ele><time>2026-04-18T08:44:11Z</time></trkpt><trkpt lat="43.81595872804591" lon="13.051733068137665"><ele>7.0</ele><time>2026-04-18T08:44:12Z</time></trkpt><trkpt lat="43.81583232204872" lon="13.05180335971812"><ele>6.75</ele><time>2026-04-18T08:44:13Z</time></trkpt><trkpt lat="43.81571677655965" lon="13.051872670327384"><ele>6.5</ele><time>2026-04-18T08:44:14Z</time></trkpt><trkpt lat="43.81560065001826" lon="13.051945291323822"><ele>6.25</ele><time>2026-04-18T08:44:15Z</time></trkpt><trkpt lat="43.81548732308552" lon="13.05202565454492"><ele>6.0</ele><time>2026-04-18T08:44:16Z</time></trkpt><trkpt lat="43.81537573458198" lon="13.052099396867876"><ele>6.0</ele><time>2026-04-18T08:44:17Z</time></trkpt><trkpt lat="43.815262355617506" lon="13.052169477870592"><ele>6.0</ele><time>2026-04-18T08:44:18Z</time></trkpt><trkpt lat="43.815152798630585" lon="13.052240566496415"><ele>6.0</ele><time>2026-04-18T08:44:19Z</time></trkpt><trkpt lat="43.815044609149304" lon="13.052309256139068"><ele>6.0</ele><time>2026-04-18T08:44:20Z</time></trkpt><trkpt lat="43.814940404570415" lon="13.052372369518846"><ele>6.199999999999999</ele><time>2026-04-18T08:44:21Z</time></trkpt><trkpt lat="43.81483844604321" lon="13.052427576077179"><ele>6.3999999999999995</ele><time>2026-04-18T08:44:22Z</time></trkpt><trkpt lat="43.81474564931706" lon="13.052477290573632"><ele>6.6</ele><time>2026-04-18T08:44:23Z</time></trkpt><trkpt lat="43.81466445730109" lon="13.052515701703937"><ele>6.8</ele><time>2026-04-18T08:44:24Z</time></trkpt><trkpt lat="43.81458957496493" lon="13.052554691636658"><ele>7.0</ele><time>2026-04-18T08:44:25Z</time></trkpt><trkpt lat="43.81451753774484" lon="13.052592830903121"><ele>7.0</ele><time>2026-04-18T08:44:26Z</time></trkpt><trkpt lat="43.81445504512985" lon="13.05263176971461"><ele>6.999999999999999</ele><time>2026-04-18T08:44:27Z</time></trkpt><trkpt lat="43.81436136880321" lon="13.0526849842074"><ele>6.999999999999999</ele><time>2026-04-18T08:44:29Z</time></trkpt><trkpt lat="43.814281373442086" lon="13.052747645222253"><ele>7.0</ele><time>2026-04-18T08:44:46Z</time></trkpt><trkpt lat="43.814210507690746" lon="13.052790852923358"><ele>7.0</ele><time>2026-04-18T08:44:48Z</time></trkpt><trkpt lat="43.814085902522294" lon="13.052867730697749"><ele>6.8</ele><time>2026-04-18T08:44:50Z</time></trkpt><trkpt lat="43.81400477408162" lon="13.052921174862249"><ele>6.6</ele><time>2026-04-18T08:44:51Z</time></trkpt><trkpt lat="43.813917347366015" lon="13.052975067690474"><ele>6.3999999999999995</ele><time>2026-04-18T08:44:52Z</time></trkpt><trkpt lat="43.81382468413086" lon="13.053038057438227"><ele>6.199999999999999</ele><time>2026-04-18T08:44:53Z</time></trkpt><trkpt lat="43.81371540379447" lon="13.05311137177172"><ele>6.0</ele><time>2026-04-18T08:44:54Z</time></trkpt><trkpt lat="43.81359343775134" lon="13.053187227328483"><ele>5.75</ele><time>2026-04-18T08:44:55Z</time></trkpt><trkpt lat="43.81346614021071" lon="13.05326751196627"><ele>5.5</ele><time>2026-04-18T08:44:56Z</time></trkpt><trkpt lat="43.81333202412412" lon="13.053351459209695"><ele>5.25</ele><time>2026-04-18T08:44:57Z</time></trkpt><trkpt lat="43.81319194910134" lon="13.053434821150134"><ele>5.0</ele><time>2026-04-18T08:44:58Z</time></trkpt><trkpt lat="43.81304540337599" lon="13.053518356665078"><ele>5.0</ele><time>2026-04-18T08:44:59Z</time></trkpt><trkpt lat="43.81289550582691" lon="13.053604992896986"><ele>5.0</ele><time>2026-04-18T08:45:00Z</time></trkpt><trkpt lat="43.812743968865995" lon="13.05369572799375"><ele>5.0</ele><time>2026-04-18T08:45:01Z</time></trkpt><trkpt lat="43.81258944412113" lon="13.053787662502987"><ele>5.0</ele><time>2026-04-18T08:45:02Z</time></trkpt><trkpt lat="43.81243190574001" lon="13.053881496472512"><ele>5.0</ele><time>2026-04-18T08:45:03Z</time></trkpt><trkpt lat="43.81227228723052" lon="13.053972325331458"><ele>5.0</ele><time>2026-04-18T08:45:04Z</time></trkpt><trkpt lat="43.81211379226213" lon="13.054067755689635"><ele>4.666666666666667</ele><time>2026-04-18T08:45:05Z</time></trkpt><trkpt lat="43.81195377808171" lon="13.054164985921725"><ele>4.333333333333333</ele><time>2026-04-18T08:45:06Z</time></trkpt><trkpt lat="43.811793088234026" lon="13.054254901781174"><ele>4.0</ele><time>2026-04-18T08:45:07Z</time></trkpt><trkpt lat="43.811634624076575" lon="13.054346068291355"><ele>5.0</ele><time>2026-04-18T08:45:08Z</time></trkpt><trkpt lat="43.81147934571621" lon="13.05444309360063"><ele>6.0</ele><time>2026-04-18T08:45:09Z</time></trkpt><trkpt lat="43.811321371777346" lon="13.054541831755838"><ele>7.0</ele><time>2026-04-18T08:45:10Z</time></trkpt><trkpt lat="43.81116383018336" lon="13.054640943786541"><ele>7.0</ele><time>2026-04-18T08:45:11Z</time></trkpt><trkpt lat="43.81100342328784" lon="13.054733294503363"><ele>7.0</ele><time>2026-04-18T08:45:12Z</time></trkpt><trkpt lat="43.810841841291044" lon="13.05482117106813"><ele>7.0</ele><time>2026-04-18T08:45:13Z</time></trkpt><trkpt lat="43.81068431725101" lon="13.054918110023854"><ele>9.0</ele><time>2026-04-18T08:45:14Z</time></trkpt><trkpt lat="43.81052492625006" lon="13.05502133666654"><ele>11.0</ele><time>2026-04-18T08:45:15Z</time></trkpt><trkpt lat="43.81036745449517" lon="13.055122978870884"><ele>13.0</ele><time>2026-04-18T08:45:16Z</time></trkpt><trkpt lat="43.81021113881" lon="13.055225649850723"><ele>12.666666666666666</ele><time>2026-04-18T08:45:17Z</time></trkpt><trkpt lat="43.81005728092474" lon="13.05532234071871"><ele>12.333333333333332</ele><time>2026-04-18T08:45:18Z</time></trkpt><trkpt lat="43.809904682634155" lon="13.055420971754849"><ele>12.0</ele><time>2026-04-18T08:45:19Z</time></trkpt><trkpt lat="43.80975183295702" lon="13.055511334888836"><ele>12.0</ele><time>2026-04-18T08:45:20Z</time></trkpt><trkpt lat="43.80960417203871" lon="13.055593834413552"><ele>12.0</ele><time>2026-04-18T08:45:21Z</time></trkpt><trkpt lat="43.80946551163927" lon="13.055669878663645"><ele>12.0</ele><time>2026-04-18T08:45:22Z</time></trkpt><trkpt lat="43.80933253299032" lon="13.055744124127823"><ele>11.75</ele><time>2026-04-18T08:45:23Z</time></trkpt><trkpt lat="43.80920549609215" lon="13.055828602029946"><ele>11.5</ele><time>2026-04-18T08:45:24Z</time></trkpt><trkpt lat="43.8090772383665" lon="13.055934136576244"><ele>11.25</ele><time>2026-04-18T08:45:25Z</time></trkpt><trkpt lat="43.808949588801845" lon="13.056036477535443"><ele>11.0</ele><time>2026-04-18T08:45:26Z</time></trkpt><trkpt lat="43.80882639232511" lon="13.05612173862273"><ele>11.0</ele><time>2026-04-18T08:45:27Z</time></trkpt><trkpt lat="43.8087198105076" lon="13.056236904911454"><ele>11.0</ele><time>2026-04-18T08:45:28Z</time></trkpt><trkpt lat="43.80860476019859" lon="13.0562678486268"><ele>11.0</ele><time>2026-04-18T08:45:29Z</time></trkpt><trkpt lat="43.808506861554925" lon="13.056225832234981"><ele>11.0</ele><time>2026-04-18T08:45:30Z</time></trkpt><trkpt lat="43.80843606400476" lon="13.0562404816283"><ele>11.0</ele><time>2026-04-18T08:45:31Z</time></trkpt><trkpt lat="43.80838315205855" lon="13.056317760647937"><ele>11.0</ele><time>2026-04-18T08:45:32Z</time></trkpt><trkpt lat="43.80834410116165" lon="13.056392481438097"><ele>11.0</ele><time>2026-04-18T08:45:33Z</time></trkpt><trkpt lat="43.80835456642607" lon="13.056583690844421"><ele>11.0</ele><time>2026-04-18T08:45:35Z</time></trkpt><trkpt lat="43.80840226915291" lon="13.056702291734844"><ele>11.0</ele><time>2026-04-18T08:45:36Z</time></trkpt><trkpt lat="43.808457838644344" lon="13.056799722715283"><ele>11.0</ele><time>2026-04-18T08:45:37Z</time></trkpt><trkpt lat="43.808463555107224" lon="13.056933325285906"><ele>11.0</ele><time>2026-04-18T08:45:38Z</time></trkpt><trkpt lat="43.80846594061206" lon="13.057044787728797"><ele>11.0</ele><time>2026-04-18T08:45:39Z</time></trkpt><trkpt lat="43.80828634130668" lon="13.057145952838926"><ele>11.0</ele><time>2026-04-18T08:45:40Z</time></trkpt><trkpt lat="43.80817129061122" lon="13.057222109535125"><ele>11.0</ele><time>2026-04-18T08:45:41Z</time></trkpt><trkpt lat="43.80804287145717" lon="13.057316581964884"><ele>11.0</ele><time>2026-04-18T08:45:42Z</time></trkpt><trkpt lat="43.807901122248694" lon="13.057360714558884"><ele>11.0</ele><time>2026-04-18T08:45:43Z</time></trkpt><trkpt lat="43.80775652334115" lon="13.05737412384874"><ele>11.0</ele><time>2026-04-18T08:45:44Z</time></trkpt><trkpt lat="43.80760135814805" lon="13.05740234198526"><ele>11.0</ele><time>2026-04-18T08:45:45Z</time></trkpt><trkpt lat="43.807439720158186" lon="13.05742943957209"><ele>10.666666666666666</ele><time>2026-04-18T08:45:46Z</time></trkpt><trkpt lat="43.807265371737984" lon="13.057458251136795"><ele>10.333333333333334</ele><time>2026-04-18T08:45:47Z</time></trkpt><trkpt lat="43.80708602005871" lon="13.057489059214234"><ele>10.0</ele><time>2026-04-18T08:45:48Z</time></trkpt><trkpt lat="43.80690947734348" lon="13.057518160874881"><ele>9.333333333333334</ele><time>2026-04-18T08:45:49Z</time></trkpt><trkpt lat="43.80673639521424" lon="13.057551944471573"><ele>8.666666666666666</ele><time>2026-04-18T08:45:50Z</time></trkpt><trkpt lat="43.80656315521272" lon="13.057587018966306"><ele>8.0</ele><time>2026-04-18T08:45:51Z</time></trkpt><trkpt lat="43.80639065602366" lon="13.0576169149565"><ele>8.0</ele><time>2026-04-18T08:45:52Z</time></trkpt><trkpt lat="43.80622280664036" lon="13.057643105163004"><ele>8.0</ele><time>2026-04-18T08:45:53Z</time></trkpt><trkpt lat="43.8060589153454" lon="13.057670894492617"><ele>8.0</ele><time>2026-04-18T08:45:54Z</time></trkpt><trkpt lat="43.805897372992696" lon="13.057724602216856"><ele>8.333333333333332</ele><time>2026-04-18T08:45:55Z</time></trkpt><trkpt lat="43.80574312724929" lon="13.057803566908591"><ele>8.666666666666666</ele><time>2026-04-18T08:45:56Z</time></trkpt><trkpt lat="43.805593847582564" lon="13.05791571414047"><ele>9.0</ele><time>2026-04-18T08:45:57Z</time></trkpt><trkpt lat="43.80545597716477" lon="13.058047199231952"><ele>9.0</ele><time>2026-04-18T08:45:58Z</time></trkpt><trkpt lat="43.805334269330466" lon="13.058219672171012"><ele>9.0</ele><time>2026-04-18T08:45:59Z</time></trkpt><trkpt lat="43.805217878407944" lon="13.058406650300732"><ele>9.0</ele><time>2026-04-18T08:46:00Z</time></trkpt><trkpt lat="43.805107275624955" lon="13.058598768555324"><ele>10.666666666666668</ele><time>2026-04-18T08:46:01Z</time></trkpt><trkpt lat="43.804991658987014" lon="13.058791167961488"><ele>12.333333333333334</ele><time>2026-04-18T08:46:02Z</time></trkpt><trkpt lat="43.8048716064192" lon="13.058986262034693"><ele>14.0</ele><time>2026-04-18T08:46:03.001Z</time></trkpt><trkpt lat="43.804753388485416" lon="13.059184993559136"><ele>14.0</ele><time>2026-04-18T08:46:04.001Z</time></trkpt><trkpt lat="43.804633470350915" lon="13.059382558857704"><ele>14.0</ele><time>2026-04-18T08:46:05.001Z</time></trkpt><trkpt lat="43.80451493306414" lon="13.059580791672708"><ele>14.0</ele><time>2026-04-18T08:46:06.001Z</time></trkpt><trkpt lat="43.80439503148992" lon="13.059780348791943"><ele>15.333333333333334</ele><time>2026-04-18T08:46:07.001Z</time></trkpt><trkpt lat="43.80427592247557" lon="13.059981588661808"><ele>16.666666666666668</ele><time>2026-04-18T08:46:08.001Z</time></trkpt><trkpt lat="43.80416101471325" lon="13.060184058428282"><ele>18.0</ele><time>2026-04-18T08:46:09.001Z</time></trkpt><trkpt lat="43.804041503982795" lon="13.06039391723957"><ele>18.0</ele><time>2026-04-18T08:46:10.001Z</time></trkpt><trkpt lat="43.803926910625954" lon="13.06060357771133"><ele>18.0</ele><time>2026-04-18T08:46:11Z</time></trkpt><trkpt lat="43.80381377904503" lon="13.060829599361039"><ele>18.0</ele><time>2026-04-18T08:46:12Z</time></trkpt><trkpt lat="43.80370395570698" lon="13.061052097430595"><ele>18.333333333333332</ele><time>2026-04-18T08:46:13Z</time></trkpt><trkpt lat="43.80359853065783" lon="13.061279070736914"><ele>18.666666666666664</ele><time>2026-04-18T08:46:14Z</time></trkpt><trkpt lat="43.80350291155709" lon="13.06151358340002"><ele>19.0</ele><time>2026-04-18T08:46:15Z</time></trkpt><trkpt lat="43.803413721843306" lon="13.061748755947596"><ele>19.0</ele><time>2026-04-18T08:46:16Z</time></trkpt><trkpt lat="43.80332451192969" lon="13.061993913020714"><ele>19.0</ele><time>2026-04-18T08:46:17Z</time></trkpt><trkpt lat="43.803242150225515" lon="13.062235915848188"><ele>19.0</ele><time>2026-04-18T08:46:18Z</time></trkpt><trkpt lat="43.80315355690428" lon="13.062469046396057"><ele>19.333333333333332</ele><time>2026-04-18T08:46:19Z</time></trkpt><trkpt lat="43.80307117259785" lon="13.062690695389913"><ele>19.666666666666668</ele><time>2026-04-18T08:46:20Z</time></trkpt><trkpt lat="43.802998295680176" lon="13.062911185789806"><ele>20.0</ele><time>2026-04-18T08:46:21Z</time></trkpt><trkpt lat="43.8029443815031" lon="13.063133556956458"><ele>20.333333333333336</ele><time>2026-04-18T08:46:22Z</time></trkpt><trkpt lat="43.80290441630979" lon="13.063362690105365"><ele>20.666666666666668</ele><time>2026-04-18T08:46:23Z</time></trkpt><trkpt lat="43.80288207179965" lon="13.063594894031109"><ele>21.0</ele><time>2026-04-18T08:46:24Z</time></trkpt><trkpt lat="43.802854401800445" lon="13.06383015888549"><ele>21.0</ele><time>2026-04-18T08:46:25Z</time></trkpt><trkpt lat="43.80281986776918" lon="13.064037169579185"><ele>21.0</ele><time>2026-04-18T08:46:26Z</time></trkpt><trkpt lat="43.80276395046043" lon="13.0642381803403"><ele>21.0</ele><time>2026-04-18T08:46:27Z</time></trkpt><trkpt lat="43.80269349009673" lon="13.064421869370967"><ele>26.0</ele><time>2026-04-18T08:46:28Z</time></trkpt><trkpt lat="43.80258998368353" lon="13.064586649212133"><ele>31.0</ele><time>2026-04-18T08:46:29Z</time></trkpt><trkpt lat="43.80247760078257" lon="13.064742393982048"><ele>36.0</ele><time>2026-04-18T08:46:30Z</time></trkpt><trkpt lat="43.80233362909279" lon="13.06484744469039"><ele>34.666666666666664</ele><time>2026-04-18T08:46:31Z</time></trkpt><trkpt lat="43.802190105171235" lon="13.064971355315631"><ele>33.33333333333333</ele><time>2026-04-18T08:46:32Z</time></trkpt><trkpt lat="43.80204735141909" lon="13.065102405310057"><ele>32.0</ele><time>2026-04-18T08:46:33Z</time></trkpt><trkpt lat="43.80190443001975" lon="13.065223663331581"><ele>36.33333333333333</ele><time>2026-04-18T08:46:34Z</time></trkpt><trkpt lat="43.80176486572385" lon="13.065348834469923"><ele>40.666666666666664</ele><time>2026-04-18T08:46:35Z</time></trkpt><trkpt lat="43.80161355084121" lon="13.065484555966508"><ele>45.0</ele><time>2026-04-18T08:46:36Z</time></trkpt><trkpt lat="43.80146460345141" lon="13.065605640476903"><ele>45.0</ele><time>2026-04-18T08:46:37Z</time></trkpt><trkpt lat="43.80130802214143" lon="13.065730847820031"><ele>45.0</ele><time>2026-04-18T08:46:38Z</time></trkpt><trkpt lat="43.801153383072794" lon="13.0658684579459"><ele>45.0</ele><time>2026-04-18T08:46:39Z</time></trkpt><trkpt lat="43.8010141180086" lon="13.065993874774335"><ele>46.33333333333333</ele><time>2026-04-18T08:46:40Z</time></trkpt><trkpt lat="43.80087060214905" lon="13.066104848566034"><ele>47.666666666666664</ele><time>2026-04-18T08:46:41Z</time></trkpt><trkpt lat="43.80072039621931" lon="13.066226181580955"><ele>49.0</ele><time>2026-04-18T08:46:42Z</time></trkpt><trkpt lat="43.80057327180815" lon="13.06632995817805"><ele>49.0</ele><time>2026-04-18T08:46:43Z</time></trkpt><trkpt lat="43.8004260850613" lon="13.066435902582379"><ele>49.0</ele><time>2026-04-18T08:46:44Z</time></trkpt><trkpt lat="43.800264965643514" lon="13.066521670397886"><ele>49.0</ele><time>2026-04-18T08:46:45Z</time></trkpt><trkpt lat="43.80008937529076" lon="13.066590517659986"><ele>49.0</ele><time>2026-04-18T08:46:46Z</time></trkpt><trkpt lat="43.79989896825247" lon="13.06662900403956"><ele>49.0</ele><time>2026-04-18T08:46:47Z</time></trkpt><trkpt lat="43.799704456967675" lon="13.066646351432974"><ele>49.0</ele><time>2026-04-18T08:46:48Z</time></trkpt><trkpt lat="43.79949781781197" lon="13.066653789223837"><ele>50.666666666666664</ele><time>2026-04-18T08:46:49Z</time></trkpt><trkpt lat="43.799291252719094" lon="13.066670358081765"><ele>52.33333333333333</ele><time>2026-04-18T08:46:50Z</time></trkpt><trkpt lat="43.79909072192816" lon="13.066690087621238"><ele>54.0</ele><time>2026-04-18T08:46:51Z</time></trkpt><trkpt lat="43.798898981402445" lon="13.066707636288717"><ele>54.0</ele><time>2026-04-18T08:46:52Z</time></trkpt><trkpt lat="43.79871784623885" lon="13.066721788513595"><ele>54.0</ele><time>2026-04-18T08:46:53Z</time></trkpt><trkpt lat="43.79855165534243" lon="13.066735733793799"><ele>54.0</ele><time>2026-04-18T08:46:54Z</time></trkpt><trkpt lat="43.79838701732593" lon="13.06672803321165"><ele>56.0</ele><time>2026-04-18T08:46:55Z</time></trkpt><trkpt lat="43.798226276249814" lon="13.066686953896218"><ele>58.0</ele><time>2026-04-18T08:46:56Z</time></trkpt><trkpt lat="43.79806399938518" lon="13.066605596197418"><ele>60.0</ele><time>2026-04-18T08:46:57Z</time></trkpt><trkpt lat="43.79791552141503" lon="13.066491603983543"><ele>60.0</ele><time>2026-04-18T08:46:58Z</time></trkpt><trkpt lat="43.797780949730644" lon="13.066347287994807"><ele>60.0</ele><time>2026-04-18T08:46:59Z</time></trkpt><trkpt lat="43.797640831201115" lon="13.066200520966403"><ele>60.0</ele><time>2026-04-18T08:47:00Z</time></trkpt><trkpt lat="43.79748887820109" lon="13.066046033381449"><ele>61.66666666666667</ele><time>2026-04-18T08:47:01Z</time></trkpt><trkpt lat="43.79734401055499" lon="13.065885272244056"><ele>63.333333333333336</ele><time>2026-04-18T08:47:02Z</time></trkpt><trkpt lat="43.79719204468982" lon="13.065729040236844"><ele>65.0</ele><time>2026-04-18T08:47:03Z</time></trkpt><trkpt lat="43.79704266582996" lon="13.065577320172565"><ele>65.0</ele><time>2026-04-18T08:47:04Z</time></trkpt><trkpt lat="43.796903050560026" lon="13.065428000832467"><ele>65.0</ele><time>2026-04-18T08:47:05Z</time></trkpt><trkpt lat="43.79676842714884" lon="13.065288618985253"><ele>65.0</ele><time>2026-04-18T08:47:06Z</time></trkpt><trkpt lat="43.79664057232506" lon="13.065163264476553"><ele>67.5</ele><time>2026-04-18T08:47:07Z</time></trkpt><trkpt lat="43.79651974823307" lon="13.065046173171067"><ele>70.0</ele><time>2026-04-18T08:47:08Z</time></trkpt><trkpt lat="43.79639147027874" lon="13.064942144320947"><ele>72.5</ele><time>2026-04-18T08:47:09Z</time></trkpt><trkpt lat="43.7962546593978" lon="13.06486166143905"><ele>75.0</ele><time>2026-04-18T08:47:10Z</time></trkpt><trkpt lat="43.796103970260226" lon="13.064813492126145"><ele>76.0</ele><time>2026-04-18T08:47:11Z</time></trkpt><trkpt lat="43.79596586136655" lon="13.064814910769678"><ele>77.0</ele><time>2026-04-18T08:47:12Z</time></trkpt><trkpt lat="43.79583298332915" lon="13.064824403654198"><ele>78.0</ele><time>2026-04-18T08:47:13Z</time></trkpt><trkpt lat="43.79568897333034" lon="13.064889770044"><ele>79.0</ele><time>2026-04-18T08:47:14Z</time></trkpt><trkpt lat="43.79553957641718" lon="13.064996796446627"><ele>80.5</ele><time>2026-04-18T08:47:15Z</time></trkpt><trkpt lat="43.79541619692156" lon="13.06509696432374"><ele>82.0</ele><time>2026-04-18T08:47:16Z</time></trkpt><trkpt lat="43.79528309025367" lon="13.065152708083819"><ele>83.5</ele><time>2026-04-18T08:47:17Z</time></trkpt><trkpt lat="43.79515482656612" lon="13.065283690148705"><ele>85.0</ele><time>2026-04-18T08:47:18Z</time></trkpt><trkpt lat="43.79501533058481" lon="13.065391678461516"><ele>86.66666666666666</ele><time>2026-04-18T08:47:19Z</time></trkpt><trkpt lat="43.79486144143042" lon="13.065466423533069"><ele>88.33333333333333</ele><time>2026-04-18T08:47:20Z</time></trkpt><trkpt lat="43.79470001470677" lon="13.065501101277562"><ele>90.0</ele><time>2026-04-18T08:47:21Z</time></trkpt><trkpt lat="43.79453921302282" lon="13.065460485062578"><ele>90.0</ele><time>2026-04-18T08:47:22Z</time></trkpt><trkpt lat="43.79437296228347" lon="13.065415569111194"><ele>90.0</ele><time>2026-04-18T08:47:23Z</time></trkpt><trkpt lat="43.79420323035841" lon="13.06536776209119"><ele>90.0</ele><time>2026-04-18T08:47:24Z</time></trkpt><trkpt lat="43.79402464433808" lon="13.065317461363835"><ele>91.66666666666667</ele><time>2026-04-18T08:47:25Z</time></trkpt><trkpt lat="43.79384430998446" lon="13.065266652841817"><ele>93.33333333333334</ele><time>2026-04-18T08:47:26Z</time></trkpt><trkpt lat="43.793664598431256" lon="13.065214961641125"><ele>95.0</ele><time>2026-04-18T08:47:27Z</time></trkpt><trkpt lat="43.793489882736935" lon="13.065164707505106"><ele>97.0</ele><time>2026-04-18T08:47:28Z</time></trkpt><trkpt lat="43.79331446528582" lon="13.06511425147979"><ele>99.0</ele><time>2026-04-18T08:47:29Z</time></trkpt><trkpt lat="43.793152244213296" lon="13.06506784565604"><ele>101.0</ele><time>2026-04-18T08:47:30Z</time></trkpt><trkpt lat="43.79299395215441" lon="13.065023562522038"><ele>101.0</ele><time>2026-04-18T08:47:31Z</time></trkpt><trkpt lat="43.79283170501519" lon="13.064977962074616"><ele>101.0</ele><time>2026-04-18T08:47:32Z</time></trkpt><trkpt lat="43.792673363480006" lon="13.064932853544603"><ele>101.0</ele><time>2026-04-18T08:47:33Z</time></trkpt><trkpt lat="43.792516023077" lon="13.06491182309075"><ele>103.66666666666666</ele><time>2026-04-18T08:47:34Z</time></trkpt><trkpt lat="43.792364685740395" lon="13.064847627510192"><ele>106.33333333333334</ele><time>2026-04-18T08:47:35Z</time></trkpt><trkpt lat="43.79221459279256" lon="13.064806386684221"><ele>109.0</ele><time>2026-04-18T08:47:36Z</time></trkpt><trkpt lat="43.792066071199" lon="13.064765577672068"><ele>109.0</ele><time>2026-04-18T08:47:37Z</time></trkpt><trkpt lat="43.79191677157265" lon="13.064724566193377"><ele>109.0</ele><time>2026-04-18T08:47:38Z</time></trkpt><trkpt lat="43.79176766217602" lon="13.064704940627825"><ele>109.0</ele><time>2026-04-18T08:47:39Z</time></trkpt><trkpt lat="43.791630305023304" lon="13.064672406590219"><ele>109.0</ele><time>2026-04-18T08:47:40Z</time></trkpt><trkpt lat="43.79148423305944" lon="13.064669131373236"><ele>110.33333333333334</ele><time>2026-04-18T08:47:41Z</time></trkpt><trkpt lat="43.79133204547255" lon="13.064691554652446"><ele>111.66666666666666</ele><time>2026-04-18T08:47:42Z</time></trkpt><trkpt lat="43.79118549916662" lon="13.064750786158255"><ele>113.0</ele><time>2026-04-18T08:47:43Z</time></trkpt><trkpt lat="43.7910375844719" lon="13.064839468235487"><ele>111.33333333333333</ele><time>2026-04-18T08:47:44Z</time></trkpt><trkpt lat="43.7908841533801" lon="13.064955729635544"><ele>109.66666666666666</ele><time>2026-04-18T08:47:45Z</time></trkpt><trkpt lat="43.790728706862225" lon="13.065082527883934"><ele>108.0</ele><time>2026-04-18T08:47:46Z</time></trkpt><trkpt lat="43.79057031035346" lon="13.06521270282105"><ele>108.0</ele><time>2026-04-18T08:47:47Z</time></trkpt><trkpt lat="43.790412459182946" lon="13.065335870700995"><ele>108.0</ele><time>2026-04-18T08:47:48Z</time></trkpt><trkpt lat="43.790252434847204" lon="13.065464984498368"><ele>108.0</ele><time>2026-04-18T08:47:49Z</time></trkpt><trkpt lat="43.79008855309399" lon="13.065593449337175"><ele>106.66666666666666</ele><time>2026-04-18T08:47:50Z</time></trkpt><trkpt lat="43.78992193216364" lon="13.065722100092287"><ele>105.33333333333333</ele><time>2026-04-18T08:47:51Z</time></trkpt><trkpt lat="43.789755804438116" lon="13.065846250402306"><ele>104.0</ele><time>2026-04-18T08:47:52Z</time></trkpt><trkpt lat="43.78958721120573" lon="13.065976306663158"><ele>104.0</ele><time>2026-04-18T08:47:53Z</time></trkpt><trkpt lat="43.78942191261645" lon="13.06611461603653"><ele>104.0</ele><time>2026-04-18T08:47:54Z</time></trkpt><trkpt lat="43.78926461473732" lon="13.066264327656542"><ele>104.0</ele><time>2026-04-18T08:47:55Z</time></trkpt><trkpt lat="43.78911461757092" lon="13.066430325206602"><ele>104.33333333333333</ele><time>2026-04-18T08:47:56Z</time></trkpt><trkpt lat="43.78897465314579" lon="13.066596866753386"><ele>104.66666666666666</ele><time>2026-04-18T08:47:57Z</time></trkpt><trkpt lat="43.78883560044872" lon="13.06676881912764"><ele>105.0</ele><time>2026-04-18T08:47:58Z</time></trkpt><trkpt lat="43.788705038047816" lon="13.066942077927635"><ele>104.66666666666666</ele><time>2026-04-18T08:47:59Z</time></trkpt><trkpt lat="43.7885774411626" lon="13.067110086129947"><ele>104.33333333333333</ele><time>2026-04-18T08:48:00Z</time></trkpt><trkpt lat="43.78845025039294" lon="13.067259296234553"><ele>104.0</ele><time>2026-04-18T08:48:01Z</time></trkpt><trkpt lat="43.78832365304804" lon="13.067407655272474"><ele>102.66666666666666</ele><time>2026-04-18T08:48:02Z</time></trkpt><trkpt lat="43.78819794118913" lon="13.067544450487837"><ele>101.33333333333334</ele><time>2026-04-18T08:48:03Z</time></trkpt><trkpt lat="43.788066747496025" lon="13.06766020195589"><ele>100.0</ele><time>2026-04-18T08:48:04Z</time></trkpt><trkpt lat="43.78792323000996" lon="13.06774561255748"><ele>100.0</ele><time>2026-04-18T08:48:05Z</time></trkpt><trkpt lat="43.78776820650742" lon="13.067811447940997"><ele>100.0</ele><time>2026-04-18T08:48:06Z</time></trkpt><trkpt lat="43.787606247896306" lon="13.067846324152285"><ele>100.0</ele><time>2026-04-18T08:48:07Z</time></trkpt><trkpt lat="43.787444303126065" lon="13.067851735135587"><ele>101.66666666666667</ele><time>2026-04-18T08:48:08Z</time></trkpt><trkpt lat="43.78727832309935" lon="13.067877087033754"><ele>103.33333333333334</ele><time>2026-04-18T08:48:09.001Z</time></trkpt><trkpt lat="43.78711836429168" lon="13.067880879290353"><ele>105.0</ele><time>2026-04-18T08:48:10.001Z</time></trkpt><trkpt lat="43.78696766331178" lon="13.067887289375717"><ele>104.75</ele><time>2026-04-18T08:48:11.001Z</time></trkpt><trkpt lat="43.7868263868175" lon="13.067904535306278"><ele>104.5</ele><time>2026-04-18T08:48:12.001Z</time></trkpt><trkpt lat="43.78668888803492" lon="13.067928302499807"><ele>104.25</ele><time>2026-04-18T08:48:13.001Z</time></trkpt><trkpt lat="43.78655259122275" lon="13.067960249402189"><ele>104.0</ele><time>2026-04-18T08:48:14.001Z</time></trkpt><trkpt lat="43.78640451731919" lon="13.068017504957883"><ele>104.0</ele><time>2026-04-18T08:48:15.001Z</time></trkpt><trkpt lat="43.786251019584284" lon="13.068084440714637"><ele>104.0</ele><time>2026-04-18T08:48:16.001Z</time></trkpt><trkpt lat="43.786100843911676" lon="13.068158026385516"><ele>104.0</ele><time>2026-04-18T08:48:17.001Z</time></trkpt><trkpt lat="43.78594112687853" lon="13.068235774672468"><ele>103.0</ele><time>2026-04-18T08:48:18.001Z</time></trkpt><trkpt lat="43.785765242522494" lon="13.068321225965951"><ele>102.0</ele><time>2026-04-18T08:48:19.001Z</time></trkpt><trkpt lat="43.785577574696966" lon="13.068411379045205"><ele>101.0</ele><time>2026-04-18T08:48:20.001Z</time></trkpt><trkpt lat="43.78538405186765" lon="13.068512601409607"><ele>101.0</ele><time>2026-04-18T08:48:21.001Z</time></trkpt><trkpt lat="43.78520272977299" lon="13.068606672761954"><ele>101.0</ele><time>2026-04-18T08:48:22.001Z</time></trkpt><trkpt lat="43.785023816939216" lon="13.06869663880848"><ele>101.0</ele><time>2026-04-18T08:48:23.001Z</time></trkpt><trkpt lat="43.784846297836346" lon="13.06878081038243"><ele>102.66666666666666</ele><time>2026-04-18T08:48:24.001Z</time></trkpt><trkpt lat="43.784667309441716" lon="13.06885817443547"><ele>104.33333333333334</ele><time>2026-04-18T08:48:25.001Z</time></trkpt><trkpt lat="43.784488379860335" lon="13.068937530818202"><ele>106.0</ele><time>2026-04-18T08:48:26.001Z</time></trkpt><trkpt lat="43.784301400291454" lon="13.069024242655445"><ele>105.0</ele><time>2026-04-18T08:48:27.001Z</time></trkpt><trkpt lat="43.78411399583146" lon="13.069119066433784"><ele>104.0</ele><time>2026-04-18T08:48:28.001Z</time></trkpt><trkpt lat="43.78392627500901" lon="13.069208931661496"><ele>103.0</ele><time>2026-04-18T08:48:29.001Z</time></trkpt><trkpt lat="43.78373910730679" lon="13.069296954354678"><ele>103.0</ele><time>2026-04-18T08:48:30.001Z</time></trkpt><trkpt lat="43.78355243446694" lon="13.069391599959362"><ele>103.0</ele><time>2026-04-18T08:48:31.001Z</time></trkpt><trkpt lat="43.783363703936054" lon="13.06949315191617"><ele>103.0</ele><time>2026-04-18T08:48:32Z</time></trkpt><trkpt lat="43.78318018124438" lon="13.069598316251552"><ele>104.0</ele><time>2026-04-18T08:48:33Z</time></trkpt><trkpt lat="43.78299717795552" lon="13.069707340030915"><ele>105.0</ele><time>2026-04-18T08:48:34Z</time></trkpt><trkpt lat="43.78281553275598" lon="13.069814539458907"><ele>106.0</ele><time>2026-04-18T08:48:35Z</time></trkpt><trkpt lat="43.78263788208556" lon="13.06992499645166"><ele>107.66666666666667</ele><time>2026-04-18T08:48:36Z</time></trkpt><trkpt lat="43.78247138363057" lon="13.070028540507757"><ele>109.33333333333334</ele><time>2026-04-18T08:48:37Z</time></trkpt><trkpt lat="43.782302570457404" lon="13.070126411917458"><ele>111.0</ele><time>2026-04-18T08:48:38Z</time></trkpt><trkpt lat="43.78213593075029" lon="13.070224852646545"><ele>111.0</ele><time>2026-04-18T08:48:39Z</time></trkpt><trkpt lat="43.78197486891611" lon="13.070317661478848"><ele>111.0</ele><time>2026-04-18T08:48:40Z</time></trkpt><trkpt lat="43.78181937688124" lon="13.070420678359003"><ele>111.0</ele><time>2026-04-18T08:48:41Z</time></trkpt><trkpt lat="43.78167056941078" lon="13.070539032755093"><ele>110.66666666666666</ele><time>2026-04-18T08:48:42Z</time></trkpt><trkpt lat="43.78152834300752" lon="13.070668078643596"><ele>110.33333333333333</ele><time>2026-04-18T08:48:43Z</time></trkpt><trkpt lat="43.781395192387315" lon="13.070816648316006"><ele>110.0</ele><time>2026-04-18T08:48:44Z</time></trkpt><trkpt lat="43.781274926008194" lon="13.07097959784917"><ele>111.66666666666666</ele><time>2026-04-18T08:48:45Z</time></trkpt><trkpt lat="43.78116279249394" lon="13.071147377415425"><ele>113.33333333333334</ele><time>2026-04-18T08:48:46Z</time></trkpt><trkpt lat="43.78104871468221" lon="13.071311708861401"><ele>115.0</ele><time>2026-04-18T08:48:47Z</time></trkpt><trkpt lat="43.78093931411611" lon="13.071473090955642"><ele>115.66666666666667</ele><time>2026-04-18T08:48:48Z</time></trkpt><trkpt lat="43.780823159727376" lon="13.071619853892583"><ele>116.33333333333334</ele><time>2026-04-18T08:48:49Z</time></trkpt><trkpt lat="43.78072017270971" lon="13.071768366857222"><ele>117.0</ele><time>2026-04-18T08:48:50Z</time></trkpt><trkpt lat="43.780615120597226" lon="13.071907469097843"><ele>117.0</ele><time>2026-04-18T08:48:51Z</time></trkpt><trkpt lat="43.78051372392018" lon="13.072047994642938"><ele>117.0</ele><time>2026-04-18T08:48:52Z</time></trkpt><trkpt lat="43.780421886387295" lon="13.072190471338644"><ele>117.0</ele><time>2026-04-18T08:48:53Z</time></trkpt><trkpt lat="43.78034639232786" lon="13.072348780456101"><ele>117.0</ele><time>2026-04-18T08:48:54Z</time></trkpt><trkpt lat="43.780284929832945" lon="13.072503638733345"><ele>117.75</ele><time>2026-04-18T08:48:55Z</time></trkpt><trkpt lat="43.78023744808527" lon="13.07267828469089"><ele>118.5</ele><time>2026-04-18T08:48:56Z</time></trkpt><trkpt lat="43.78020970209354" lon="13.072854187881342"><ele>119.25</ele><time>2026-04-18T08:48:57Z</time></trkpt><trkpt lat="43.78018730077975" lon="13.073043974919255"><ele>120.0</ele><time>2026-04-18T08:48:58Z</time></trkpt><trkpt lat="43.780159913879174" lon="13.07324150513023"><ele>116.75</ele><time>2026-04-18T08:48:59Z</time></trkpt><trkpt lat="43.78013849140227" lon="13.07344136546402"><ele>113.5</ele><time>2026-04-18T08:49:00Z</time></trkpt><trkpt lat="43.780122922962185" lon="13.073639199857967"><ele>110.25</ele><time>2026-04-18T08:49:01Z</time></trkpt><trkpt lat="43.78010195539646" lon="13.073842364894345"><ele>107.0</ele><time>2026-04-18T08:49:02Z</time></trkpt><trkpt lat="43.78007434592431" lon="13.074031033004795"><ele>107.25</ele><time>2026-04-18T08:49:03Z</time></trkpt><trkpt lat="43.78004772801788" lon="13.07421005730412"><ele>107.5</ele><time>2026-04-18T08:49:04Z</time></trkpt><trkpt lat="43.78000211996959" lon="13.074383873629014"><ele>107.75</ele><time>2026-04-18T08:49:05Z</time></trkpt><trkpt lat="43.77993709956523" lon="13.074559270797316"><ele>108.0</ele><time>2026-04-18T08:49:06Z</time></trkpt><trkpt lat="43.77984551719939" lon="13.074718366896395"><ele>108.0</ele><time>2026-04-18T08:49:07Z</time></trkpt><trkpt lat="43.77973238596544" lon="13.074851070138033"><ele>108.0</ele><time>2026-04-18T08:49:08Z</time></trkpt><trkpt lat="43.77960018819617" lon="13.074958922338482"><ele>108.0</ele><time>2026-04-18T08:49:09Z</time></trkpt><trkpt lat="43.7794603847656" lon="13.075036457156484"><ele>108.75</ele><time>2026-04-18T08:49:10Z</time></trkpt><trkpt lat="43.77932509644074" lon="13.07509808762488"><ele>109.5</ele><time>2026-04-18T08:49:11Z</time></trkpt><trkpt lat="43.779194102158264" lon="13.075161855998525"><ele>110.25</ele><time>2026-04-18T08:49:12Z</time></trkpt><trkpt lat="43.77906521786643" lon="13.075226371035592"><ele>111.0</ele><time>2026-04-18T08:49:13Z</time></trkpt><trkpt lat="43.778944506722276" lon="13.075291274353773"><ele>111.0</ele><time>2026-04-18T08:49:14Z</time></trkpt><trkpt lat="43.77882146117061" lon="13.07536208511084"><ele>111.0</ele><time>2026-04-18T08:49:15Z</time></trkpt><trkpt lat="43.778688868989036" lon="13.075424566348673"><ele>111.0</ele><time>2026-04-18T08:49:16Z</time></trkpt><trkpt lat="43.77855313280462" lon="13.075471945865758"><ele>111.0</ele><time>2026-04-18T08:49:17Z</time></trkpt><trkpt lat="43.778427524389286" lon="13.075492475113885"><ele>111.75</ele><time>2026-04-18T08:49:18Z</time></trkpt><trkpt lat="43.77828850134603" lon="13.07548943256521"><ele>112.5</ele><time>2026-04-18T08:49:19Z</time></trkpt><trkpt lat="43.778141284982134" lon="13.075475748547655"><ele>113.25</ele><time>2026-04-18T08:49:20Z</time></trkpt><trkpt lat="43.777984111543475" lon="13.075451242395909"><ele>114.0</ele><time>2026-04-18T08:49:21Z</time></trkpt><trkpt lat="43.77781832766883" lon="13.075429041466768"><ele>114.0</ele><time>2026-04-18T08:49:22Z</time></trkpt><trkpt lat="43.7776499593401" lon="13.075397352441474"><ele>114.0</ele><time>2026-04-18T08:49:23Z</time></trkpt><trkpt lat="43.77747640776365" lon="13.075368524145107"><ele>114.0</ele><time>2026-04-18T08:49:24Z</time></trkpt><trkpt lat="43.777311366739276" lon="13.075338628218539"><ele>114.0</ele><time>2026-04-18T08:49:25Z</time></trkpt><trkpt lat="43.77714403561359" lon="13.075307622829715"><ele>114.0</ele><time>2026-04-18T08:49:26Z</time></trkpt><trkpt lat="43.776976683170204" lon="13.07527957633862"><ele>114.0</ele><time>2026-04-18T08:49:27Z</time></trkpt><trkpt lat="43.77680571960253" lon="13.075241029677382"><ele>112.66666666666666</ele><time>2026-04-18T08:49:28Z</time></trkpt><trkpt lat="43.776631305210586" lon="13.075210592407089"><ele>111.33333333333333</ele><time>2026-04-18T08:49:29Z</time></trkpt><trkpt lat="43.776463047640505" lon="13.07517629999622"><ele>110.0</ele><time>2026-04-18T08:49:30Z</time></trkpt><trkpt lat="43.776285208359525" lon="13.075143383168246"><ele>110.0</ele><time>2026-04-18T08:49:31Z</time></trkpt><trkpt lat="43.77610185894978" lon="13.075117771912923"><ele>110.0</ele><time>2026-04-18T08:49:32Z</time></trkpt><trkpt lat="43.775905465411775" lon="13.075098109288234"><ele>110.0</ele><time>2026-04-18T08:49:33Z</time></trkpt><trkpt lat="43.77569179278431" lon="13.075081628581621"><ele>108.5</ele><time>2026-04-18T08:49:34Z</time></trkpt><trkpt lat="43.77545835853374" lon="13.075080503633622"><ele>107.0</ele><time>2026-04-18T08:49:35Z</time></trkpt><trkpt lat="43.77521371572391" lon="13.075083065825595"><ele>108.0</ele><time>2026-04-18T08:49:36Z</time></trkpt><trkpt lat="43.77499487745782" lon="13.075090415385917"><ele>109.0</ele><time>2026-04-18T08:49:37Z</time></trkpt><trkpt lat="43.77479763440473" lon="13.075097149115221"><ele>110.0</ele><time>2026-04-18T08:49:38Z</time></trkpt><trkpt lat="43.774595338924414" lon="13.075104128417568"><ele>110.0</ele><time>2026-04-18T08:49:39Z</time></trkpt><trkpt lat="43.77438983953025" lon="13.075114139774664"><ele>110.0</ele><time>2026-04-18T08:49:40Z</time></trkpt><trkpt lat="43.77419151905551" lon="13.075140625404506"><ele>110.0</ele><time>2026-04-18T08:49:41Z</time></trkpt><trkpt lat="43.77399606287158" lon="13.075140410763142"><ele>110.33333333333333</ele><time>2026-04-18T08:49:42Z</time></trkpt><trkpt lat="43.77381007015889" lon="13.075139087949868"><ele>110.66666666666666</ele><time>2026-04-18T08:49:43Z</time></trkpt><trkpt lat="43.77362406101305" lon="13.07514559091357"><ele>111.0</ele><time>2026-04-18T08:49:44Z</time></trkpt><trkpt lat="43.773440354466324" lon="13.075156689233003"><ele>112.66666666666666</ele><time>2026-04-18T08:49:45Z</time></trkpt><trkpt lat="43.77325133828933" lon="13.075172452383926"><ele>114.33333333333333</ele><time>2026-04-18T08:49:46Z</time></trkpt><trkpt lat="43.77305722933322" lon="13.075171229808115"><ele>116.0</ele><time>2026-04-18T08:49:47Z</time></trkpt><trkpt lat="43.77286558423084" lon="13.075175464671851"><ele>117.0</ele><time>2026-04-18T08:49:48Z</time></trkpt><trkpt lat="43.77267228114064" lon="13.075180361560497"><ele>118.0</ele><time>2026-04-18T08:49:49Z</time></trkpt><trkpt lat="43.7724739225508" lon="13.0751735307121"><ele>119.0</ele><time>2026-04-18T08:49:50Z</time></trkpt><trkpt lat="43.77228093763003" lon="13.075159488656567"><ele>119.0</ele><time>2026-04-18T08:49:51Z</time></trkpt><trkpt lat="43.772083611762554" lon="13.075140563578907"><ele>119.0</ele><time>2026-04-18T08:49:52Z</time></trkpt><trkpt lat="43.771889989936504" lon="13.07512534688374"><ele>119.0</ele><time>2026-04-18T08:49:53Z</time></trkpt><trkpt lat="43.77169912183358" lon="13.075112069399907"><ele>121.33333333333333</ele><time>2026-04-18T08:49:54Z</time></trkpt><trkpt lat="43.77151063278289" lon="13.07508707839313"><ele>123.66666666666666</ele><time>2026-04-18T08:49:55Z</time></trkpt><trkpt lat="43.771324700764566" lon="13.075067648954402"><ele>126.0</ele><time>2026-04-18T08:49:56Z</time></trkpt><trkpt lat="43.77114092031553" lon="13.075059155642217"><ele>128.66666666666666</ele><time>2026-04-18T08:49:57Z</time></trkpt><trkpt lat="43.77095989650186" lon="13.075048406250247"><ele>131.33333333333331</ele><time>2026-04-18T08:49:58Z</time></trkpt><trkpt lat="43.77078225302833" lon="13.07503927446292"><ele>134.0</ele><time>2026-04-18T08:49:59Z</time></trkpt><trkpt lat="43.77060573601669" lon="13.075027090096574"><ele>134.0</ele><time>2026-04-18T08:50:00Z</time></trkpt><trkpt lat="43.770434939877866" lon="13.075014696686708"><ele>134.0</ele><time>2026-04-18T08:50:01Z</time></trkpt><trkpt lat="43.77026566167984" lon="13.075003826991285"><ele>134.0</ele><time>2026-04-18T08:50:02Z</time></trkpt><trkpt lat="43.77009468438011" lon="13.074981455925437"><ele>137.0</ele><time>2026-04-18T08:50:03Z</time></trkpt><trkpt lat="43.76993398520896" lon="13.074977440083229"><ele>140.0</ele><time>2026-04-18T08:50:04Z</time></trkpt><trkpt lat="43.76977641194243" lon="13.074959855855118"><ele>143.0</ele><time>2026-04-18T08:50:05Z</time></trkpt><trkpt lat="43.76963362585665" lon="13.074930483753931"><ele>143.0</ele><time>2026-04-18T08:50:06Z</time></trkpt><trkpt lat="43.76951419313299" lon="13.074901486860135"><ele>143.0</ele><time>2026-04-18T08:50:07Z</time></trkpt><trkpt lat="43.769396401022405" lon="13.074862575955152"><ele>143.0</ele><time>2026-04-18T08:50:08Z</time></trkpt><trkpt lat="43.76926754082066" lon="13.074812259011367"><ele>143.0</ele><time>2026-04-18T08:50:09Z</time></trkpt><trkpt lat="43.769127135196854" lon="13.074752807618005"><ele>144.33333333333331</ele><time>2026-04-18T08:50:10Z</time></trkpt><trkpt lat="43.76898979505224" lon="13.074665797125824"><ele>145.66666666666666</ele><time>2026-04-18T08:50:11Z</time></trkpt><trkpt lat="43.76884687097499" lon="13.074570003353223"><ele>147.0</ele><time>2026-04-18T08:50:12Z</time></trkpt><trkpt lat="43.76869902076947" lon="13.074472253480483"><ele>147.0</ele><time>2026-04-18T08:50:13Z</time></trkpt><trkpt lat="43.768550595143076" lon="13.074378288520998"><ele>147.0</ele><time>2026-04-18T08:50:14Z</time></trkpt><trkpt lat="43.7684096913581" lon="13.074286942231385"><ele>147.0</ele><time>2026-04-18T08:50:15.001Z</time></trkpt><trkpt lat="43.76826076334889" lon="13.074192247740429"><ele>147.0</ele><time>2026-04-18T08:50:16.001Z</time></trkpt><trkpt lat="43.7681283612279" lon="13.074074585054346"><ele>147.0</ele><time>2026-04-18T08:50:17.001Z</time></trkpt><trkpt lat="43.76799490311563" lon="13.073982813135588"><ele>147.0</ele><time>2026-04-18T08:50:18.001Z</time></trkpt><trkpt lat="43.76786736427921" lon="13.073895111540695"><ele>147.0</ele><time>2026-04-18T08:50:19.001Z</time></trkpt><trkpt lat="43.76774317328105" lon="13.073811054459267"><ele>146.0</ele><time>2026-04-18T08:50:20.001Z</time></trkpt><trkpt lat="43.76762922871632" lon="13.073734656208376"><ele>145.0</ele><time>2026-04-18T08:50:21.001Z</time></trkpt><trkpt lat="43.767511175163435" lon="13.073681365629918"><ele>144.0</ele><time>2026-04-18T08:50:22.001Z</time></trkpt><trkpt lat="43.767413753729194" lon="13.073607947672123"><ele>143.0</ele><time>2026-04-18T08:50:23.001Z</time></trkpt><trkpt lat="43.76731294788112" lon="13.073537251738372"><ele>143.0</ele><time>2026-04-18T08:50:24.001Z</time></trkpt><trkpt lat="43.76720546309895" lon="13.073463729362832"><ele>143.0</ele><time>2026-04-18T08:50:25.001Z</time></trkpt><trkpt lat="43.76709483636015" lon="13.07339107409756"><ele>143.0</ele><time>2026-04-18T08:50:26.001Z</time></trkpt><trkpt lat="43.76698365212848" lon="13.073317300641511"><ele>143.0</ele><time>2026-04-18T08:50:27.001Z</time></trkpt><trkpt lat="43.76687089489684" lon="13.073240659427329"><ele>143.5</ele><time>2026-04-18T08:50:28.001Z</time></trkpt><trkpt lat="43.76675435458556" lon="13.073162182319331"><ele>144.0</ele><time>2026-04-18T08:50:29.001Z</time></trkpt><trkpt lat="43.76664153189209" lon="13.073090674177482"><ele>144.5</ele><time>2026-04-18T08:50:30.001Z</time></trkpt><trkpt lat="43.766531138508164" lon="13.073019857628038"><ele>145.0</ele><time>2026-04-18T08:50:31Z</time></trkpt><trkpt lat="43.766428709995616" lon="13.072949768966913"><ele>145.0</ele><time>2026-04-18T08:50:32Z</time></trkpt><trkpt lat="43.76633612409857" lon="13.072894577464465"><ele>145.0</ele><time>2026-04-18T08:50:33Z</time></trkpt><trkpt lat="43.76624748980077" lon="13.072846303743733"><ele>145.0</ele><time>2026-04-18T08:50:34Z</time></trkpt><trkpt lat="43.76615360921766" lon="13.07280024141167"><ele>145.0</ele><time>2026-04-18T08:50:35Z</time></trkpt><trkpt lat="43.76606087393967" lon="13.072738588803215"><ele>145.0</ele><time>2026-04-18T08:50:36Z</time></trkpt><trkpt lat="43.765969275938026" lon="13.072685661738465"><ele>145.2</ele><time>2026-04-18T08:50:37Z</time></trkpt><trkpt lat="43.76588209853897" lon="13.072635846345824"><ele>145.4</ele><time>2026-04-18T08:50:38Z</time></trkpt><trkpt lat="43.76579343905488" lon="13.072578172419508"><ele>145.6</ele><time>2026-04-18T08:50:39Z</time></trkpt><trkpt lat="43.76570269954489" lon="13.07251404437892"><ele>145.8</ele><time>2026-04-18T08:50:40Z</time></trkpt><trkpt lat="43.7656120047575" lon="13.072446953479092"><ele>146.0</ele><time>2026-04-18T08:50:41Z</time></trkpt><trkpt lat="43.76552243936077" lon="13.07237955553775"><ele>145.4</ele><time>2026-04-18T08:50:42Z</time></trkpt><trkpt lat="43.7654276549868" lon="13.072304864541255"><ele>144.8</ele><time>2026-04-18T08:50:43Z</time></trkpt><trkpt lat="43.76533576470413" lon="13.072226563569123"><ele>144.20000000000002</ele><time>2026-04-18T08:50:44Z</time></trkpt><trkpt lat="43.76523829999784" lon="13.072156316269105"><ele>143.6</ele><time>2026-04-18T08:50:45Z</time></trkpt><trkpt lat="43.76514015342253" lon="13.072068414978823"><ele>143.0</ele><time>2026-04-18T08:50:46Z</time></trkpt><trkpt lat="43.76504655834059" lon="13.07198233853953"><ele>144.5</ele><time>2026-04-18T08:50:47Z</time></trkpt><trkpt lat="43.764954086588716" lon="13.071900530135098"><ele>146.0</ele><time>2026-04-18T08:50:48Z</time></trkpt><trkpt lat="43.76485973105293" lon="13.071816478956947"><ele>147.5</ele><time>2026-04-18T08:50:49Z</time></trkpt><trkpt lat="43.76476303992789" lon="13.071729182215444"><ele>149.0</ele><time>2026-04-18T08:50:50Z</time></trkpt><trkpt lat="43.76466943970008" lon="13.071637642510723"><ele>148.8</ele><time>2026-04-18T08:50:51Z</time></trkpt><trkpt lat="43.76456862082263" lon="13.071553877125286"><ele>148.60000000000002</ele><time>2026-04-18T08:50:52Z</time></trkpt><trkpt lat="43.764488140834374" lon="13.071452619648971"><ele>148.4</ele><time>2026-04-18T08:50:53Z</time></trkpt><trkpt lat="43.76439988114289" lon="13.071397170181703"><ele>148.20000000000002</ele><time>2026-04-18T08:50:54Z</time></trkpt><trkpt lat="43.76433163024995" lon="13.071322388241732"><ele>148.0</ele><time>2026-04-18T08:50:55Z</time></trkpt><trkpt lat="43.764265437755355" lon="13.071260862957443"><ele>148.0</ele><time>2026-04-18T08:50:56Z</time></trkpt><trkpt lat="43.76420264156198" lon="13.071203736197036"><ele>148.0</ele><time>2026-04-18T08:50:57Z</time></trkpt><trkpt lat="43.76414359342743" lon="13.071149267640694"><ele>148.0</ele><time>2026-04-18T08:50:58Z</time></trkpt><trkpt lat="43.76406563017569" lon="13.07104952592719"><ele>148.0</ele><time>2026-04-18T08:51:00Z</time></trkpt><trkpt lat="43.76402085489305" lon="13.070954425952099"><ele>148.0</ele><time>2026-04-18T08:51:02Z</time></trkpt><trkpt lat="43.764054786245794" lon="13.07088080198274"><ele>148.0</ele><time>2026-04-18T08:51:03Z</time></trkpt><trkpt lat="43.76412804481383" lon="13.070822260599416"><ele>147.16666666666669</ele><time>2026-04-18T08:51:04Z</time></trkpt><trkpt lat="43.764161978786504" lon="13.070733353378538"><ele>146.33333333333334</ele><time>2026-04-18T08:51:05Z</time></trkpt><trkpt lat="43.76417443839534" lon="13.070637803951383"><ele>145.5</ele><time>2026-04-18T08:51:06Z</time></trkpt><trkpt lat="43.764176250122944" lon="13.070534984724663"><ele>144.66666666666666</ele><time>2026-04-18T08:51:07Z</time></trkpt><trkpt lat="43.76413182198708" lon="13.070431920198752"><ele>143.83333333333331</ele><time>2026-04-18T08:51:08Z</time></trkpt><trkpt lat="43.764110244944696" lon="13.07031759523021"><ele>143.0</ele><time>2026-04-18T08:51:09Z</time></trkpt><trkpt lat="43.764065166229976" lon="13.070224341053265"><ele>143.0</ele><time>2026-04-18T08:51:10Z</time></trkpt><trkpt lat="43.764021645586176" lon="13.070144080389788"><ele>143.0</ele><time>2026-04-18T08:51:11Z</time></trkpt><trkpt lat="43.76394714461624" lon="13.070013451960515"><ele>143.0</ele><time>2026-04-18T08:51:13Z</time></trkpt><trkpt lat="43.7638728381079" lon="13.069886175153862"><ele>143.0</ele><time>2026-04-18T08:51:15Z</time></trkpt><trkpt lat="43.76382081440293" lon="13.069832187294777"><ele>143.0</ele><time>2026-04-18T08:51:16Z</time></trkpt><trkpt lat="43.76378495788729" lon="13.069760439362431"><ele>143.0</ele><time>2026-04-18T08:51:17Z</time></trkpt><trkpt lat="43.763749228570994" lon="13.069680666416893"><ele>142.14285714285714</ele><time>2026-04-18T08:51:18Z</time></trkpt><trkpt lat="43.763706560090476" lon="13.06960405068582"><ele>141.28571428571428</ele><time>2026-04-18T08:51:19Z</time></trkpt><trkpt lat="43.76366653972716" lon="13.069522891714628"><ele>140.42857142857144</ele><time>2026-04-18T08:51:20Z</time></trkpt><trkpt lat="43.763617833696934" lon="13.069458248220073"><ele>139.57142857142856</ele><time>2026-04-18T08:51:21Z</time></trkpt><trkpt lat="43.76357443621914" lon="13.069384999294412"><ele>138.71428571428572</ele><time>2026-04-18T08:51:22Z</time></trkpt><trkpt lat="43.76352865505499" lon="13.069318153970721"><ele>137.85714285714286</ele><time>2026-04-18T08:51:23Z</time></trkpt><trkpt lat="43.763480214658465" lon="13.06925640288936"><ele>137.0</ele><time>2026-04-18T08:51:24Z</time></trkpt><trkpt lat="43.76336280106082" lon="13.069194796444837"><ele>139.33333333333331</ele><time>2026-04-18T08:51:26Z</time></trkpt><trkpt lat="43.76328166702481" lon="13.069204466375654"><ele>141.66666666666666</ele><time>2026-04-18T08:51:27Z</time></trkpt><trkpt lat="43.7632034776746" lon="13.069236711380821"><ele>144.0</ele><time>2026-04-18T08:51:28Z</time></trkpt><trkpt lat="43.76313251165938" lon="13.06929098720149"><ele>146.33333333333334</ele><time>2026-04-18T08:51:29Z</time></trkpt><trkpt lat="43.763029291434826" lon="13.06931498038343"><ele>148.66666666666669</ele><time>2026-04-18T08:51:31Z</time></trkpt><trkpt lat="43.76293549384549" lon="13.069295701344315"><ele>151.0</ele><time>2026-04-18T08:51:34Z</time></trkpt><trkpt lat="43.76284121406064" lon="13.069210072769673"><ele>151.83333333333334</ele><time>2026-04-18T08:51:36Z</time></trkpt><trkpt lat="43.762767057430594" lon="13.069072077109332"><ele>152.66666666666669</ele><time>2026-04-18T08:51:38Z</time></trkpt><trkpt lat="43.76272799674837" lon="13.06899626766935"><ele>153.5</ele><time>2026-04-18T08:51:39Z</time></trkpt><trkpt lat="43.76269051984948" lon="13.068913079403949"><ele>154.33333333333334</ele><time>2026-04-18T08:51:40Z</time></trkpt><trkpt lat="43.762647178579684" lon="13.068829208689362"><ele>155.16666666666666</ele><time>2026-04-18T08:51:41Z</time></trkpt><trkpt lat="43.762611457899595" lon="13.068741235261966"><ele>156.0</ele><time>2026-04-18T08:51:42Z</time></trkpt><trkpt lat="43.762579940719135" lon="13.068646827727795"><ele>156.16666666666666</ele><time>2026-04-18T08:51:43Z</time></trkpt><trkpt lat="43.762544408960395" lon="13.068556489374778"><ele>156.33333333333334</ele><time>2026-04-18T08:51:44Z</time></trkpt><trkpt lat="43.762514043911445" lon="13.068462933038608"><ele>156.5</ele><time>2026-04-18T08:51:45Z</time></trkpt><trkpt lat="43.76248258399749" lon="13.068371494190009"><ele>156.66666666666669</ele><time>2026-04-18T08:51:46Z</time></trkpt><trkpt lat="43.76244537745084" lon="13.06828358366494"><ele>156.83333333333334</ele><time>2026-04-18T08:51:47Z</time></trkpt><trkpt lat="43.7623810860116" lon="13.068209129436147"><ele>157.0</ele><time>2026-04-18T08:51:48Z</time></trkpt><trkpt lat="43.762293404937274" lon="13.068178330715638"><ele>158.0</ele><time>2026-04-18T08:51:49Z</time></trkpt><trkpt lat="43.76219709905329" lon="13.06811914952877"><ele>159.0</ele><time>2026-04-18T08:51:50Z</time></trkpt><trkpt lat="43.762104528714275" lon="13.06806033303944"><ele>160.0</ele><time>2026-04-18T08:51:51Z</time></trkpt><trkpt lat="43.7620115361539" lon="13.068014717319897"><ele>161.0</ele><time>2026-04-18T08:51:52Z</time></trkpt><trkpt lat="43.76192008007905" lon="13.067935873455303"><ele>162.0</ele><time>2026-04-18T08:51:53Z</time></trkpt><trkpt lat="43.76181988056944" lon="13.067881431540378"><ele>162.0</ele><time>2026-04-18T08:51:54Z</time></trkpt><trkpt lat="43.76171966848822" lon="13.067837649123435"><ele>162.0</ele><time>2026-04-18T08:51:55Z</time></trkpt><trkpt lat="43.76161834300923" lon="13.067780383281816"><ele>162.0</ele><time>2026-04-18T08:51:56Z</time></trkpt><trkpt lat="43.76150309682147" lon="13.06773966195437"><ele>162.0</ele><time>2026-04-18T08:51:57Z</time></trkpt><trkpt lat="43.76139501739411" lon="13.067668738757343"><ele>162.0</ele><time>2026-04-18T08:51:58Z</time></trkpt><trkpt lat="43.76127910713555" lon="13.067602011671074"><ele>162.0</ele><time>2026-04-18T08:51:59Z</time></trkpt><trkpt lat="43.76115757860927" lon="13.067531984555908"><ele>162.0</ele><time>2026-04-18T08:52:00Z</time></trkpt><trkpt lat="43.76103448579875" lon="13.067447204877173"><ele>162.0</ele><time>2026-04-18T08:52:01Z</time></trkpt><trkpt lat="43.76091458955274" lon="13.067349324747868"><ele>161.5</ele><time>2026-04-18T08:52:02Z</time></trkpt><trkpt lat="43.76080292741915" lon="13.067232473617063"><ele>161.0</ele><time>2026-04-18T08:52:03Z</time></trkpt><trkpt lat="43.76069614854473" lon="13.067090400634196"><ele>160.5</ele><time>2026-04-18T08:52:04Z</time></trkpt><trkpt lat="43.76059353910652" lon="13.06694105505232"><ele>160.0</ele><time>2026-04-18T08:52:05Z</time></trkpt><trkpt lat="43.760494302842766" lon="13.066784207885101"><ele>160.0</ele><time>2026-04-18T08:52:06Z</time></trkpt><trkpt lat="43.76039072109209" lon="13.066636987945042"><ele>160.0</ele><time>2026-04-18T08:52:07Z</time></trkpt><trkpt lat="43.7602744518866" lon="13.066496428158686"><ele>160.0</ele><time>2026-04-18T08:52:08Z</time></trkpt><trkpt lat="43.760167831188284" lon="13.066362082295871"><ele>160.0</ele><time>2026-04-18T08:52:09Z</time></trkpt><trkpt lat="43.76005708894107" lon="13.066240456816585"><ele>158.25</ele><time>2026-04-18T08:52:10Z</time></trkpt><trkpt lat="43.759956597742494" lon="13.066123423965946"><ele>156.5</ele><time>2026-04-18T08:52:11Z</time></trkpt><trkpt lat="43.759846342572544" lon="13.066009281688196"><ele>154.75</ele><time>2026-04-18T08:52:12Z</time></trkpt><trkpt lat="43.759724341211985" lon="13.065892953736684"><ele>153.0</ele><time>2026-04-18T08:52:13Z</time></trkpt><trkpt lat="43.759604134720206" lon="13.06575576921681"><ele>153.33333333333334</ele><time>2026-04-18T08:52:13.999Z</time></trkpt><trkpt lat="43.7594864461269" lon="13.065627799007013"><ele>153.66666666666669</ele><time>2026-04-18T08:52:14.999Z</time></trkpt><trkpt lat="43.759359615287224" lon="13.065488500900555"><ele>154.0</ele><time>2026-04-18T08:52:15.999Z</time></trkpt><trkpt lat="43.759226901232964" lon="13.06534473390195"><ele>154.0</ele><time>2026-04-18T08:52:16.999Z</time></trkpt><trkpt lat="43.75909024065234" lon="13.065198387804283"><ele>154.0</ele><time>2026-04-18T08:52:17.999Z</time></trkpt><trkpt lat="43.75895267072707" lon="13.065040242395112"><ele>154.0</ele><time>2026-04-18T08:52:18.999Z</time></trkpt><trkpt lat="43.75881825380173" lon="13.064891716613152"><ele>154.33333333333334</ele><time>2026-04-18T08:52:19.999Z</time></trkpt><trkpt lat="43.75868257298083" lon="13.064752917107459"><ele>154.66666666666666</ele><time>2026-04-18T08:52:21Z</time></trkpt><trkpt lat="43.75853408045995" lon="13.06461251161306"><ele>155.0</ele><time>2026-04-18T08:52:22Z</time></trkpt><trkpt lat="43.75837318135198" lon="13.064501343634563"><ele>155.66666666666666</ele><time>2026-04-18T08:52:23Z</time></trkpt><trkpt lat="43.758221806242595" lon="13.064386238157592"><ele>156.33333333333334</ele><time>2026-04-18T08:52:24Z</time></trkpt><trkpt lat="43.75807876202261" lon="13.064293810519393"><ele>157.0</ele><time>2026-04-18T08:52:25Z</time></trkpt><trkpt lat="43.757947705701966" lon="13.064184841271912"><ele>157.33333333333334</ele><time>2026-04-18T08:52:26Z</time></trkpt><trkpt lat="43.75781981679276" lon="13.06404923714303"><ele>157.66666666666666</ele><time>2026-04-18T08:52:27Z</time></trkpt><trkpt lat="43.75769652784766" lon="13.063896835622716"><ele>158.0</ele><time>2026-04-18T08:52:28Z</time></trkpt><trkpt lat="43.75757514682439" lon="13.063733411546112"><ele>158.0</ele><time>2026-04-18T08:52:29Z</time></trkpt><trkpt lat="43.75745515136414" lon="13.063565029378287"><ele>158.0</ele><time>2026-04-18T08:52:30Z</time></trkpt><trkpt lat="43.75733950971352" lon="13.063389879628124"><ele>158.0</ele><time>2026-04-18T08:52:31Z</time></trkpt><trkpt lat="43.75724038003541" lon="13.063198568050723"><ele>156.0</ele><time>2026-04-18T08:52:32Z</time></trkpt><trkpt lat="43.75713511559237" lon="13.063010431334602"><ele>154.0</ele><time>2026-04-18T08:52:33Z</time></trkpt><trkpt lat="43.757040961109276" lon="13.062815583009659"><ele>152.0</ele><time>2026-04-18T08:52:34Z</time></trkpt><trkpt lat="43.756960131927634" lon="13.062611646228278"><ele>150.66666666666666</ele><time>2026-04-18T08:52:35Z</time></trkpt><trkpt lat="43.756874440140805" lon="13.062407003617833"><ele>149.33333333333334</ele><time>2026-04-18T08:52:36Z</time></trkpt><trkpt lat="43.75678850796642" lon="13.06221166751462"><ele>148.0</ele><time>2026-04-18T08:52:37Z</time></trkpt><trkpt lat="43.7567067017795" lon="13.062018880426669"><ele>152.33333333333334</ele><time>2026-04-18T08:52:38Z</time></trkpt><trkpt lat="43.756624793687344" lon="13.061833013321165"><ele>156.66666666666666</ele><time>2026-04-18T08:52:39Z</time></trkpt><trkpt lat="43.756551206694" lon="13.061633982700817"><ele>161.0</ele><time>2026-04-18T08:52:40Z</time></trkpt><trkpt lat="43.75646522304309" lon="13.061436924300862"><ele>162.66666666666666</ele><time>2026-04-18T08:52:41Z</time></trkpt><trkpt lat="43.75638627227888" lon="13.061244518452872"><ele>164.33333333333334</ele><time>2026-04-18T08:52:42Z</time></trkpt><trkpt lat="43.75630545203617" lon="13.06105376039358"><ele>166.0</ele><time>2026-04-18T08:52:43Z</time></trkpt><trkpt lat="43.75622746964715" lon="13.060863824854858"><ele>167.66666666666669</ele><time>2026-04-18T08:52:44Z</time></trkpt><trkpt lat="43.75615466701046" lon="13.060675105464682"><ele>169.33333333333334</ele><time>2026-04-18T08:52:45Z</time></trkpt><trkpt lat="43.7560907713172" lon="13.060496273633722"><ele>171.0</ele><time>2026-04-18T08:52:46Z</time></trkpt><trkpt lat="43.75604137868667" lon="13.060298748586716"><ele>171.0</ele><time>2026-04-18T08:52:47Z</time></trkpt><trkpt lat="43.755999411022025" lon="13.060088281001477"><ele>171.0</ele><time>2026-04-18T08:52:48Z</time></trkpt><trkpt lat="43.75597929978676" lon="13.059871661187495"><ele>171.0</ele><time>2026-04-18T08:52:49Z</time></trkpt><trkpt lat="43.755959680995616" lon="13.05964788862075"><ele>172.66666666666666</ele><time>2026-04-18T08:52:50Z</time></trkpt><trkpt lat="43.75593394033671" lon="13.059420461052994"><ele>174.33333333333331</ele><time>2026-04-18T08:52:51Z</time></trkpt><trkpt lat="43.75590888263098" lon="13.059193460789933"><ele>176.0</ele><time>2026-04-18T08:52:52Z</time></trkpt><trkpt lat="43.75589297016414" lon="13.058970760058498"><ele>178.0</ele><time>2026-04-18T08:52:53Z</time></trkpt><trkpt lat="43.75587001901152" lon="13.058744510693462"><ele>180.0</ele><time>2026-04-18T08:52:54Z</time></trkpt><trkpt lat="43.75585406091036" lon="13.05852106908643"><ele>182.0</ele><time>2026-04-18T08:52:55Z</time></trkpt><trkpt lat="43.75583818166861" lon="13.058302229322118"><ele>182.0</ele><time>2026-04-18T08:52:56Z</time></trkpt><trkpt lat="43.75583258465238" lon="13.058078419687494"><ele>182.0</ele><time>2026-04-18T08:52:57Z</time></trkpt><trkpt lat="43.755840107261896" lon="13.05785148479073"><ele>182.0</ele><time>2026-04-18T08:52:58Z</time></trkpt><trkpt lat="43.755850973779296" lon="13.057626539420173"><ele>181.0</ele><time>2026-04-18T08:52:59Z</time></trkpt><trkpt lat="43.7558589251981" lon="13.05740084423496"><ele>180.0</ele><time>2026-04-18T08:53:00Z</time></trkpt><trkpt lat="43.75587941986735" lon="13.057167510618815"><ele>179.0</ele><time>2026-04-18T08:53:01Z</time></trkpt><trkpt lat="43.75589573644475" lon="13.056927084528107"><ele>179.0</ele><time>2026-04-18T08:53:02Z</time></trkpt><trkpt lat="43.75591096228421" lon="13.056680672029902"><ele>179.0</ele><time>2026-04-18T08:53:03Z</time></trkpt><trkpt lat="43.75592765286973" lon="13.056437407605827"><ele>179.0</ele><time>2026-04-18T08:53:04Z</time></trkpt><trkpt lat="43.75594283022755" lon="13.056190075958051"><ele>177.33333333333331</ele><time>2026-04-18T08:53:05Z</time></trkpt><trkpt lat="43.75596026737661" lon="13.055945494259445"><ele>175.66666666666666</ele><time>2026-04-18T08:53:06Z</time></trkpt><trkpt lat="43.75598040005354" lon="13.05570320581382"><ele>174.0</ele><time>2026-04-18T08:53:07Z</time></trkpt><trkpt lat="43.75600444946346" lon="13.055458199489877"><ele>174.33333333333334</ele><time>2026-04-18T08:53:08Z</time></trkpt><trkpt lat="43.75603620657652" lon="13.055211506534869"><ele>174.66666666666669</ele><time>2026-04-18T08:53:09Z</time></trkpt><trkpt lat="43.7560746775889" lon="13.054961301948524"><ele>175.0</ele><time>2026-04-18T08:53:10Z</time></trkpt><trkpt lat="43.75612554742033" lon="13.054714109325845"><ele>175.0</ele><time>2026-04-18T08:53:11Z</time></trkpt><trkpt lat="43.756173140604" lon="13.054478718355966"><ele>175.0</ele><time>2026-04-18T08:53:12Z</time></trkpt><trkpt lat="43.75621633985449" lon="13.054247487373349"><ele>175.0</ele><time>2026-04-18T08:53:13Z</time></trkpt><trkpt lat="43.75624317271953" lon="13.054004723394648"><ele>173.33333333333334</ele><time>2026-04-18T08:53:14Z</time></trkpt><trkpt lat="43.7562542345899" lon="13.053745477362405"><ele>171.66666666666666</ele><time>2026-04-18T08:53:15Z</time></trkpt><trkpt lat="43.7562593128787" lon="13.053471413949927"><ele>170.0</ele><time>2026-04-18T08:53:16Z</time></trkpt><trkpt lat="43.75625964739898" lon="13.053177739787877"><ele>168.0</ele><time>2026-04-18T08:53:17Z</time></trkpt><trkpt lat="43.75626110461353" lon="13.052892442941832"><ele>166.0</ele><time>2026-04-18T08:53:18Z</time></trkpt><trkpt lat="43.756268869259365" lon="13.052615404645653"><ele>164.0</ele><time>2026-04-18T08:53:19Z</time></trkpt><trkpt lat="43.75626112777674" lon="13.052338396272987"><ele>162.0</ele><time>2026-04-18T08:53:20Z</time></trkpt><trkpt lat="43.75626511149457" lon="13.05206806785264"><ele>160.0</ele><time>2026-04-18T08:53:21Z</time></trkpt><trkpt lat="43.75627489809384" lon="13.051816121185281"><ele>158.0</ele><time>2026-04-18T08:53:22Z</time></trkpt><trkpt lat="43.7562762128906" lon="13.05155900637756"><ele>155.33333333333331</ele><time>2026-04-18T08:53:23Z</time></trkpt><trkpt lat="43.75627293227956" lon="13.051306399886304"><ele>152.66666666666666</ele><time>2026-04-18T08:53:24Z</time></trkpt><trkpt lat="43.7562618197422" lon="13.05106018254434"><ele>150.0</ele><time>2026-04-18T08:53:25Z</time></trkpt><trkpt lat="43.75624871390572" lon="13.0508016760198"><ele>147.66666666666666</ele><time>2026-04-18T08:53:26Z</time></trkpt><trkpt lat="43.75617618740346" lon="13.05054327764703"><ele>145.33333333333331</ele><time>2026-04-18T08:53:27Z</time></trkpt><trkpt lat="43.756122512531824" lon="13.05027841494786"><ele>143.0</ele><time>2026-04-18T08:53:28Z</time></trkpt><trkpt lat="43.75605297759778" lon="13.050038810342173"><ele>144.0</ele><time>2026-04-18T08:53:29Z</time></trkpt><trkpt lat="43.75598345406657" lon="13.04980719606754"><ele>145.0</ele><time>2026-04-18T08:53:30Z</time></trkpt><trkpt lat="43.75591356774444" lon="13.049575967728233"><ele>146.0</ele><time>2026-04-18T08:53:31Z</time></trkpt><trkpt lat="43.75583126363728" lon="13.04934433766234"><ele>144.33333333333331</ele><time>2026-04-18T08:53:32Z</time></trkpt><trkpt lat="43.75576430524883" lon="13.04910444337422"><ele>142.66666666666666</ele><time>2026-04-18T08:53:33Z</time></trkpt><trkpt lat="43.755698700691134" lon="13.048857997343118"><ele>141.0</ele><time>2026-04-18T08:53:34Z</time></trkpt><trkpt lat="43.755640445008815" lon="13.048607327826403"><ele>141.0</ele><time>2026-04-18T08:53:35Z</time></trkpt><trkpt lat="43.755595250759114" lon="13.048351146863649"><ele>141.0</ele><time>2026-04-18T08:53:36Z</time></trkpt><trkpt lat="43.75555568573533" lon="13.048087345740266"><ele>141.0</ele><time>2026-04-18T08:53:37Z</time></trkpt><trkpt lat="43.75552097470882" lon="13.047835445066786"><ele>138.66666666666666</ele><time>2026-04-18T08:53:38Z</time></trkpt><trkpt lat="43.75547250041778" lon="13.047594142006314"><ele>136.33333333333331</ele><time>2026-04-18T08:53:39Z</time></trkpt><trkpt lat="43.75540351705375" lon="13.0473435998572"><ele>134.0</ele><time>2026-04-18T08:53:40Z</time></trkpt><trkpt lat="43.7553197410873" lon="13.047090115935505"><ele>133.33333333333331</ele><time>2026-04-18T08:53:41Z</time></trkpt><trkpt lat="43.75522890647812" lon="13.04683219355549"><ele>132.66666666666666</ele><time>2026-04-18T08:53:42Z</time></trkpt><trkpt lat="43.75513590768716" lon="13.046566995451354"><ele>132.0</ele><time>2026-04-18T08:53:42.999Z</time></trkpt><trkpt lat="43.75504834794047" lon="13.046315447014477"><ele>132.0</ele><time>2026-04-18T08:53:43.999Z</time></trkpt><trkpt lat="43.75496327194182" lon="13.046079131112796"><ele>132.0</ele><time>2026-04-18T08:53:44.999Z</time></trkpt><trkpt lat="43.75487509372444" lon="13.045842930535027"><ele>132.0</ele><time>2026-04-18T08:53:45.999Z</time></trkpt><trkpt lat="43.75478800996655" lon="13.045613488224594"><ele>130.0</ele><time>2026-04-18T08:53:46.999Z</time></trkpt><trkpt lat="43.754704994159376" lon="13.04538245968016"><ele>128.0</ele><time>2026-04-18T08:53:47.999Z</time></trkpt><trkpt lat="43.75462430954547" lon="13.045158718815518"><ele>126.0</ele><time>2026-04-18T08:53:48.999Z</time></trkpt><trkpt lat="43.75456651992955" lon="13.044920775519039"><ele>124.66666666666666</ele><time>2026-04-18T08:53:49.999Z</time></trkpt><trkpt lat="43.754495394428936" lon="13.044686046867625"><ele>123.33333333333333</ele><time>2026-04-18T08:53:50.999Z</time></trkpt><trkpt lat="43.75442314999881" lon="13.04445402629603"><ele>122.0</ele><time>2026-04-18T08:53:51.999Z</time></trkpt><trkpt lat="43.75438520488048" lon="13.044203724826884"><ele>126.0</ele><time>2026-04-18T08:53:52.999Z</time></trkpt><trkpt lat="43.754358942919765" lon="13.043945031530283"><ele>130.0</ele><time>2026-04-18T08:53:53.999Z</time></trkpt><trkpt lat="43.754344754824885" lon="13.043678841107528"><ele>134.0</ele><time>2026-04-18T08:53:54.999Z</time></trkpt><trkpt lat="43.75432654563896" lon="13.043421109924793"><ele>134.66666666666666</ele><time>2026-04-18T08:53:55.999Z</time></trkpt><trkpt lat="43.754305883045" lon="13.043175785041784"><ele>135.33333333333334</ele><time>2026-04-18T08:53:56.999Z</time></trkpt><trkpt lat="43.7542860652232" lon="13.042939728093687"><ele>136.0</ele><time>2026-04-18T08:53:57.999Z</time></trkpt><trkpt lat="43.75427026072162" lon="13.042712884770353"><ele>136.0</ele><time>2026-04-18T08:53:58.999Z</time></trkpt><trkpt lat="43.75426596783725" lon="13.04249492379183"><ele>136.0</ele><time>2026-04-18T08:53:59.999Z</time></trkpt><trkpt lat="43.754286077821355" lon="13.042286927802062"><ele>136.0</ele><time>2026-04-18T08:54:00.999Z</time></trkpt><trkpt lat="43.75432332230658" lon="13.04206952254347"><ele>136.66666666666669</ele><time>2026-04-18T08:54:01.999Z</time></trkpt><trkpt lat="43.75438168838591" lon="13.041848621319541"><ele>137.33333333333334</ele><time>2026-04-18T08:54:02.999Z</time></trkpt><trkpt lat="43.75445053915985" lon="13.041637545958253"><ele>138.0</ele><time>2026-04-18T08:54:03.999Z</time></trkpt><trkpt lat="43.75452165894364" lon="13.041421201700937"><ele>138.0</ele><time>2026-04-18T08:54:04.999Z</time></trkpt><trkpt lat="43.7545869399798" lon="13.041193520592705"><ele>138.0</ele><time>2026-04-18T08:54:05.999Z</time></trkpt><trkpt lat="43.75464147132376" lon="13.040957613907594"><ele>138.0</ele><time>2026-04-18T08:54:06.999Z</time></trkpt><trkpt lat="43.754681511352715" lon="13.040716302189137"><ele>138.66666666666666</ele><time>2026-04-18T08:54:07.999Z</time></trkpt><trkpt lat="43.75470585432766" lon="13.040475439889144"><ele>139.33333333333331</ele><time>2026-04-18T08:54:08.999Z</time></trkpt><trkpt lat="43.75471474353611" lon="13.040255133985088"><ele>140.0</ele><time>2026-04-18T08:54:09.999Z</time></trkpt><trkpt lat="43.754726753559005" lon="13.040024874584978"><ele>138.66666666666666</ele><time>2026-04-18T08:54:10.999Z</time></trkpt><trkpt lat="43.75472726326381" lon="13.039802414037869"><ele>137.33333333333334</ele><time>2026-04-18T08:54:11.999Z</time></trkpt><trkpt lat="43.75472025302166" lon="13.039571788798026"><ele>136.0</ele><time>2026-04-18T08:54:12.999Z</time></trkpt><trkpt lat="43.75471564941154" lon="13.039336453812526"><ele>135.33333333333334</ele><time>2026-04-18T08:54:13.999Z</time></trkpt><trkpt lat="43.75467614563112" lon="13.039095694920539"><ele>134.66666666666666</ele><time>2026-04-18T08:54:14.999Z</time></trkpt><trkpt lat="43.754647095243335" lon="13.038849965156285"><ele>134.0</ele><time>2026-04-18T08:54:15.999Z</time></trkpt><trkpt lat="43.754621163587544" lon="13.038595295982748"><ele>134.0</ele><time>2026-04-18T08:54:16.999Z</time></trkpt><trkpt lat="43.75459722429304" lon="13.038337884066983"><ele>134.0</ele><time>2026-04-18T08:54:17.999Z</time></trkpt><trkpt lat="43.75456813208272" lon="13.038085936309148"><ele>134.0</ele><time>2026-04-18T08:54:18.999Z</time></trkpt><trkpt lat="43.75454010913307" lon="13.037823452899183"><ele>132.0</ele><time>2026-04-18T08:54:19.999Z</time></trkpt><trkpt lat="43.75451372788943" lon="13.037567591362048"><ele>130.0</ele><time>2026-04-18T08:54:20.999Z</time></trkpt><trkpt lat="43.75448569849828" lon="13.037314099570825"><ele>128.0</ele><time>2026-04-18T08:54:21.999Z</time></trkpt><trkpt lat="43.7544673221727" lon="13.037087847869316"><ele>126.66666666666666</ele><time>2026-04-18T08:54:22.999Z</time></trkpt><trkpt lat="43.75446021575519" lon="13.03684861667068"><ele>125.33333333333334</ele><time>2026-04-18T08:54:23.999Z</time></trkpt><trkpt lat="43.75446424781341" lon="13.036587305038704"><ele>124.0</ele><time>2026-04-18T08:54:24.999Z</time></trkpt><trkpt lat="43.75446679342128" lon="13.036326230953888"><ele>124.0</ele><time>2026-04-18T08:54:25.999Z</time></trkpt><trkpt lat="43.754469052213125" lon="13.036060029117223"><ele>124.0</ele><time>2026-04-18T08:54:27Z</time></trkpt><trkpt lat="43.75447485169406" lon="13.035792307420616"><ele>124.0</ele><time>2026-04-18T08:54:28Z</time></trkpt><trkpt lat="43.754479444379626" lon="13.035529359155449"><ele>124.33333333333334</ele><time>2026-04-18T08:54:29Z</time></trkpt><trkpt lat="43.75448394551609" lon="13.035269246717675"><ele>124.66666666666666</ele><time>2026-04-18T08:54:30Z</time></trkpt><trkpt lat="43.75448605237447" lon="13.035018977819314"><ele>125.0</ele><time>2026-04-18T08:54:31Z</time></trkpt><trkpt lat="43.75448687616906" lon="13.034770169314164"><ele>125.66666666666666</ele><time>2026-04-18T08:54:32Z</time></trkpt><trkpt lat="43.75448508843733" lon="13.034525276707624"><ele>126.33333333333334</ele><time>2026-04-18T08:54:33Z</time></trkpt><trkpt lat="43.754485919724054" lon="13.03428281130631"><ele>127.0</ele><time>2026-04-18T08:54:34Z</time></trkpt><trkpt lat="43.75449646219885" lon="13.034039308628504"><ele>127.33333333333334</ele><time>2026-04-18T08:54:35Z</time></trkpt><trkpt lat="43.75451761839272" lon="13.033800508815636"><ele>127.66666666666666</ele><time>2026-04-18T08:54:36Z</time></trkpt><trkpt lat="43.75455945350536" lon="13.033553855925568"><ele>128.0</ele><time>2026-04-18T08:54:37Z</time></trkpt><trkpt lat="43.754604955764876" lon="13.033319216607605"><ele>129.0</ele><time>2026-04-18T08:54:38Z</time></trkpt><trkpt lat="43.75465411791725" lon="13.033078515211487"><ele>130.0</ele><time>2026-04-18T08:54:39Z</time></trkpt><trkpt lat="43.75471306927193" lon="13.032843650113948"><ele>131.0</ele><time>2026-04-18T08:54:40Z</time></trkpt><trkpt lat="43.754772837082115" lon="13.03260652982177"><ele>132.66666666666666</ele><time>2026-04-18T08:54:41Z</time></trkpt><trkpt lat="43.75481305161798" lon="13.032361220191595"><ele>134.33333333333334</ele><time>2026-04-18T08:54:42Z</time></trkpt><trkpt lat="43.75485771613175" lon="13.0321164336589"><ele>136.0</ele><time>2026-04-18T08:54:43Z</time></trkpt><trkpt lat="43.754891370322504" lon="13.031876033994886"><ele>136.66666666666669</ele><time>2026-04-18T08:54:44Z</time></trkpt><trkpt lat="43.754913896896866" lon="13.031633331545324"><ele>137.33333333333334</ele><time>2026-04-18T08:54:45Z</time></trkpt><trkpt lat="43.75493323141063" lon="13.031381095244713"><ele>138.0</ele><time>2026-04-18T08:54:46Z</time></trkpt><trkpt lat="43.75494852193047" lon="13.031140999416307"><ele>138.0</ele><time>2026-04-18T08:54:47Z</time></trkpt><trkpt lat="43.7549829722309" lon="13.030916349381961"><ele>138.0</ele><time>2026-04-18T08:54:48Z</time></trkpt><trkpt lat="43.7549954982495" lon="13.030698080347463"><ele>138.0</ele><time>2026-04-18T08:54:49Z</time></trkpt><trkpt lat="43.75500711923937" lon="13.030475637626365"><ele>138.0</ele><time>2026-04-18T08:54:50Z</time></trkpt><trkpt lat="43.7550131293281" lon="13.03024994423613"><ele>138.0</ele><time>2026-04-18T08:54:51Z</time></trkpt><trkpt lat="43.755013952881434" lon="13.0300220907746"><ele>138.0</ele><time>2026-04-18T08:54:52Z</time></trkpt><trkpt lat="43.75501032800646" lon="13.029794570180693"><ele>139.33333333333334</ele><time>2026-04-18T08:54:53Z</time></trkpt><trkpt lat="43.75500564722726" lon="13.02956834653808"><ele>140.66666666666669</ele><time>2026-04-18T08:54:54Z</time></trkpt><trkpt lat="43.7550009986121" lon="13.029344818482727"><ele>142.0</ele><time>2026-04-18T08:54:55Z</time></trkpt><trkpt lat="43.754994198194986" lon="13.029110240681387"><ele>143.0</ele><time>2026-04-18T08:54:56Z</time></trkpt><trkpt lat="43.754984378387434" lon="13.02888034473921"><ele>144.0</ele><time>2026-04-18T08:54:57Z</time></trkpt><trkpt lat="43.75496919558344" lon="13.02865026779559"><ele>145.0</ele><time>2026-04-18T08:54:58Z</time></trkpt><trkpt lat="43.7549446610238" lon="13.028412905893566"><ele>145.66666666666669</ele><time>2026-04-18T08:54:59Z</time></trkpt><trkpt lat="43.75489972408171" lon="13.02818366437729"><ele>146.33333333333334</ele><time>2026-04-18T08:55:00Z</time></trkpt><trkpt lat="43.754886049262936" lon="13.027954081961566"><ele>147.0</ele><time>2026-04-18T08:55:01Z</time></trkpt><trkpt lat="43.754853306330105" lon="13.027731052910243"><ele>147.0</ele><time>2026-04-18T08:55:02Z</time></trkpt><trkpt lat="43.75481855290928" lon="13.027509303675156"><ele>147.0</ele><time>2026-04-18T08:55:03Z</time></trkpt><trkpt lat="43.75478454410095" lon="13.027290968603653"><ele>147.0</ele><time>2026-04-18T08:55:04Z</time></trkpt><trkpt lat="43.754754374651526" lon="13.027086991605858"><ele>148.25</ele><time>2026-04-18T08:55:05Z</time></trkpt><trkpt lat="43.75473340019361" lon="13.026896540650252"><ele>149.5</ele><time>2026-04-18T08:55:06Z</time></trkpt><trkpt lat="43.7547233241158" lon="13.02671230036941"><ele>150.75</ele><time>2026-04-18T08:55:07Z</time></trkpt><trkpt lat="43.754709736096544" lon="13.026544004235157"><ele>152.0</ele><time>2026-04-18T08:55:08Z</time></trkpt><trkpt lat="43.75471764830477" lon="13.026386873462352"><ele>152.0</ele><time>2026-04-18T08:55:09Z</time></trkpt><trkpt lat="43.75472699250985" lon="13.02624157971068"><ele>152.0</ele><time>2026-04-18T08:55:10Z</time></trkpt><trkpt lat="43.754732034045716" lon="13.026116734470579"><ele>152.0</ele><time>2026-04-18T08:55:11Z</time></trkpt><trkpt lat="43.754734537836775" lon="13.025999843815347"><ele>152.0</ele><time>2026-04-18T08:55:12Z</time></trkpt><trkpt lat="43.75473601675755" lon="13.025870884775562"><ele>152.0</ele><time>2026-04-18T08:55:13Z</time></trkpt><trkpt lat="43.754729207105136" lon="13.02572781593039"><ele>151.5</ele><time>2026-04-18T08:55:14Z</time></trkpt><trkpt lat="43.75472858911541" lon="13.025571981062614"><ele>151.0</ele><time>2026-04-18T08:55:15Z</time></trkpt><trkpt lat="43.75471198971628" lon="13.025402223619645"><ele>150.5</ele><time>2026-04-18T08:55:16Z</time></trkpt><trkpt lat="43.75470321232614" lon="13.025220763276835"><ele>150.0</ele><time>2026-04-18T08:55:17Z</time></trkpt><trkpt lat="43.754699291407086" lon="13.025032097345257"><ele>148.5</ele><time>2026-04-18T08:55:18Z</time></trkpt><trkpt lat="43.75469644525068" lon="13.02484311383641"><ele>147.0</ele><time>2026-04-18T08:55:19Z</time></trkpt><trkpt lat="43.75468933061774" lon="13.024657563997838"><ele>145.5</ele><time>2026-04-18T08:55:20Z</time></trkpt><trkpt lat="43.75467863538687" lon="13.024459299936046"><ele>144.0</ele><time>2026-04-18T08:55:21Z</time></trkpt><trkpt lat="43.754664578324665" lon="13.024255240909808"><ele>141.33333333333334</ele><time>2026-04-18T08:55:22Z</time></trkpt><trkpt lat="43.754645539966944" lon="13.024046405917701"><ele>138.66666666666669</ele><time>2026-04-18T08:55:23Z</time></trkpt><trkpt lat="43.75462180062237" lon="13.023841652726174"><ele>136.0</ele><time>2026-04-18T08:55:24Z</time></trkpt><trkpt lat="43.75459769294822" lon="13.023636732875252"><ele>136.0</ele><time>2026-04-18T08:55:25Z</time></trkpt><trkpt lat="43.75457092850096" lon="13.023434144854777"><ele>136.0</ele><time>2026-04-18T08:55:26Z</time></trkpt><trkpt lat="43.754545595500176" lon="13.023227481791977"><ele>136.0</ele><time>2026-04-18T08:55:27Z</time></trkpt><trkpt lat="43.75451897610153" lon="13.023023519491593"><ele>134.33333333333334</ele><time>2026-04-18T08:55:28Z</time></trkpt><trkpt lat="43.75449306389466" lon="13.022815677989351"><ele>132.66666666666666</ele><time>2026-04-18T08:55:29Z</time></trkpt><trkpt lat="43.75446735658485" lon="13.022609778025165"><ele>131.0</ele><time>2026-04-18T08:55:30Z</time></trkpt><trkpt lat="43.75445624461448" lon="13.022401606138324"><ele>130.0</ele><time>2026-04-18T08:55:31Z</time></trkpt><trkpt lat="43.754433284742596" lon="13.022200904580677"><ele>129.0</ele><time>2026-04-18T08:55:32Z</time></trkpt><trkpt lat="43.75441055232115" lon="13.022002191272929"><ele>128.0</ele><time>2026-04-18T08:55:33Z</time></trkpt><trkpt lat="43.754383812101196" lon="13.021781364899626"><ele>130.66666666666666</ele><time>2026-04-18T08:55:34Z</time></trkpt><trkpt lat="43.75435610830301" lon="13.021567474235486"><ele>133.33333333333334</ele><time>2026-04-18T08:55:35Z</time></trkpt><trkpt lat="43.75432525691333" lon="13.02135676924471"><ele>136.0</ele><time>2026-04-18T08:55:36Z</time></trkpt><trkpt lat="43.75429091535894" lon="13.021144648526734"><ele>136.0</ele><time>2026-04-18T08:55:37Z</time></trkpt><trkpt lat="43.75425504431387" lon="13.020935155360835"><ele>136.0</ele><time>2026-04-18T08:55:38Z</time></trkpt><trkpt lat="43.754201555638446" lon="13.02072905442028"><ele>136.0</ele><time>2026-04-18T08:55:39Z</time></trkpt><trkpt lat="43.75416411254858" lon="13.020515102054343"><ele>136.33333333333334</ele><time>2026-04-18T08:55:40Z</time></trkpt><trkpt lat="43.754126678994126" lon="13.020294811333029"><ele>136.66666666666666</ele><time>2026-04-18T08:55:41Z</time></trkpt><trkpt lat="43.754088531218834" lon="13.020072682131236"><ele>137.0</ele><time>2026-04-18T08:55:42Z</time></trkpt><trkpt lat="43.75404742637852" lon="13.019863304612436"><ele>137.2</ele><time>2026-04-18T08:55:43Z</time></trkpt><trkpt lat="43.754010555069385" lon="13.019661937713725"><ele>137.39999999999998</ele><time>2026-04-18T08:55:44Z</time></trkpt><trkpt lat="43.75400249940283" lon="13.019525286462002"><ele>137.60000000000002</ele><time>2026-04-18T08:55:45Z</time></trkpt><trkpt lat="43.7539689970111" lon="13.019388569764674"><ele>137.8</ele><time>2026-04-18T08:55:47Z</time></trkpt><trkpt lat="43.753958945016116" lon="13.019286099470925"><ele>138.0</ele><time>2026-04-18T08:55:48.999Z</time></trkpt><trkpt lat="43.75395259960777" lon="13.019188529671265"><ele>138.0</ele><time>2026-04-18T08:55:50.999Z</time></trkpt><trkpt lat="43.75392526018104" lon="13.019109480267542"><ele>138.0</ele><time>2026-04-18T08:55:51.999Z</time></trkpt><trkpt lat="43.753895137195435" lon="13.018994736461247"><ele>138.0</ele><time>2026-04-18T08:55:52.999Z</time></trkpt><trkpt lat="43.753863478983796" lon="13.01884201471805"><ele>138.0</ele><time>2026-04-18T08:55:53.999Z</time></trkpt><trkpt lat="43.75384387369102" lon="13.01865113217411"><ele>138.0</ele><time>2026-04-18T08:55:54.999Z</time></trkpt><trkpt lat="43.75380751442812" lon="13.018443806702757"><ele>138.66666666666666</ele><time>2026-04-18T08:55:55.999Z</time></trkpt><trkpt lat="43.75375452951605" lon="13.018222639806845"><ele>139.33333333333331</ele><time>2026-04-18T08:55:56.999Z</time></trkpt><trkpt lat="43.75372661743191" lon="13.017991538590595"><ele>140.0</ele><time>2026-04-18T08:55:57.999Z</time></trkpt><trkpt lat="43.753708876199134" lon="13.01775732695723"><ele>140.0</ele><time>2026-04-18T08:55:58.999Z</time></trkpt><trkpt lat="43.75369983269308" lon="13.017526796362246"><ele>140.0</ele><time>2026-04-18T08:55:59.999Z</time></trkpt><trkpt lat="43.75369673696998" lon="13.017296919602742"><ele>140.0</ele><time>2026-04-18T08:56:00.999Z</time></trkpt><trkpt lat="43.753693186001826" lon="13.017062103215881"><ele>141.66666666666666</ele><time>2026-04-18T08:56:01.999Z</time></trkpt><trkpt lat="43.75371241506622" lon="13.016828901638112"><ele>143.33333333333334</ele><time>2026-04-18T08:56:02.999Z</time></trkpt><trkpt lat="43.753715265165056" lon="13.016595298253785"><ele>145.0</ele><time>2026-04-18T08:56:03.999Z</time></trkpt><trkpt lat="43.753718091274436" lon="13.01636366174407"><ele>146.66666666666669</ele><time>2026-04-18T08:56:04.999Z</time></trkpt><trkpt lat="43.75370472828604" lon="13.016135413695622"><ele>148.33333333333334</ele><time>2026-04-18T08:56:05.999Z</time></trkpt><trkpt lat="43.75371099570607" lon="13.015915023901611"><ele>150.0</ele><time>2026-04-18T08:56:06.999Z</time></trkpt><trkpt lat="43.753713567725384" lon="13.015701927716757"><ele>151.75</ele><time>2026-04-18T08:56:07.999Z</time></trkpt><trkpt lat="43.75371761191598" lon="13.01549771341335"><ele>153.5</ele><time>2026-04-18T08:56:08.999Z</time></trkpt><trkpt lat="43.753718449261584" lon="13.015314731001116"><ele>155.25</ele><time>2026-04-18T08:56:09.999Z</time></trkpt><trkpt lat="43.75373526834281" lon="13.015148172866377"><ele>157.0</ele><time>2026-04-18T08:56:10.999Z</time></trkpt><trkpt lat="43.75373605414285" lon="13.01498420208772"><ele>157.2</ele><time>2026-04-18T08:56:11.999Z</time></trkpt><trkpt lat="43.75373455573356" lon="13.014827721002222"><ele>157.39999999999998</ele><time>2026-04-18T08:56:12.999Z</time></trkpt><trkpt lat="43.75370533878754" lon="13.014691408700125"><ele>157.60000000000002</ele><time>2026-04-18T08:56:13.999Z</time></trkpt><trkpt lat="43.75367095856967" lon="13.014560489083838"><ele>157.8</ele><time>2026-04-18T08:56:14.999Z</time></trkpt><trkpt lat="43.75361752159885" lon="13.01444313325933"><ele>158.0</ele><time>2026-04-18T08:56:15.999Z</time></trkpt><trkpt lat="43.75354334407909" lon="13.014333386641946"><ele>158.0</ele><time>2026-04-18T08:56:16.999Z</time></trkpt><trkpt lat="43.75346373215078" lon="13.01422177350225"><ele>158.0</ele><time>2026-04-18T08:56:17.999Z</time></trkpt><trkpt lat="43.753383272750405" lon="13.014112838381768"><ele>158.0</ele><time>2026-04-18T08:56:18.999Z</time></trkpt><trkpt lat="43.75330614662074" lon="13.014000593248683"><ele>158.0</ele><time>2026-04-18T08:56:19.999Z</time></trkpt><trkpt lat="43.75322910691662" lon="13.013893749416628"><ele>158.0</ele><time>2026-04-18T08:56:20.999Z</time></trkpt><trkpt lat="43.753150244942965" lon="13.013785620346198"><ele>158.0</ele><time>2026-04-18T08:56:21.999Z</time></trkpt><trkpt lat="43.753076792486866" lon="13.013682097837405"><ele>158.0</ele><time>2026-04-18T08:56:22.999Z</time></trkpt><trkpt lat="43.75299699391279" lon="13.013584097016492"><ele>158.0</ele><time>2026-04-18T08:56:23.999Z</time></trkpt><trkpt lat="43.75292601663008" lon="13.013479995442006"><ele>158.0</ele><time>2026-04-18T08:56:24.999Z</time></trkpt><trkpt lat="43.75284513791343" lon="13.013383988439342"><ele>158.0</ele><time>2026-04-18T08:56:25.999Z</time></trkpt><trkpt lat="43.75276572624625" lon="13.013294118637246"><ele>158.20000000000002</ele><time>2026-04-18T08:56:26.999Z</time></trkpt><trkpt lat="43.75269734463953" lon="13.013182149264038"><ele>158.4</ele><time>2026-04-18T08:56:27.999Z</time></trkpt><trkpt lat="43.7526285695461" lon="13.013085676198221"><ele>158.60000000000002</ele><time>2026-04-18T08:56:28.999Z</time></trkpt><trkpt lat="43.75256180059826" lon="13.012982611922359"><ele>158.8</ele><time>2026-04-18T08:56:29.999Z</time></trkpt><trkpt lat="43.75249798764515" lon="13.012866232995654"><ele>159.0</ele><time>2026-04-18T08:56:30.999Z</time></trkpt><trkpt lat="43.75243932598404" lon="13.012752167123189"><ele>159.0</ele><time>2026-04-18T08:56:31.999Z</time></trkpt><trkpt lat="43.75237641551114" lon="13.012622398541675"><ele>159.0</ele><time>2026-04-18T08:56:33Z</time></trkpt><trkpt lat="43.75230916218244" lon="13.012484647451796"><ele>159.0</ele><time>2026-04-18T08:56:34Z</time></trkpt><trkpt lat="43.75224210864184" lon="13.012348617688337"><ele>159.0</ele><time>2026-04-18T08:56:35Z</time></trkpt><trkpt lat="43.75216994435883" lon="13.01222483356464"><ele>159.0</ele><time>2026-04-18T08:56:36Z</time></trkpt><trkpt lat="43.75207712921756" lon="13.012116305979838"><ele>159.0</ele><time>2026-04-18T08:56:37Z</time></trkpt><trkpt lat="43.75197504861478" lon="13.012003065526514"><ele>159.0</ele><time>2026-04-18T08:56:38Z</time></trkpt><trkpt lat="43.75187180095612" lon="13.011885788285154"><ele>159.0</ele><time>2026-04-18T08:56:39Z</time></trkpt><trkpt lat="43.751758355539856" lon="13.011791253003075"><ele>159.0</ele><time>2026-04-18T08:56:40Z</time></trkpt><trkpt lat="43.751639178396246" lon="13.011693775623502"><ele>159.0</ele><time>2026-04-18T08:56:41Z</time></trkpt><trkpt lat="43.751518942102265" lon="13.011610093190603"><ele>159.0</ele><time>2026-04-18T08:56:42Z</time></trkpt><trkpt lat="43.7514093306053" lon="13.011514796313774"><ele>159.0</ele><time>2026-04-18T08:56:43Z</time></trkpt><trkpt lat="43.75130069528813" lon="13.011424956812597"><ele>159.0</ele><time>2026-04-18T08:56:44Z</time></trkpt><trkpt lat="43.75119185511617" lon="13.011325427896363"><ele>159.0</ele><time>2026-04-18T08:56:45Z</time></trkpt><trkpt lat="43.75108213295325" lon="13.011208408313433"><ele>159.0</ele><time>2026-04-18T08:56:46Z</time></trkpt><trkpt lat="43.750982564966385" lon="13.011055370510768"><ele>159.0</ele><time>2026-04-18T08:56:47Z</time></trkpt><trkpt lat="43.75089582539119" lon="13.010875067982987"><ele>159.33333333333334</ele><time>2026-04-18T08:56:48Z</time></trkpt><trkpt lat="43.75080557882721" lon="13.010686714462713"><ele>159.66666666666669</ele><time>2026-04-18T08:56:49Z</time></trkpt><trkpt lat="43.75071295964213" lon="13.010498287454556"><ele>160.0</ele><time>2026-04-18T08:56:50Z</time></trkpt><trkpt lat="43.75063321520116" lon="13.010300728202784"><ele>160.0</ele><time>2026-04-18T08:56:51Z</time></trkpt><trkpt lat="43.750547063343" lon="13.010119083204636"><ele>160.0</ele><time>2026-04-18T08:56:52Z</time></trkpt><trkpt lat="43.750465293369" lon="13.009941737532863"><ele>160.0</ele><time>2026-04-18T08:56:53Z</time></trkpt><trkpt lat="43.75038958394724" lon="13.009759598267696"><ele>160.0</ele><time>2026-04-18T08:56:54Z</time></trkpt><trkpt lat="43.750334998527165" lon="13.009584695787538"><ele>160.0</ele><time>2026-04-18T08:56:55Z</time></trkpt><trkpt lat="43.75028028438645" lon="13.009406696143158"><ele>160.0</ele><time>2026-04-18T08:56:56Z</time></trkpt><trkpt lat="43.750261942408905" lon="13.009203532658958"><ele>160.0</ele><time>2026-04-18T08:56:57Z</time></trkpt><trkpt lat="43.75025853958055" lon="13.00898861547844"><ele>158.66666666666669</ele><time>2026-04-18T08:56:58Z</time></trkpt><trkpt lat="43.750269065588284" lon="13.008776646391905"><ele>157.33333333333334</ele><time>2026-04-18T08:56:59Z</time></trkpt><trkpt lat="43.75028403587889" lon="13.00856878542107"><ele>156.0</ele><time>2026-04-18T08:57:00Z</time></trkpt><trkpt lat="43.750309470943485" lon="13.008353460988623"><ele>155.66666666666666</ele><time>2026-04-18T08:57:01Z</time></trkpt><trkpt lat="43.75032377125744" lon="13.00813235270811"><ele>155.33333333333331</ele><time>2026-04-18T08:57:02Z</time></trkpt><trkpt lat="43.750337533841666" lon="13.00790704693154"><ele>155.0</ele><time>2026-04-18T08:57:03Z</time></trkpt><trkpt lat="43.750350722498176" lon="13.007683059404071"><ele>155.33333333333331</ele><time>2026-04-18T08:57:04Z</time></trkpt><trkpt lat="43.75036401997665" lon="13.0074510989142"><ele>155.66666666666666</ele><time>2026-04-18T08:57:05Z</time></trkpt><trkpt lat="43.750373340823536" lon="13.007226600309277"><ele>156.0</ele><time>2026-04-18T08:57:06Z</time></trkpt><trkpt lat="43.75035708934873" lon="13.00701088260553"><ele>156.0</ele><time>2026-04-18T08:57:07Z</time></trkpt><trkpt lat="43.75033630227872" lon="13.00680477428328"><ele>156.0</ele><time>2026-04-18T08:57:08Z</time></trkpt><trkpt lat="43.750294286" lon="13.006603365587454"><ele>156.0</ele><time>2026-04-18T08:57:09Z</time></trkpt><trkpt lat="43.75022398676099" lon="13.006416488534509"><ele>157.0</ele><time>2026-04-18T08:57:10Z</time></trkpt><trkpt lat="43.750160082307275" lon="13.006235063394993"><ele>158.0</ele><time>2026-04-18T08:57:11Z</time></trkpt><trkpt lat="43.75009790356171" lon="13.006065425238653"><ele>159.0</ele><time>2026-04-18T08:57:12Z</time></trkpt><trkpt lat="43.75002391642993" lon="13.005908307951724"><ele>160.0</ele><time>2026-04-18T08:57:13Z</time></trkpt><trkpt lat="43.74995784755262" lon="13.005755065820763"><ele>161.0</ele><time>2026-04-18T08:57:14Z</time></trkpt><trkpt lat="43.74989512595634" lon="13.005592970817663"><ele>162.0</ele><time>2026-04-18T08:57:15Z</time></trkpt><trkpt lat="43.74985167656591" lon="13.005419022261492"><ele>163.0</ele><time>2026-04-18T08:57:16Z</time></trkpt><trkpt lat="43.74983218102086" lon="13.005236207906488"><ele>164.0</ele><time>2026-04-18T08:57:17Z</time></trkpt><trkpt lat="43.74982802023882" lon="13.005041273026922"><ele>163.0</ele><time>2026-04-18T08:57:18Z</time></trkpt><trkpt lat="43.74988067799023" lon="13.004863062029095"><ele>162.0</ele><time>2026-04-18T08:57:19Z</time></trkpt><trkpt lat="43.749924429453856" lon="13.004672972932752"><ele>161.0</ele><time>2026-04-18T08:57:20Z</time></trkpt><trkpt lat="43.74997998547668" lon="13.004461353522874"><ele>160.0</ele><time>2026-04-18T08:57:21Z</time></trkpt><trkpt lat="43.75004031827203" lon="13.004237402554192"><ele>158.0</ele><time>2026-04-18T08:57:22Z</time></trkpt><trkpt lat="43.75010335903408" lon="13.004000107904778"><ele>156.0</ele><time>2026-04-18T08:57:23Z</time></trkpt><trkpt lat="43.750150992287466" lon="13.003742930718591"><ele>154.0</ele><time>2026-04-18T08:57:24Z</time></trkpt><trkpt lat="43.75021599386832" lon="13.003497501621563"><ele>154.0</ele><time>2026-04-18T08:57:25Z</time></trkpt><trkpt lat="43.750288874920464" lon="13.003256931060795"><ele>154.0</ele><time>2026-04-18T08:57:26Z</time></trkpt><trkpt lat="43.75034063141344" lon="13.00303313505373"><ele>154.0</ele><time>2026-04-18T08:57:27Z</time></trkpt><trkpt lat="43.750401301314575" lon="13.002816481021902"><ele>154.0</ele><time>2026-04-18T08:57:28Z</time></trkpt><trkpt lat="43.75045184968943" lon="13.002619904610603"><ele>154.0</ele><time>2026-04-18T08:57:29Z</time></trkpt><trkpt lat="43.75050067548423" lon="13.002428444336026"><ele>154.0</ele><time>2026-04-18T08:57:30Z</time></trkpt><trkpt lat="43.75054826062034" lon="13.002238542706012"><ele>154.0</ele><time>2026-04-18T08:57:31Z</time></trkpt><trkpt lat="43.750593117980564" lon="13.002047969267059"><ele>154.25</ele><time>2026-04-18T08:57:32Z</time></trkpt><trkpt lat="43.750642780801535" lon="13.00185728872494"><ele>154.5</ele><time>2026-04-18T08:57:33Z</time></trkpt><trkpt lat="43.750688526071954" lon="13.001670599408742"><ele>154.75</ele><time>2026-04-18T08:57:34Z</time></trkpt><trkpt lat="43.750737956864654" lon="13.001487559731347"><ele>155.0</ele><time>2026-04-18T08:57:35Z</time></trkpt><trkpt lat="43.75078393456994" lon="13.00130750782813"><ele>156.25</ele><time>2026-04-18T08:57:36Z</time></trkpt><trkpt lat="43.75083010278948" lon="13.001126183392222"><ele>157.5</ele><time>2026-04-18T08:57:37Z</time></trkpt><trkpt lat="43.750874719976125" lon="13.000948536839832"><ele>158.75</ele><time>2026-04-18T08:57:38Z</time></trkpt><trkpt lat="43.75091929878267" lon="13.000771211727988"><ele>160.0</ele><time>2026-04-18T08:57:39Z</time></trkpt><trkpt lat="43.75097884366114" lon="13.000602078118407"><ele>160.25</ele><time>2026-04-18T08:57:40Z</time></trkpt><trkpt lat="43.7510278265747" lon="13.00041339208622"><ele>160.5</ele><time>2026-04-18T08:57:41Z</time></trkpt><trkpt lat="43.751079241962174" lon="13.000216013901941"><ele>160.75</ele><time>2026-04-18T08:57:42Z</time></trkpt><trkpt lat="43.75113115299894" lon="13.000016732830533"><ele>161.0</ele><time>2026-04-18T08:57:43Z</time></trkpt><trkpt lat="43.75116772498805" lon="12.999809017304862"><ele>158.33333333333331</ele><time>2026-04-18T08:57:44Z</time></trkpt><trkpt lat="43.75122492388316" lon="12.99960936479165"><ele>155.66666666666666</ele><time>2026-04-18T08:57:45Z</time></trkpt><trkpt lat="43.75129557724791" lon="12.999412025967477"><ele>153.0</ele><time>2026-04-18T08:57:46Z</time></trkpt><trkpt lat="43.75140598490261" lon="12.999235628180202"><ele>154.0</ele><time>2026-04-18T08:57:47Z</time></trkpt><trkpt lat="43.751514566550604" lon="12.999052445069164"><ele>155.0</ele><time>2026-04-18T08:57:48Z</time></trkpt><trkpt lat="43.75161833804679" lon="12.998847463899233"><ele>156.0</ele><time>2026-04-18T08:57:49Z</time></trkpt><trkpt lat="43.75173096490335" lon="12.998659375718034"><ele>156.0</ele><time>2026-04-18T08:57:50Z</time></trkpt><trkpt lat="43.751848340016906" lon="12.998465613662216"><ele>156.0</ele><time>2026-04-18T08:57:51Z</time></trkpt><trkpt lat="43.75196054533937" lon="12.998273724275162"><ele>156.0</ele><time>2026-04-18T08:57:52Z</time></trkpt><trkpt lat="43.75207177722355" lon="12.998077364687953"><ele>155.66666666666666</ele><time>2026-04-18T08:57:53Z</time></trkpt><trkpt lat="43.75218184446911" lon="12.997881401508636"><ele>155.33333333333331</ele><time>2026-04-18T08:57:54Z</time></trkpt><trkpt lat="43.75228993033276" lon="12.997683220671421"><ele>155.0</ele><time>2026-04-18T08:57:55Z</time></trkpt><trkpt lat="43.752390699367545" lon="12.997486386645939"><ele>155.0</ele><time>2026-04-18T08:57:56Z</time></trkpt><trkpt lat="43.75247112235405" lon="12.99725147713698"><ele>155.0</ele><time>2026-04-18T08:57:57Z</time></trkpt><trkpt lat="43.75254858884513" lon="12.99702954119276"><ele>155.0</ele><time>2026-04-18T08:57:58Z</time></trkpt><trkpt lat="43.75260722901839" lon="12.99680852504363"><ele>156.66666666666666</ele><time>2026-04-18T08:57:59Z</time></trkpt><trkpt lat="43.75268016938167" lon="12.996590144484868"><ele>158.33333333333334</ele><time>2026-04-18T08:58:00Z</time></trkpt><trkpt lat="43.752713278489594" lon="12.996365410544705"><ele>160.0</ele><time>2026-04-18T08:58:01Z</time></trkpt><trkpt lat="43.752752810299015" lon="12.9961435816768"><ele>161.0</ele><time>2026-04-18T08:58:02Z</time></trkpt><trkpt lat="43.752782212135855" lon="12.9959140543196"><ele>162.0</ele><time>2026-04-18T08:58:03Z</time></trkpt><trkpt lat="43.75280359892382" lon="12.99568484900548"><ele>163.0</ele><time>2026-04-18T08:58:04Z</time></trkpt><trkpt lat="43.75281230874907" lon="12.995456569151395"><ele>164.66666666666669</ele><time>2026-04-18T08:58:05Z</time></trkpt><trkpt lat="43.75282097559399" lon="12.995223317464307"><ele>166.33333333333334</ele><time>2026-04-18T08:58:06Z</time></trkpt><trkpt lat="43.752820888676645" lon="12.994999652465921"><ele>168.0</ele><time>2026-04-18T08:58:07Z</time></trkpt><trkpt lat="43.75282165982623" lon="12.994777146641654"><ele>169.0</ele><time>2026-04-18T08:58:08Z</time></trkpt><trkpt lat="43.75282599191953" lon="12.99456422550349"><ele>170.0</ele><time>2026-04-18T08:58:09Z</time></trkpt><trkpt lat="43.75281994284531" lon="12.9943495801789"><ele>171.0</ele><time>2026-04-18T08:58:10Z</time></trkpt><trkpt lat="43.7528058287195" lon="12.994138782284018"><ele>171.0</ele><time>2026-04-18T08:58:11Z</time></trkpt><trkpt lat="43.75277622925485" lon="12.993911729392261"><ele>171.0</ele><time>2026-04-18T08:58:12Z</time></trkpt><trkpt lat="43.75273685236453" lon="12.993682892011797"><ele>171.0</ele><time>2026-04-18T08:58:13Z</time></trkpt><trkpt lat="43.7526820639086" lon="12.99344863156113"><ele>168.0</ele><time>2026-04-18T08:58:13.999Z</time></trkpt><trkpt lat="43.75262250189168" lon="12.993216972485138"><ele>165.0</ele><time>2026-04-18T08:58:14.999Z</time></trkpt><trkpt lat="43.752558611270985" lon="12.9929858882989"><ele>162.0</ele><time>2026-04-18T08:58:15.999Z</time></trkpt><trkpt lat="43.752504787899554" lon="12.992750716449732"><ele>162.0</ele><time>2026-04-18T08:58:16.999Z</time></trkpt><trkpt lat="43.75245115789459" lon="12.99251799517004"><ele>162.0</ele><time>2026-04-18T08:58:17.999Z</time></trkpt><trkpt lat="43.75238909923026" lon="12.99228210972043"><ele>162.0</ele><time>2026-04-18T08:58:18.999Z</time></trkpt><trkpt lat="43.75232767696299" lon="12.992048414395601"><ele>161.66666666666666</ele><time>2026-04-18T08:58:19.999Z</time></trkpt><trkpt lat="43.752263980187664" lon="12.991817326675893"><ele>161.33333333333331</ele><time>2026-04-18T08:58:20.999Z</time></trkpt><trkpt lat="43.752212665421865" lon="12.991584819906885"><ele>161.0</ele><time>2026-04-18T08:58:21.999Z</time></trkpt><trkpt lat="43.752158591343786" lon="12.991349143642031"><ele>160.66666666666666</ele><time>2026-04-18T08:58:22.999Z</time></trkpt><trkpt lat="43.752101940182406" lon="12.991118029742301"><ele>160.33333333333334</ele><time>2026-04-18T08:58:23.999Z</time></trkpt><trkpt lat="43.75205053797052" lon="12.990896666853729"><ele>160.0</ele><time>2026-04-18T08:58:24.999Z</time></trkpt><trkpt lat="43.751988620472616" lon="12.99068472620304"><ele>159.66666666666669</ele><time>2026-04-18T08:58:25.999Z</time></trkpt><trkpt lat="43.75192110821301" lon="12.990473086754504"><ele>159.33333333333334</ele><time>2026-04-18T08:58:26.999Z</time></trkpt><trkpt lat="43.751853849316724" lon="12.990264705369182"><ele>159.0</ele><time>2026-04-18T08:58:27.999Z</time></trkpt><trkpt lat="43.7517695402887" lon="12.990074110036488"><ele>158.33333333333334</ele><time>2026-04-18T08:58:28.999Z</time></trkpt><trkpt lat="43.7516814454616" lon="12.989894670926539"><ele>157.66666666666669</ele><time>2026-04-18T08:58:29.999Z</time></trkpt><trkpt lat="43.751572709869556" lon="12.989729955374871"><ele>157.0</ele><time>2026-04-18T08:58:30.999Z</time></trkpt><trkpt lat="43.75144407424541" lon="12.989582937194138"><ele>157.0</ele><time>2026-04-18T08:58:31.999Z</time></trkpt><trkpt lat="43.75131058517387" lon="12.989446791194515"><ele>157.0</ele><time>2026-04-18T08:58:32.999Z</time></trkpt><trkpt lat="43.7511814152129" lon="12.989310803854154"><ele>157.0</ele><time>2026-04-18T08:58:33.999Z</time></trkpt><trkpt lat="43.75105295120776" lon="12.989182835712825"><ele>157.33333333333334</ele><time>2026-04-18T08:58:34.999Z</time></trkpt><trkpt lat="43.750921272268364" lon="12.989051331676142"><ele>157.66666666666666</ele><time>2026-04-18T08:58:35.999Z</time></trkpt><trkpt lat="43.75079088901274" lon="12.988920081433939"><ele>158.0</ele><time>2026-04-18T08:58:36.999Z</time></trkpt><trkpt lat="43.75066404506506" lon="12.988782137194587"><ele>158.0</ele><time>2026-04-18T08:58:38Z</time></trkpt><trkpt lat="43.75054028488835" lon="12.988650089570221"><ele>158.0</ele><time>2026-04-18T08:58:39Z</time></trkpt><trkpt lat="43.75041250643705" lon="12.988519376330194"><ele>158.0</ele><time>2026-04-18T08:58:40Z</time></trkpt><trkpt lat="43.750284146573655" lon="12.988386989388005"><ele>158.0</ele><time>2026-04-18T08:58:41Z</time></trkpt><trkpt lat="43.75015492772076" lon="12.988252263507595"><ele>158.0</ele><time>2026-04-18T08:58:42Z</time></trkpt><trkpt lat="43.75002853071529" lon="12.988110408618798"><ele>158.0</ele><time>2026-04-18T08:58:43Z</time></trkpt><trkpt lat="43.74990103364816" lon="12.987969089485592"><ele>158.0</ele><time>2026-04-18T08:58:44Z</time></trkpt><trkpt lat="43.74977870503931" lon="12.987809955202003"><ele>158.0</ele><time>2026-04-18T08:58:45Z</time></trkpt><trkpt lat="43.74965380695829" lon="12.987646685251162"><ele>158.0</ele><time>2026-04-18T08:58:46Z</time></trkpt><trkpt lat="43.74953479500153" lon="12.987477977839536"><ele>157.0</ele><time>2026-04-18T08:58:47Z</time></trkpt><trkpt lat="43.749417991821865" lon="12.987300912100826"><ele>156.0</ele><time>2026-04-18T08:58:48Z</time></trkpt><trkpt lat="43.74931166380056" lon="12.98711993678907"><ele>155.0</ele><time>2026-04-18T08:58:49Z</time></trkpt><trkpt lat="43.749210165606016" lon="12.986935492733817"><ele>155.0</ele><time>2026-04-18T08:58:50Z</time></trkpt><trkpt lat="43.74910325402268" lon="12.986747777700154"><ele>155.0</ele><time>2026-04-18T08:58:51Z</time></trkpt><trkpt lat="43.748992738816426" lon="12.986563993718432"><ele>155.0</ele><time>2026-04-18T08:58:52Z</time></trkpt><trkpt lat="43.74890114059319" lon="12.986362246404658"><ele>155.0</ele><time>2026-04-18T08:58:53Z</time></trkpt><trkpt lat="43.748800905345526" lon="12.986179241672877"><ele>155.0</ele><time>2026-04-18T08:58:54Z</time></trkpt><trkpt lat="43.74869707130623" lon="12.985989666441684"><ele>155.0</ele><time>2026-04-18T08:58:55Z</time></trkpt><trkpt lat="43.748592314047514" lon="12.985800688572159"><ele>158.0</ele><time>2026-04-18T08:58:56Z</time></trkpt><trkpt lat="43.74847533589888" lon="12.98562457623746"><ele>161.0</ele><time>2026-04-18T08:58:57Z</time></trkpt><trkpt lat="43.74836801712943" lon="12.98543474915376"><ele>164.0</ele><time>2026-04-18T08:58:58Z</time></trkpt><trkpt lat="43.7482521094821" lon="12.985253927350678"><ele>164.0</ele><time>2026-04-18T08:58:59Z</time></trkpt><trkpt lat="43.7481455591844" lon="12.985064712778092"><ele>164.0</ele><time>2026-04-18T08:59:00Z</time></trkpt><trkpt lat="43.74802830518157" lon="12.984893783444692"><ele>164.0</ele><time>2026-04-18T08:59:01Z</time></trkpt><trkpt lat="43.74791128004348" lon="12.98473601037138"><ele>162.75</ele><time>2026-04-18T08:59:02Z</time></trkpt><trkpt lat="43.74779496797044" lon="12.984608514107094"><ele>161.5</ele><time>2026-04-18T08:59:03Z</time></trkpt><trkpt lat="43.74770817586991" lon="12.984471920183067"><ele>160.25</ele><time>2026-04-18T08:59:04Z</time></trkpt><trkpt lat="43.74763404268577" lon="12.984361004583567"><ele>159.0</ele><time>2026-04-18T08:59:05Z</time></trkpt><trkpt lat="43.74757265077709" lon="12.984274825357586"><ele>159.0</ele><time>2026-04-18T08:59:06Z</time></trkpt><trkpt lat="43.747506102861685" lon="12.984187613688656"><ele>159.0</ele><time>2026-04-18T08:59:08Z</time></trkpt><trkpt lat="43.747440137276584" lon="12.984110034183637"><ele>159.0</ele><time>2026-04-18T08:59:11Z</time></trkpt><trkpt lat="43.74735035015834" lon="12.983967952250174"><ele>159.0</ele><time>2026-04-18T09:01:59Z</time></trkpt><trkpt lat="43.747271038510235" lon="12.983872805757596"><ele>159.0</ele><time>2026-04-18T09:02:01Z</time></trkpt><trkpt lat="43.747170934937245" lon="12.983743474479514"><ele>159.2</ele><time>2026-04-18T09:02:03Z</time></trkpt><trkpt lat="43.74710901029175" lon="12.983672892059525"><ele>159.4</ele><time>2026-04-18T09:02:03.999Z</time></trkpt><trkpt lat="43.7470419105057" lon="12.983593027517161"><ele>159.6</ele><time>2026-04-18T09:02:04.999Z</time></trkpt><trkpt lat="43.746969551656726" lon="12.983499283419116"><ele>159.8</ele><time>2026-04-18T09:02:05.999Z</time></trkpt><trkpt lat="43.746895772073955" lon="12.98338171029451"><ele>160.0</ele><time>2026-04-18T09:02:06.999Z</time></trkpt><trkpt lat="43.7468169029677" lon="12.983259136961196"><ele>160.0</ele><time>2026-04-18T09:02:07.999Z</time></trkpt><trkpt lat="43.74674143548684" lon="12.9831394939854"><ele>160.0</ele><time>2026-04-18T09:02:08.999Z</time></trkpt><trkpt lat="43.74668040045383" lon="12.983007685949778"><ele>160.0</ele><time>2026-04-18T09:02:09.999Z</time></trkpt><trkpt lat="43.746617070009165" lon="12.982883064206886"><ele>160.0</ele><time>2026-04-18T09:02:10.999Z</time></trkpt><trkpt lat="43.7465443927038" lon="12.982757354079297"><ele>160.0</ele><time>2026-04-18T09:02:11.999Z</time></trkpt><trkpt lat="43.746467984483935" lon="12.982622510436855"><ele>160.0</ele><time>2026-04-18T09:02:12.999Z</time></trkpt><trkpt lat="43.74639074918138" lon="12.982477573348497"><ele>160.0</ele><time>2026-04-18T09:02:13.999Z</time></trkpt><trkpt lat="43.746304763257776" lon="12.982329831372047"><ele>160.0</ele><time>2026-04-18T09:02:14.999Z</time></trkpt><trkpt lat="43.746221386065876" lon="12.982179202882064"><ele>160.25</ele><time>2026-04-18T09:02:15.999Z</time></trkpt><trkpt lat="43.74614148861714" lon="12.982027639595684"><ele>160.5</ele><time>2026-04-18T09:02:16.999Z</time></trkpt><trkpt lat="43.74605892076053" lon="12.981879520997778"><ele>160.75</ele><time>2026-04-18T09:02:17.999Z</time></trkpt><trkpt lat="43.74598867322782" lon="12.981725742103496"><ele>161.0</ele><time>2026-04-18T09:02:18.999Z</time></trkpt><trkpt lat="43.74590445975194" lon="12.981587536977399"><ele>161.0</ele><time>2026-04-18T09:02:19.999Z</time></trkpt><trkpt lat="43.74582918478149" lon="12.981441055498856"><ele>161.0</ele><time>2026-04-18T09:02:20.999Z</time></trkpt><trkpt lat="43.74575872526378" lon="12.981301760823984"><ele>161.0</ele><time>2026-04-18T09:02:21.999Z</time></trkpt><trkpt lat="43.74568804845502" lon="12.981178122424492"><ele>161.0</ele><time>2026-04-18T09:02:22.999Z</time></trkpt><trkpt lat="43.74561489766421" lon="12.981065170728597"><ele>161.0</ele><time>2026-04-18T09:02:23.999Z</time></trkpt><trkpt lat="43.745555327704906" lon="12.980948553176281"><ele>161.0</ele><time>2026-04-18T09:02:24.999Z</time></trkpt><trkpt lat="43.74549055666332" lon="12.980839006236183"><ele>161.0</ele><time>2026-04-18T09:02:25.999Z</time></trkpt><trkpt lat="43.74542525011547" lon="12.980720011042054"><ele>161.0</ele><time>2026-04-18T09:02:26.999Z</time></trkpt><trkpt lat="43.74537302476258" lon="12.98061442015644"><ele>161.0</ele><time>2026-04-18T09:02:27.999Z</time></trkpt><trkpt lat="43.7453312888479" lon="12.980536138474658"><ele>160.60000000000002</ele><time>2026-04-18T09:02:28.999Z</time></trkpt><trkpt lat="43.74525901035635" lon="12.980414629994307"><ele>160.20000000000002</ele><time>2026-04-18T09:02:30.999Z</time></trkpt><trkpt lat="43.745210218886655" lon="12.98029824846253"><ele>159.8</ele><time>2026-04-18T09:02:32.999Z</time></trkpt><trkpt lat="43.74515956720797" lon="12.980206217293704"><ele>159.4</ele><time>2026-04-18T09:02:34.999Z</time></trkpt><trkpt lat="43.74511501601513" lon="12.98012509477042"><ele>159.0</ele><time>2026-04-18T09:02:36.999Z</time></trkpt><trkpt lat="43.745054403983595" lon="12.980014727340729"><ele>158.83333333333334</ele><time>2026-04-18T09:02:38.999Z</time></trkpt><trkpt lat="43.74501497697596" lon="12.979942935358164"><ele>158.66666666666666</ele><time>2026-04-18T09:02:39.999Z</time></trkpt><trkpt lat="43.744972291845336" lon="12.979864604626822"><ele>158.5</ele><time>2026-04-18T09:02:40.999Z</time></trkpt><trkpt lat="43.744922814097244" lon="12.979770556838833"><ele>158.33333333333331</ele><time>2026-04-18T09:02:41.999Z</time></trkpt><trkpt lat="43.744869371461355" lon="12.979666684473623"><ele>158.16666666666666</ele><time>2026-04-18T09:02:42.999Z</time></trkpt><trkpt lat="43.7448153968403" lon="12.97955331528751"><ele>158.0</ele><time>2026-04-18T09:02:43.999Z</time></trkpt><trkpt lat="43.74475349879577" lon="12.97942261294684"><ele>158.0</ele><time>2026-04-18T09:02:44.999Z</time></trkpt><trkpt lat="43.74468826707806" lon="12.979278529821457"><ele>158.0</ele><time>2026-04-18T09:02:45.999Z</time></trkpt><trkpt lat="43.74462401856115" lon="12.979131197841435"><ele>158.0</ele><time>2026-04-18T09:02:46.999Z</time></trkpt><trkpt lat="43.74455783640443" lon="12.97897428717658"><ele>158.0</ele><time>2026-04-18T09:02:47.999Z</time></trkpt><trkpt lat="43.74449382548396" lon="12.97881589986682"><ele>158.0</ele><time>2026-04-18T09:02:48.999Z</time></trkpt><trkpt lat="43.74443325194444" lon="12.978659659804487"><ele>158.0</ele><time>2026-04-18T09:02:49.999Z</time></trkpt><trkpt lat="43.74436981757451" lon="12.978496063377357"><ele>158.0</ele><time>2026-04-18T09:02:50.999Z</time></trkpt><trkpt lat="43.74430535666889" lon="12.978329868396262"><ele>158.0</ele><time>2026-04-18T09:02:51.999Z</time></trkpt><trkpt lat="43.74422643888384" lon="12.978173591429723"><ele>158.0</ele><time>2026-04-18T09:02:52.999Z</time></trkpt><trkpt lat="43.74416173481269" lon="12.978002916052136"><ele>158.0</ele><time>2026-04-18T09:02:53.999Z</time></trkpt><trkpt lat="43.74410440042405" lon="12.977842026509919"><ele>158.0</ele><time>2026-04-18T09:02:54.999Z</time></trkpt><trkpt lat="43.74404025721565" lon="12.977687975136547"><ele>158.0</ele><time>2026-04-18T09:02:55.999Z</time></trkpt><trkpt lat="43.74398365861674" lon="12.977534013238957"><ele>158.5</ele><time>2026-04-18T09:02:56.999Z</time></trkpt><trkpt lat="43.7439230418195" lon="12.977382849630306"><ele>159.0</ele><time>2026-04-18T09:02:57.999Z</time></trkpt><trkpt lat="43.743862176207365" lon="12.977234138212047"><ele>159.5</ele><time>2026-04-18T09:02:58.999Z</time></trkpt><trkpt lat="43.743820501667415" lon="12.977078831235604"><ele>160.0</ele><time>2026-04-18T09:02:59.999Z</time></trkpt><trkpt lat="43.743749654779585" lon="12.976944267796922"><ele>160.0</ele><time>2026-04-18T09:03:00.999Z</time></trkpt><trkpt lat="43.743702448123564" lon="12.976799482065099"><ele>160.0</ele><time>2026-04-18T09:03:01.999Z</time></trkpt><trkpt lat="43.743651358459736" lon="12.976660862587398"><ele>160.0</ele><time>2026-04-18T09:03:02.999Z</time></trkpt><trkpt lat="43.74359886784562" lon="12.976532744026361"><ele>160.0</ele><time>2026-04-18T09:03:03.999Z</time></trkpt><trkpt lat="43.743554303793935" lon="12.976417581898952"><ele>160.0</ele><time>2026-04-18T09:03:04.999Z</time></trkpt><trkpt lat="43.74351535384493" lon="12.976321805026286"><ele>161.2</ele><time>2026-04-18T09:03:05.999Z</time></trkpt><trkpt lat="43.743479437570684" lon="12.97623214362986"><ele>162.4</ele><time>2026-04-18T09:03:06.999Z</time></trkpt><trkpt lat="43.743422063040235" lon="12.976076512813107"><ele>163.60000000000002</ele><time>2026-04-18T09:03:08.999Z</time></trkpt><trkpt lat="43.74338872817864" lon="12.975978401067886"><ele>164.8</ele><time>2026-04-18T09:03:10.999Z</time></trkpt><trkpt lat="43.7433484501413" lon="12.975847792816285"><ele>166.0</ele><time>2026-04-18T09:04:13.999Z</time></trkpt><trkpt lat="43.74331141479365" lon="12.975764884926717"><ele>166.4</ele><time>2026-04-18T09:04:14.999Z</time></trkpt><trkpt lat="43.7432702776572" lon="12.975676897380964"><ele>166.8</ele><time>2026-04-18T09:04:15.999Z</time></trkpt><trkpt lat="43.743225091986474" lon="12.975578880656856"><ele>167.20000000000002</ele><time>2026-04-18T09:04:16.999Z</time></trkpt><trkpt lat="43.74317510450689" lon="12.975468460416002"><ele>167.60000000000002</ele><time>2026-04-18T09:04:17.999Z</time></trkpt><trkpt lat="43.743141450108766" lon="12.975339566295009"><ele>168.0</ele><time>2026-04-18T09:04:18.999Z</time></trkpt><trkpt lat="43.7430913649019" lon="12.975213063325075"><ele>168.0</ele><time>2026-04-18T09:04:19.999Z</time></trkpt><trkpt lat="43.743040113323275" lon="12.975083909198576"><ele>168.0</ele><time>2026-04-18T09:04:20.999Z</time></trkpt><trkpt lat="43.7429848825204" lon="12.974944727433577"><ele>168.0</ele><time>2026-04-18T09:04:21.999Z</time></trkpt><trkpt lat="43.74292887512077" lon="12.974802861899114"><ele>168.0</ele><time>2026-04-18T09:04:22.999Z</time></trkpt><trkpt lat="43.74287191129864" lon="12.974656634578777"><ele>168.5</ele><time>2026-04-18T09:04:23.999Z</time></trkpt><trkpt lat="43.74281459549711" lon="12.974509503201968"><ele>169.0</ele><time>2026-04-18T09:04:24.999Z</time></trkpt><trkpt lat="43.74275617573289" lon="12.974360236217171"><ele>169.5</ele><time>2026-04-18T09:04:25.999Z</time></trkpt><trkpt lat="43.74269611545112" lon="12.974209355397631"><ele>170.0</ele><time>2026-04-18T09:04:26.999Z</time></trkpt><trkpt lat="43.74263302767143" lon="12.974058139139794"><ele>172.75</ele><time>2026-04-18T09:04:27.999Z</time></trkpt><trkpt lat="43.74256721333906" lon="12.973906708782799"><ele>175.5</ele><time>2026-04-18T09:04:28.999Z</time></trkpt><trkpt lat="43.742499496922484" lon="12.973763891921967"><ele>178.25</ele><time>2026-04-18T09:04:29.999Z</time></trkpt><trkpt lat="43.742426303973026" lon="12.973622938960236"><ele>181.0</ele><time>2026-04-18T09:04:30.999Z</time></trkpt><trkpt lat="43.74234144389465" lon="12.973485006675237"><ele>182.25</ele><time>2026-04-18T09:04:31.999Z</time></trkpt><trkpt lat="43.74225178424069" lon="12.973348537562964"><ele>183.5</ele><time>2026-04-18T09:04:32.999Z</time></trkpt><trkpt lat="43.74215536781946" lon="12.973207851728827"><ele>184.75</ele><time>2026-04-18T09:04:33.999Z</time></trkpt><trkpt lat="43.74205897023497" lon="12.973068412244986"><ele>186.0</ele><time>2026-04-18T09:04:34.999Z</time></trkpt><trkpt lat="43.74195857365817" lon="12.972923965060943"><ele>184.75</ele><time>2026-04-18T09:04:35.999Z</time></trkpt><trkpt lat="43.74185572875171" lon="12.972778745900365"><ele>183.5</ele><time>2026-04-18T09:04:36.999Z</time></trkpt><trkpt lat="43.7417549957769" lon="12.972638408506599"><ele>182.25</ele><time>2026-04-18T09:04:37.999Z</time></trkpt><trkpt lat="43.741659710639475" lon="12.972499102366541"><ele>181.0</ele><time>2026-04-18T09:04:38.999Z</time></trkpt><trkpt lat="43.74155768807452" lon="12.972365916738651"><ele>183.75</ele><time>2026-04-18T09:04:39.999Z</time></trkpt><trkpt lat="43.74147494646384" lon="12.972212385430785"><ele>186.5</ele><time>2026-04-18T09:04:40.999Z</time></trkpt><trkpt lat="43.74140077441152" lon="12.972057394144507"><ele>189.25</ele><time>2026-04-18T09:04:41.999Z</time></trkpt><trkpt lat="43.741336480715546" lon="12.971892503940946"><ele>192.0</ele><time>2026-04-18T09:04:42.999Z</time></trkpt><trkpt lat="43.74127399641588" lon="12.971725257614194"><ele>191.25</ele><time>2026-04-18T09:04:43.999Z</time></trkpt><trkpt lat="43.741204607714835" lon="12.971562610266911"><ele>190.5</ele><time>2026-04-18T09:04:44.999Z</time></trkpt><trkpt lat="43.74112952952422" lon="12.971433259488485"><ele>189.75</ele><time>2026-04-18T09:04:45.999Z</time></trkpt><trkpt lat="43.74104556468482" lon="12.971306245682333"><ele>189.0</ele><time>2026-04-18T09:04:46.999Z</time></trkpt><trkpt lat="43.74094032130171" lon="12.97118773825946"><ele>189.0</ele><time>2026-04-18T09:04:47.999Z</time></trkpt><trkpt lat="43.74083131426528" lon="12.97108004182778"><ele>189.0</ele><time>2026-04-18T09:04:48.999Z</time></trkpt><trkpt lat="43.74072727400225" lon="12.970974942117975"><ele>189.0</ele><time>2026-04-18T09:04:49.999Z</time></trkpt><trkpt lat="43.74063452364884" lon="12.970871941957535"><ele>189.0</ele><time>2026-04-18T09:04:50.999Z</time></trkpt><trkpt lat="43.74054132030158" lon="12.97077319897983"><ele>190.5</ele><time>2026-04-18T09:04:51.999Z</time></trkpt><trkpt lat="43.74045806937227" lon="12.970683250010648"><ele>192.0</ele><time>2026-04-18T09:04:52.999Z</time></trkpt><trkpt lat="43.7403950585287" lon="12.970593083011446"><ele>193.5</ele><time>2026-04-18T09:04:53.999Z</time></trkpt><trkpt lat="43.74035285377917" lon="12.970496225442197"><ele>195.0</ele><time>2026-04-18T09:04:54.999Z</time></trkpt><trkpt lat="43.740336662687874" lon="12.970399711674506"><ele>196.5</ele><time>2026-04-18T09:04:55.999Z</time></trkpt><trkpt lat="43.74032440489105" lon="12.970308481578137"><ele>198.0</ele><time>2026-04-18T09:04:56.999Z</time></trkpt><trkpt lat="43.740273972727515" lon="12.970214923134751"><ele>198.0</ele><time>2026-04-18T09:04:58.999Z</time></trkpt><trkpt lat="43.74019710414885" lon="12.970267290128833"><ele>198.0</ele><time>2026-04-18T09:04:59.999Z</time></trkpt><trkpt lat="43.74016084702058" lon="12.970383018185805"><ele>198.0</ele><time>2026-04-18T09:05:01.999Z</time></trkpt><trkpt lat="43.74024630432073" lon="12.970511719868862"><ele>198.0</ele><time>2026-04-18T09:05:03.999Z</time></trkpt><trkpt lat="43.74033464661703" lon="12.970519950566649"><ele>198.0</ele><time>2026-04-18T09:05:04.999Z</time></trkpt><trkpt lat="43.740392265045465" lon="12.970660453219953"><ele>198.0</ele><time>2026-04-18T09:05:05.999Z</time></trkpt><trkpt lat="43.74047849613883" lon="12.970751120736141"><ele>198.0</ele><time>2026-04-18T09:05:06.999Z</time></trkpt><trkpt lat="43.74056906039004" lon="12.970850119732017"><ele>198.0</ele><time>2026-04-18T09:05:07.999Z</time></trkpt><trkpt lat="43.74066758280519" lon="12.970954429951874"><ele>198.0</ele><time>2026-04-18T09:05:08.999Z</time></trkpt><trkpt lat="43.74077563897106" lon="12.971057229937264"><ele>198.75</ele><time>2026-04-18T09:05:09.999Z</time></trkpt><trkpt lat="43.740882707867335" lon="12.971170438127448"><ele>199.5</ele><time>2026-04-18T09:05:10.999Z</time></trkpt><trkpt lat="43.74098544721377" lon="12.971292980339259"><ele>200.25</ele><time>2026-04-18T09:05:11.999Z</time></trkpt><trkpt lat="43.741078933511346" lon="12.971423421803422"><ele>201.0</ele><time>2026-04-18T09:05:12.999Z</time></trkpt><trkpt lat="43.74116290503539" lon="12.971573431410931"><ele>198.75</ele><time>2026-04-18T09:05:13.999Z</time></trkpt><trkpt lat="43.741239390479635" lon="12.971745878005763"><ele>196.5</ele><time>2026-04-18T09:05:14.999Z</time></trkpt><trkpt lat="43.74131446184339" lon="12.971923588614008"><ele>194.25</ele><time>2026-04-18T09:05:15.999Z</time></trkpt><trkpt lat="43.74139365472304" lon="12.972103550711687"><ele>192.0</ele><time>2026-04-18T09:05:16.999Z</time></trkpt><trkpt lat="43.74148176073479" lon="12.972281785081764"><ele>192.0</ele><time>2026-04-18T09:05:17.999Z</time></trkpt><trkpt lat="43.74157875351415" lon="12.972458135526846"><ele>192.0</ele><time>2026-04-18T09:05:18.999Z</time></trkpt><trkpt lat="43.74168872907571" lon="12.972626631234231"><ele>192.0</ele><time>2026-04-18T09:05:19.999Z</time></trkpt><trkpt lat="43.74181373484975" lon="12.972796439762648"><ele>190.0</ele><time>2026-04-18T09:05:20.999Z</time></trkpt><trkpt lat="43.74193461835536" lon="12.97296717582954"><ele>188.0</ele><time>2026-04-18T09:05:21.999Z</time></trkpt><trkpt lat="43.74205152315739" lon="12.97313901525623"><ele>186.0</ele><time>2026-04-18T09:05:22.999Z</time></trkpt><trkpt lat="43.7421704824803" lon="12.973301635809966"><ele>184.33333333333334</ele><time>2026-04-18T09:05:23.999Z</time></trkpt><trkpt lat="43.742286720834024" lon="12.973471864612296"><ele>182.66666666666669</ele><time>2026-04-18T09:05:24.999Z</time></trkpt><trkpt lat="43.742392312855955" lon="12.973654526225689"><ele>181.0</ele><time>2026-04-18T09:05:25.999Z</time></trkpt><trkpt lat="43.74248979077812" lon="12.973843486211345"><ele>181.0</ele><time>2026-04-18T09:05:27Z</time></trkpt><trkpt lat="43.742582233063864" lon="12.974039935838684"><ele>181.0</ele><time>2026-04-18T09:05:28Z</time></trkpt><trkpt lat="43.742670249026965" lon="12.974247699556742"><ele>181.0</ele><time>2026-04-18T09:05:29Z</time></trkpt><trkpt lat="43.74275464331996" lon="12.97446424054559"><ele>177.33333333333334</ele><time>2026-04-18T09:05:30Z</time></trkpt><trkpt lat="43.74284229452406" lon="12.97468892777191"><ele>173.66666666666666</ele><time>2026-04-18T09:05:31Z</time></trkpt><trkpt lat="43.74293108071369" lon="12.974918253783484"><ele>170.0</ele><time>2026-04-18T09:05:32Z</time></trkpt><trkpt lat="43.74302046747422" lon="12.975149227266185"><ele>169.33333333333331</ele><time>2026-04-18T09:05:33Z</time></trkpt><trkpt lat="43.74310781290832" lon="12.97537907919669"><ele>168.66666666666666</ele><time>2026-04-18T09:05:34Z</time></trkpt><trkpt lat="43.74319895180057" lon="12.975614015148404"><ele>168.0</ele><time>2026-04-18T09:05:35Z</time></trkpt><trkpt lat="43.743292271588615" lon="12.975845613774466"><ele>167.33333333333334</ele><time>2026-04-18T09:05:36Z</time></trkpt><trkpt lat="43.74338100751427" lon="12.976077794168821"><ele>166.66666666666669</ele><time>2026-04-18T09:05:37Z</time></trkpt><trkpt lat="43.7434747298134" lon="12.976309519302646"><ele>166.0</ele><time>2026-04-18T09:05:38Z</time></trkpt><trkpt lat="43.74357326239878" lon="12.976549059797057"><ele>164.0</ele><time>2026-04-18T09:05:39Z</time></trkpt><trkpt lat="43.74366883269496" lon="12.976792276804424"><ele>162.0</ele><time>2026-04-18T09:05:40Z</time></trkpt><trkpt lat="43.743763069103395" lon="12.97703962270881"><ele>160.0</ele><time>2026-04-18T09:05:41Z</time></trkpt><trkpt lat="43.7438574025273" lon="12.977285559792787"><ele>159.33333333333334</ele><time>2026-04-18T09:05:42Z</time></trkpt><trkpt lat="43.74394967354297" lon="12.977527454367557"><ele>158.66666666666666</ele><time>2026-04-18T09:05:43Z</time></trkpt><trkpt lat="43.744042403441306" lon="12.977769906347493"><ele>158.0</ele><time>2026-04-18T09:05:44Z</time></trkpt><trkpt lat="43.74413593739227" lon="12.978012139944827"><ele>158.0</ele><time>2026-04-18T09:05:45Z</time></trkpt><trkpt lat="43.744230847281756" lon="12.978255376569603"><ele>158.0</ele><time>2026-04-18T09:05:46Z</time></trkpt><trkpt lat="43.744326594963695" lon="12.978499797314056"><ele>158.0</ele><time>2026-04-18T09:05:47Z</time></trkpt><trkpt lat="43.7444235500029" lon="12.978741927997664"><ele>158.0</ele><time>2026-04-18T09:05:48Z</time></trkpt><trkpt lat="43.744522531309" lon="12.97898125696189"><ele>158.0</ele><time>2026-04-18T09:05:49Z</time></trkpt><trkpt lat="43.74462352069653" lon="12.979215037392498"><ele>158.0</ele><time>2026-04-18T09:05:50Z</time></trkpt><trkpt lat="43.74472435532511" lon="12.97943937011719"><ele>158.0</ele><time>2026-04-18T09:05:51Z</time></trkpt><trkpt lat="43.74483318334423" lon="12.979655298063138"><ele>158.0</ele><time>2026-04-18T09:05:52Z</time></trkpt><trkpt lat="43.744944318761824" lon="12.979871373036184"><ele>158.0</ele><time>2026-04-18T09:05:53Z</time></trkpt><trkpt lat="43.74505578518242" lon="12.980081936871558"><ele>158.33333333333331</ele><time>2026-04-18T09:05:54Z</time></trkpt><trkpt lat="43.74516563032718" lon="12.980286703538779"><ele>158.66666666666666</ele><time>2026-04-18T09:05:55Z</time></trkpt><trkpt lat="43.745276637578975" lon="12.980491057608535"><ele>159.0</ele><time>2026-04-18T09:05:56Z</time></trkpt><trkpt lat="43.74538400948788" lon="12.98069668156636"><ele>159.66666666666666</ele><time>2026-04-18T09:05:57Z</time></trkpt><trkpt lat="43.74549233892548" lon="12.980902537201619"><ele>160.33333333333331</ele><time>2026-04-18T09:05:58Z</time></trkpt><trkpt lat="43.74560774435249" lon="12.981111630348288"><ele>161.0</ele><time>2026-04-18T09:05:59Z</time></trkpt><trkpt lat="43.74572168290512" lon="12.98131816545186"><ele>161.0</ele><time>2026-04-18T09:06:00Z</time></trkpt><trkpt lat="43.74583707749919" lon="12.98153114959683"><ele>161.0</ele><time>2026-04-18T09:06:01Z</time></trkpt><trkpt lat="43.74595604582613" lon="12.981741182439904"><ele>161.0</ele><time>2026-04-18T09:06:02Z</time></trkpt><trkpt lat="43.74607040384233" lon="12.981951596233923"><ele>161.33333333333331</ele><time>2026-04-18T09:06:03Z</time></trkpt><trkpt lat="43.74618201585095" lon="12.982158755788559"><ele>161.66666666666666</ele><time>2026-04-18T09:06:04Z</time></trkpt><trkpt lat="43.74628980446668" lon="12.982366521949054"><ele>162.0</ele><time>2026-04-18T09:06:05Z</time></trkpt><trkpt lat="43.7463998705572" lon="12.982569337354567"><ele>161.33333333333334</ele><time>2026-04-18T09:06:06Z</time></trkpt><trkpt lat="43.746509640227416" lon="12.982768925466992"><ele>160.66666666666669</ele><time>2026-04-18T09:06:07Z</time></trkpt><trkpt lat="43.74661841491674" lon="12.982968690348157"><ele>160.0</ele><time>2026-04-18T09:06:08Z</time></trkpt><trkpt lat="43.74672349455601" lon="12.983165293189064"><ele>160.66666666666669</ele><time>2026-04-18T09:06:09Z</time></trkpt><trkpt lat="43.74683372749127" lon="12.983359100645895"><ele>161.33333333333334</ele><time>2026-04-18T09:06:10Z</time></trkpt><trkpt lat="43.74695149711645" lon="12.983543352513603"><ele>162.0</ele><time>2026-04-18T09:06:11Z</time></trkpt><trkpt lat="43.747074929375344" lon="12.983712542487948"><ele>162.0</ele><time>2026-04-18T09:06:12Z</time></trkpt><trkpt lat="43.74720236065863" lon="12.983878267823652"><ele>162.0</ele><time>2026-04-18T09:06:13Z</time></trkpt><trkpt lat="43.74733445562682" lon="12.984048743745507"><ele>162.0</ele><time>2026-04-18T09:06:14Z</time></trkpt><trkpt lat="43.747467584466925" lon="12.984215630187617"><ele>161.0</ele><time>2026-04-18T09:06:15Z</time></trkpt><trkpt lat="43.74760669363207" lon="12.98439590536723"><ele>160.0</ele><time>2026-04-18T09:06:16Z</time></trkpt><trkpt lat="43.747742457208126" lon="12.984570439937269"><ele>159.0</ele><time>2026-04-18T09:06:17Z</time></trkpt><trkpt lat="43.7478751424623" lon="12.984746358763559"><ele>159.0</ele><time>2026-04-18T09:06:18Z</time></trkpt><trkpt lat="43.74800843915762" lon="12.984931647451434"><ele>159.0</ele><time>2026-04-18T09:06:19Z</time></trkpt><trkpt lat="43.74813560865668" lon="12.985119305205574"><ele>159.0</ele><time>2026-04-18T09:06:20Z</time></trkpt><trkpt lat="43.7482619912229" lon="12.985328058531454"><ele>159.33333333333334</ele><time>2026-04-18T09:06:21Z</time></trkpt><trkpt lat="43.74838904109254" lon="12.98554191700396"><ele>159.66666666666669</ele><time>2026-04-18T09:06:22Z</time></trkpt><trkpt lat="43.74851714648544" lon="12.985762320250533"><ele>160.0</ele><time>2026-04-18T09:06:23Z</time></trkpt><trkpt lat="43.74864149263532" lon="12.985982806618889"><ele>160.0</ele><time>2026-04-18T09:06:24Z</time></trkpt><trkpt lat="43.74876174209538" lon="12.986202696812237"><ele>160.0</ele><time>2026-04-18T09:06:25Z</time></trkpt><trkpt lat="43.74888248942779" lon="12.986417711603474"><ele>160.0</ele><time>2026-04-18T09:06:26Z</time></trkpt><trkpt lat="43.74900117019671" lon="12.986636467986912"><ele>158.33333333333334</ele><time>2026-04-18T09:06:27Z</time></trkpt><trkpt lat="43.74912378016534" lon="12.986848140287117"><ele>156.66666666666666</ele><time>2026-04-18T09:06:28Z</time></trkpt><trkpt lat="43.749246453998516" lon="12.987063517639404"><ele>155.0</ele><time>2026-04-18T09:06:29Z</time></trkpt><trkpt lat="43.74937099370982" lon="12.98727198218446"><ele>156.0</ele><time>2026-04-18T09:06:30Z</time></trkpt><trkpt lat="43.749500971708166" lon="12.987473975268273"><ele>157.0</ele><time>2026-04-18T09:06:31Z</time></trkpt><trkpt lat="43.74964239595303" lon="12.987675459061558"><ele>158.0</ele><time>2026-04-18T09:06:32Z</time></trkpt><trkpt lat="43.749791550672754" lon="12.987864501435308"><ele>158.0</ele><time>2026-04-18T09:06:33Z</time></trkpt><trkpt lat="43.74994418984978" lon="12.988051993687538"><ele>158.0</ele><time>2026-04-18T09:06:34Z</time></trkpt><trkpt lat="43.75009960018925" lon="12.988230418465461"><ele>158.0</ele><time>2026-04-18T09:06:35Z</time></trkpt><trkpt lat="43.75025797251486" lon="12.988399020328448"><ele>158.0</ele><time>2026-04-18T09:06:36Z</time></trkpt><trkpt lat="43.75040807907195" lon="12.988553211539948"><ele>158.0</ele><time>2026-04-18T09:06:37Z</time></trkpt><trkpt lat="43.75055507757697" lon="12.988708863877708"><ele>158.0</ele><time>2026-04-18T09:06:38Z</time></trkpt><trkpt lat="43.75070718268144" lon="12.988873970721631"><ele>158.0</ele><time>2026-04-18T09:06:39Z</time></trkpt><trkpt lat="43.75086521339138" lon="12.989043470317274"><ele>158.0</ele><time>2026-04-18T09:06:40Z</time></trkpt><trkpt lat="43.751022740455944" lon="12.989208331921255"><ele>158.0</ele><time>2026-04-18T09:06:41Z</time></trkpt><trkpt lat="43.75117897904063" lon="12.989369079450936"><ele>157.66666666666666</ele><time>2026-04-18T09:06:42Z</time></trkpt><trkpt lat="43.75133465701669" lon="12.989532034476658"><ele>157.33333333333334</ele><time>2026-04-18T09:06:43Z</time></trkpt><trkpt lat="43.7514820766936" lon="12.989709034842372"><ele>157.0</ele><time>2026-04-18T09:06:44Z</time></trkpt><trkpt lat="43.7516204620153" lon="12.98990068674502"><ele>157.66666666666669</ele><time>2026-04-18T09:06:45Z</time></trkpt><trkpt lat="43.75173675194153" lon="12.990121349231753"><ele>158.33333333333334</ele><time>2026-04-18T09:06:46Z</time></trkpt><trkpt lat="43.751833373354636" lon="12.990368930560674"><ele>159.0</ele><time>2026-04-18T09:06:47Z</time></trkpt><trkpt lat="43.75191657642929" lon="12.990637580268263"><ele>159.33333333333334</ele><time>2026-04-18T09:06:48Z</time></trkpt><trkpt lat="43.7519927523625" lon="12.990910618962728"><ele>159.66666666666669</ele><time>2026-04-18T09:06:49Z</time></trkpt><trkpt lat="43.75207746460209" lon="12.991178462482813"><ele>160.0</ele><time>2026-04-18T09:06:50Z</time></trkpt><trkpt lat="43.7521498195542" lon="12.991445637539845"><ele>160.33333333333334</ele><time>2026-04-18T09:06:51Z</time></trkpt><trkpt lat="43.75221494932993" lon="12.99171248831504"><ele>160.66666666666666</ele><time>2026-04-18T09:06:52Z</time></trkpt><trkpt lat="43.7522767823648" lon="12.991974318752789"><ele>161.0</ele><time>2026-04-18T09:06:53Z</time></trkpt><trkpt lat="43.7523368407884" lon="12.992229399496756"><ele>161.0</ele><time>2026-04-18T09:06:54Z</time></trkpt><trkpt lat="43.75240356498207" lon="12.992482159594896"><ele>161.0</ele><time>2026-04-18T09:06:55Z</time></trkpt><trkpt lat="43.75247481392657" lon="12.992728175843814"><ele>161.0</ele><time>2026-04-18T09:06:56Z</time></trkpt><trkpt lat="43.752539697621366" lon="12.992976284541927"><ele>161.33333333333331</ele><time>2026-04-18T09:06:57Z</time></trkpt><trkpt lat="43.752604098073505" lon="12.993216521206485"><ele>161.66666666666666</ele><time>2026-04-18T09:06:58Z</time></trkpt><trkpt lat="43.75266548043897" lon="12.993453792681809"><ele>162.0</ele><time>2026-04-18T09:06:59Z</time></trkpt><trkpt lat="43.752720149128265" lon="12.993679277768981"><ele>165.0</ele><time>2026-04-18T09:07:00Z</time></trkpt><trkpt lat="43.75276349639469" lon="12.993906227293609"><ele>168.0</ele><time>2026-04-18T09:07:01Z</time></trkpt><trkpt lat="43.75279255408956" lon="12.994153987042276"><ele>171.0</ele><time>2026-04-18T09:07:01.999Z</time></trkpt><trkpt lat="43.752801842011394" lon="12.994406421019479"><ele>171.0</ele><time>2026-04-18T09:07:02.999Z</time></trkpt><trkpt lat="43.75280508228329" lon="12.994656264253544"><ele>171.0</ele><time>2026-04-18T09:07:03.999Z</time></trkpt><trkpt lat="43.75279940934377" lon="12.994917882102481"><ele>171.0</ele><time>2026-04-18T09:07:04.999Z</time></trkpt><trkpt lat="43.75280038942833" lon="12.995181474543061"><ele>170.0</ele><time>2026-04-18T09:07:05.999Z</time></trkpt><trkpt lat="43.75279729885477" lon="12.995425923070789"><ele>169.0</ele><time>2026-04-18T09:07:06.999Z</time></trkpt><trkpt lat="43.75279026179649" lon="12.99566898532719"><ele>168.0</ele><time>2026-04-18T09:07:07.999Z</time></trkpt><trkpt lat="43.75277282447549" lon="12.99591864416469"><ele>166.33333333333334</ele><time>2026-04-18T09:07:08.999Z</time></trkpt><trkpt lat="43.75274039200243" lon="12.996167120346241"><ele>164.66666666666669</ele><time>2026-04-18T09:07:09.999Z</time></trkpt><trkpt lat="43.752697815621865" lon="12.996416937763403"><ele>163.0</ele><time>2026-04-18T09:07:10.999Z</time></trkpt><trkpt lat="43.75264361518477" lon="12.996662211230559"><ele>160.33333333333334</ele><time>2026-04-18T09:07:11.999Z</time></trkpt><trkpt lat="43.75257562321439" lon="12.996901114463633"><ele>157.66666666666666</ele><time>2026-04-18T09:07:12.999Z</time></trkpt><trkpt lat="43.752490819262995" lon="12.997130746225727"><ele>155.0</ele><time>2026-04-18T09:07:13.999Z</time></trkpt><trkpt lat="43.75240525451605" lon="12.997365320894277"><ele>152.66666666666666</ele><time>2026-04-18T09:07:15Z</time></trkpt><trkpt lat="43.75231173188789" lon="12.997591946127113"><ele>150.33333333333334</ele><time>2026-04-18T09:07:16Z</time></trkpt><trkpt lat="43.75220558974773" lon="12.997810052238373"><ele>148.0</ele><time>2026-04-18T09:07:17Z</time></trkpt><trkpt lat="43.752085050179886" lon="12.998013510705286"><ele>148.0</ele><time>2026-04-18T09:07:18Z</time></trkpt><trkpt lat="43.75196626643572" lon="12.998214798525867"><ele>148.0</ele><time>2026-04-18T09:07:19Z</time></trkpt><trkpt lat="43.75184951764923" lon="12.998409834523471"><ele>148.0</ele><time>2026-04-18T09:07:20Z</time></trkpt><trkpt lat="43.75173514287957" lon="12.998602642275301"><ele>150.66666666666669</ele><time>2026-04-18T09:07:21Z</time></trkpt><trkpt lat="43.75162156041083" lon="12.998792033657857"><ele>153.33333333333334</ele><time>2026-04-18T09:07:22Z</time></trkpt><trkpt lat="43.751518459967706" lon="12.998971481320396"><ele>156.0</ele><time>2026-04-18T09:07:23Z</time></trkpt><trkpt lat="43.75141599511891" lon="12.999147416366565"><ele>155.0</ele><time>2026-04-18T09:07:24Z</time></trkpt><trkpt lat="43.751322802439304" lon="12.999336225144484"><ele>154.0</ele><time>2026-04-18T09:07:25Z</time></trkpt><trkpt lat="43.75123333903335" lon="12.999544224702666"><ele>153.0</ele><time>2026-04-18T09:07:26Z</time></trkpt><trkpt lat="43.75117015942775" lon="12.999761899390364"><ele>153.0</ele><time>2026-04-18T09:07:27Z</time></trkpt><trkpt lat="43.75110520584746" lon="12.999971270967555"><ele>153.0</ele><time>2026-04-18T09:07:28Z</time></trkpt><trkpt lat="43.751058022300825" lon="13.000177292018238"><ele>153.0</ele><time>2026-04-18T09:07:29Z</time></trkpt><trkpt lat="43.75100758586666" lon="13.000367770215997"><ele>155.33333333333334</ele><time>2026-04-18T09:07:30Z</time></trkpt><trkpt lat="43.750953245394456" lon="13.00056493053875"><ele>157.66666666666669</ele><time>2026-04-18T09:07:31Z</time></trkpt><trkpt lat="43.75089666857155" lon="13.000772177452083"><ele>160.0</ele><time>2026-04-18T09:07:32Z</time></trkpt><trkpt lat="43.75084078495816" lon="13.000988552622294"><ele>160.0</ele><time>2026-04-18T09:07:33Z</time></trkpt><trkpt lat="43.75078154633136" lon="13.001224140652548"><ele>160.0</ele><time>2026-04-18T09:07:34Z</time></trkpt><trkpt lat="43.75072158676185" lon="13.001473783305723"><ele>160.0</ele><time>2026-04-18T09:07:35Z</time></trkpt><trkpt lat="43.75065917855411" lon="13.001726698398722"><ele>158.33333333333334</ele><time>2026-04-18T09:07:36Z</time></trkpt><trkpt lat="43.750593569705075" lon="13.0019901254116"><ele>156.66666666666666</ele><time>2026-04-18T09:07:37Z</time></trkpt><trkpt lat="43.75052853774107" lon="13.002270943239559"><ele>155.0</ele><time>2026-04-18T09:07:38Z</time></trkpt><trkpt lat="43.75043993702434" lon="13.002561462948393"><ele>154.5</ele><time>2026-04-18T09:07:39Z</time></trkpt><trkpt lat="43.750377486733726" lon="13.002885089992585"><ele>154.0</ele><time>2026-04-18T09:07:40Z</time></trkpt><trkpt lat="43.750289268108716" lon="13.003205851962077"><ele>154.0</ele><time>2026-04-18T09:07:41Z</time></trkpt><trkpt lat="43.75020071051069" lon="13.003500659911982"><ele>154.0</ele><time>2026-04-18T09:07:42Z</time></trkpt><trkpt lat="43.75011943417131" lon="13.003799691646698"><ele>154.0</ele><time>2026-04-18T09:07:43Z</time></trkpt><trkpt lat="43.750044723731264" lon="13.004080038219573"><ele>154.0</ele><time>2026-04-18T09:07:44Z</time></trkpt><trkpt lat="43.74997293039237" lon="13.004344427215925"><ele>154.0</ele><time>2026-04-18T09:07:45Z</time></trkpt><trkpt lat="43.74991314080828" lon="13.004586126486632"><ele>156.0</ele><time>2026-04-18T09:07:46Z</time></trkpt><trkpt lat="43.74986549503319" lon="13.0048002698616"><ele>158.0</ele><time>2026-04-18T09:07:47Z</time></trkpt><trkpt lat="43.74983762309407" lon="13.005001776951985"><ele>160.0</ele><time>2026-04-18T09:07:48Z</time></trkpt><trkpt lat="43.74980847887868" lon="13.005205619819376"><ele>161.33333333333334</ele><time>2026-04-18T09:07:49Z</time></trkpt><trkpt lat="43.7498237529277" lon="13.005416123674557"><ele>162.66666666666666</ele><time>2026-04-18T09:07:50Z</time></trkpt><trkpt lat="43.74987428219667" lon="13.005627248234557"><ele>164.0</ele><time>2026-04-18T09:07:51Z</time></trkpt><trkpt lat="43.74994487558937" lon="13.005825963313358"><ele>162.66666666666666</ele><time>2026-04-18T09:07:52Z</time></trkpt><trkpt lat="43.75002999097835" lon="13.006031719915072"><ele>161.33333333333334</ele><time>2026-04-18T09:07:53Z</time></trkpt><trkpt lat="43.75011650380865" lon="13.00624930432942"><ele>160.0</ele><time>2026-04-18T09:07:54Z</time></trkpt><trkpt lat="43.75019466117921" lon="13.006472378270207"><ele>158.66666666666669</ele><time>2026-04-18T09:07:55Z</time></trkpt><trkpt lat="43.75026474847438" lon="13.006710238722112"><ele>157.33333333333334</ele><time>2026-04-18T09:07:56Z</time></trkpt><trkpt lat="43.75032501268873" lon="13.006931515443265"><ele>156.0</ele><time>2026-04-18T09:07:57Z</time></trkpt><trkpt lat="43.750351291829325" lon="13.007164253240852"><ele>156.0</ele><time>2026-04-18T09:07:58Z</time></trkpt><trkpt lat="43.75033282159242" lon="13.007410617351269"><ele>156.0</ele><time>2026-04-18T09:07:59Z</time></trkpt><trkpt lat="43.750317750863914" lon="13.007675513008964"><ele>156.0</ele><time>2026-04-18T09:08:00Z</time></trkpt><trkpt lat="43.75030179163902" lon="13.007945091425716"><ele>156.0</ele><time>2026-04-18T09:08:01Z</time></trkpt><trkpt lat="43.75029678653565" lon="13.008192188464735"><ele>156.0</ele><time>2026-04-18T09:08:02Z</time></trkpt><trkpt lat="43.75028403881228" lon="13.00843005148172"><ele>156.0</ele><time>2026-04-18T09:08:03Z</time></trkpt><trkpt lat="43.75027136717077" lon="13.00866189070905"><ele>156.0</ele><time>2026-04-18T09:08:04Z</time></trkpt><trkpt lat="43.7502585420749" lon="13.00888742749246"><ele>156.0</ele><time>2026-04-18T09:08:05Z</time></trkpt><trkpt lat="43.75025560030291" lon="13.009117185359997"><ele>156.0</ele><time>2026-04-18T09:08:06Z</time></trkpt><trkpt lat="43.75026851175751" lon="13.009342197686902"><ele>157.0</ele><time>2026-04-18T09:08:07Z</time></trkpt><trkpt lat="43.75030446640501" lon="13.009542942007492"><ele>158.0</ele><time>2026-04-18T09:08:08Z</time></trkpt><trkpt lat="43.75035391200337" lon="13.0097310625108"><ele>159.0</ele><time>2026-04-18T09:08:09Z</time></trkpt><trkpt lat="43.750424775463166" lon="13.009903955985424"><ele>160.0</ele><time>2026-04-18T09:08:10Z</time></trkpt><trkpt lat="43.75048935441528" lon="13.010081870944386"><ele>160.0</ele><time>2026-04-18T09:08:11Z</time></trkpt><trkpt lat="43.75056574444405" lon="13.0102423760056"><ele>160.0</ele><time>2026-04-18T09:08:12Z</time></trkpt><trkpt lat="43.75063988491694" lon="13.010398695859783"><ele>160.0</ele><time>2026-04-18T09:08:13Z</time></trkpt><trkpt lat="43.7507110933847" lon="13.01054873134932"><ele>160.0</ele><time>2026-04-18T09:08:14Z</time></trkpt><trkpt lat="43.75079099320615" lon="13.010686707466492"><ele>159.75</ele><time>2026-04-18T09:08:15Z</time></trkpt><trkpt lat="43.750858430676985" lon="13.010834381287033"><ele>159.5</ele><time>2026-04-18T09:08:16Z</time></trkpt><trkpt lat="43.75092748774031" lon="13.010974022303271"><ele>159.25</ele><time>2026-04-18T09:08:17Z</time></trkpt><trkpt lat="43.751003382682356" lon="13.011101685622778"><ele>159.0</ele><time>2026-04-18T09:08:18Z</time></trkpt><trkpt lat="43.75107864380774" lon="13.01122918291453"><ele>157.75</ele><time>2026-04-18T09:08:19Z</time></trkpt><trkpt lat="43.75116578358303" lon="13.011331753796028"><ele>156.5</ele><time>2026-04-18T09:08:20Z</time></trkpt><trkpt lat="43.751262182016454" lon="13.011428961158426"><ele>155.25</ele><time>2026-04-18T09:08:21Z</time></trkpt><trkpt lat="43.75137077307329" lon="13.011525938825748"><ele>154.0</ele><time>2026-04-18T09:08:22Z</time></trkpt><trkpt lat="43.75148044244563" lon="13.011617247490834"><ele>155.25</ele><time>2026-04-18T09:08:23Z</time></trkpt><trkpt lat="43.75158949738678" lon="13.011706523964197"><ele>156.5</ele><time>2026-04-18T09:08:24Z</time></trkpt><trkpt lat="43.751702526569204" lon="13.011799053880543"><ele>157.75</ele><time>2026-04-18T09:08:25Z</time></trkpt><trkpt lat="43.75181632916005" lon="13.011885417043885"><ele>159.0</ele><time>2026-04-18T09:08:26Z</time></trkpt><trkpt lat="43.75193699135253" lon="13.011986999422577"><ele>159.0</ele><time>2026-04-18T09:08:27Z</time></trkpt><trkpt lat="43.752045882453324" lon="13.012105521873627"><ele>159.0</ele><time>2026-04-18T09:08:28Z</time></trkpt><trkpt lat="43.752141256784334" lon="13.012231624769747"><ele>159.0</ele><time>2026-04-18T09:08:29Z</time></trkpt><trkpt lat="43.7522218851656" lon="13.012366467367514"><ele>159.0</ele><time>2026-04-18T09:08:30Z</time></trkpt><trkpt lat="43.7522836078075" lon="13.01249932385323"><ele>159.0</ele><time>2026-04-18T09:08:31Z</time></trkpt><trkpt lat="43.75235170419184" lon="13.012616675624313"><ele>159.0</ele><time>2026-04-18T09:08:32Z</time></trkpt><trkpt lat="43.75241564960803" lon="13.012732774589155"><ele>159.0</ele><time>2026-04-18T09:08:33Z</time></trkpt><trkpt lat="43.75247690661227" lon="13.012850590348538"><ele>159.0</ele><time>2026-04-18T09:08:34Z</time></trkpt><trkpt lat="43.75253650157878" lon="13.012958217015726"><ele>159.0</ele><time>2026-04-18T09:08:35Z</time></trkpt><trkpt lat="43.7525864820393" lon="13.013076252717964"><ele>159.0</ele><time>2026-04-18T09:08:36Z</time></trkpt><trkpt lat="43.75264692013593" lon="13.013165964101757"><ele>159.0</ele><time>2026-04-18T09:08:37Z</time></trkpt><trkpt lat="43.752706841585685" lon="13.01325176550428"><ele>159.0</ele><time>2026-04-18T09:08:38Z</time></trkpt><trkpt lat="43.75276743813161" lon="13.013337681461925"><ele>159.0</ele><time>2026-04-18T09:08:39Z</time></trkpt><trkpt lat="43.75282671806049" lon="13.013421197368928"><ele>159.0</ele><time>2026-04-18T09:08:40Z</time></trkpt><trkpt lat="43.752888358795715" lon="13.01350591242201"><ele>159.0</ele><time>2026-04-18T09:08:41Z</time></trkpt><trkpt lat="43.75295130084605" lon="13.013592267284652"><ele>158.8</ele><time>2026-04-18T09:08:42Z</time></trkpt><trkpt lat="43.75301642826699" lon="13.01367983313507"><ele>158.60000000000002</ele><time>2026-04-18T09:08:43Z</time></trkpt><trkpt lat="43.75308553488788" lon="13.013772749132698"><ele>158.4</ele><time>2026-04-18T09:08:44Z</time></trkpt><trkpt lat="43.75315560529865" lon="13.013866960965919"><ele>158.20000000000002</ele><time>2026-04-18T09:08:45Z</time></trkpt><trkpt lat="43.75322972241835" lon="13.013966613745806"><ele>158.0</ele><time>2026-04-18T09:08:46Z</time></trkpt><trkpt lat="43.753317732770675" lon="13.014054142660589"><ele>158.0</ele><time>2026-04-18T09:08:47Z</time></trkpt><trkpt lat="43.753387767272876" lon="13.01416862148163"><ele>158.0</ele><time>2026-04-18T09:08:48Z</time></trkpt><trkpt lat="43.75346181613143" lon="13.01427763485922"><ele>158.0</ele><time>2026-04-18T09:08:49Z</time></trkpt><trkpt lat="43.75353447080967" lon="13.014383488522393"><ele>158.0</ele><time>2026-04-18T09:08:50Z</time></trkpt><trkpt lat="43.753597752739836" lon="13.014498907640105"><ele>158.0</ele><time>2026-04-18T09:08:51Z</time></trkpt><trkpt lat="43.753648592759156" lon="13.014618841047168"><ele>158.0</ele><time>2026-04-18T09:08:52Z</time></trkpt><trkpt lat="43.75367855354316" lon="13.014741968692256"><ele>158.0</ele><time>2026-04-18T09:08:53Z</time></trkpt><trkpt lat="43.753694991025895" lon="13.01486592218862"><ele>158.0</ele><time>2026-04-18T09:08:54Z</time></trkpt><trkpt lat="43.75369830486089" lon="13.014998062638233"><ele>158.0</ele><time>2026-04-18T09:08:55Z</time></trkpt><trkpt lat="43.75370140706467" lon="13.01512637559541"><ele>158.0</ele><time>2026-04-18T09:08:56Z</time></trkpt><trkpt lat="43.75370382230565" lon="13.015235635533653"><ele>157.8</ele><time>2026-04-18T09:08:57Z</time></trkpt><trkpt lat="43.75370294205385" lon="13.015355397225306"><ele>157.60000000000002</ele><time>2026-04-18T09:08:58Z</time></trkpt><trkpt lat="43.753708890374725" lon="13.01546734891163"><ele>157.39999999999998</ele><time>2026-04-18T09:08:59Z</time></trkpt><trkpt lat="43.75369606977119" lon="13.015590295325437"><ele>157.2</ele><time>2026-04-18T09:09:00Z</time></trkpt><trkpt lat="43.75370832220246" lon="13.015737875570407"><ele>157.0</ele><time>2026-04-18T09:09:01Z</time></trkpt><trkpt lat="43.7537013608243" lon="13.01589307980227"><ele>155.25</ele><time>2026-04-18T09:09:02Z</time></trkpt><trkpt lat="43.75369351424489" lon="13.01606455933098"><ele>153.5</ele><time>2026-04-18T09:09:03Z</time></trkpt><trkpt lat="43.753693693425475" lon="13.016250461744661"><ele>151.75</ele><time>2026-04-18T09:09:04Z</time></trkpt><trkpt lat="43.753692926364685" lon="13.016454322534546"><ele>150.0</ele><time>2026-04-18T09:09:05Z</time></trkpt><trkpt lat="43.75368843018127" lon="13.01668023815895"><ele>148.33333333333334</ele><time>2026-04-18T09:09:06Z</time></trkpt><trkpt lat="43.75368331074385" lon="13.01690861856291"><ele>146.66666666666669</ele><time>2026-04-18T09:09:07Z</time></trkpt><trkpt lat="43.753672650662374" lon="13.017140442961427"><ele>145.0</ele><time>2026-04-18T09:09:08Z</time></trkpt><trkpt lat="43.75367245651377" lon="13.017380750630736"><ele>143.33333333333334</ele><time>2026-04-18T09:09:09Z</time></trkpt><trkpt lat="43.75368304348704" lon="13.017631182697954"><ele>141.66666666666666</ele><time>2026-04-18T09:09:10Z</time></trkpt><trkpt lat="43.75370207826393" lon="13.017888863210745"><ele>140.0</ele><time>2026-04-18T09:09:11Z</time></trkpt><trkpt lat="43.75372990334435" lon="13.018155984846388"><ele>139.33333333333331</ele><time>2026-04-18T09:09:12Z</time></trkpt><trkpt lat="43.75376597755552" lon="13.018421775157547"><ele>138.66666666666666</ele><time>2026-04-18T09:09:13Z</time></trkpt><trkpt lat="43.753807090347024" lon="13.018668153175355"><ele>138.0</ele><time>2026-04-18T09:09:14Z</time></trkpt><trkpt lat="43.753847071279374" lon="13.018893791397119"><ele>138.0</ele><time>2026-04-18T09:09:15Z</time></trkpt><trkpt lat="43.75388481893222" lon="13.019100385522933"><ele>138.0</ele><time>2026-04-18T09:09:16Z</time></trkpt><trkpt lat="43.75391828440133" lon="13.01929147763443"><ele>138.0</ele><time>2026-04-18T09:09:17Z</time></trkpt><trkpt lat="43.7539541719417" lon="13.019466640366971"><ele>138.0</ele><time>2026-04-18T09:09:18Z</time></trkpt><trkpt lat="43.75398481665661" lon="13.01962493797258"><ele>138.0</ele><time>2026-04-18T09:09:19Z</time></trkpt><trkpt lat="43.754014140669895" lon="13.019774449801004"><ele>138.0</ele><time>2026-04-18T09:09:20Z</time></trkpt><trkpt lat="43.75404069613697" lon="13.01992994168755"><ele>138.0</ele><time>2026-04-18T09:09:21Z</time></trkpt><trkpt lat="43.7540691708589" lon="13.02008651719429"><ele>138.0</ele><time>2026-04-18T09:09:22Z</time></trkpt><trkpt lat="43.754094846196544" lon="13.020248959416934"><ele>137.75</ele><time>2026-04-18T09:09:23Z</time></trkpt><trkpt lat="43.754121528161605" lon="13.020414512841274"><ele>137.5</ele><time>2026-04-18T09:09:24Z</time></trkpt><trkpt lat="43.75415023685266" lon="13.020585634620732"><ele>137.25</ele><time>2026-04-18T09:09:25Z</time></trkpt><trkpt lat="43.75418197754534" lon="13.020766578129097"><ele>137.0</ele><time>2026-04-18T09:09:26Z</time></trkpt><trkpt lat="43.75421408935333" lon="13.020949124278985"><ele>136.75</ele><time>2026-04-18T09:09:27Z</time></trkpt><trkpt lat="43.75424317130878" lon="13.02113553250752"><ele>136.5</ele><time>2026-04-18T09:09:28Z</time></trkpt><trkpt lat="43.75427348743544" lon="13.021331583258686"><ele>136.25</ele><time>2026-04-18T09:09:29Z</time></trkpt><trkpt lat="43.754303058465894" lon="13.021541659737748"><ele>136.0</ele><time>2026-04-18T09:09:30Z</time></trkpt><trkpt lat="43.75432889575968" lon="13.021771301780078"><ele>136.0</ele><time>2026-04-18T09:09:31Z</time></trkpt><trkpt lat="43.75435796995471" lon="13.022013810632323"><ele>136.0</ele><time>2026-04-18T09:09:32Z</time></trkpt><trkpt lat="43.75438651673126" lon="13.022261567970894"><ele>136.0</ele><time>2026-04-18T09:09:33Z</time></trkpt><trkpt lat="43.75441594825632" lon="13.022513133760492"><ele>134.33333333333334</ele><time>2026-04-18T09:09:34Z</time></trkpt><trkpt lat="43.754455132659274" lon="13.022775960270211"><ele>132.66666666666666</ele><time>2026-04-18T09:09:35Z</time></trkpt><trkpt lat="43.754502084800045" lon="13.0230465512565"><ele>131.0</ele><time>2026-04-18T09:09:36Z</time></trkpt><trkpt lat="43.75453823457361" lon="13.023298268405556"><ele>132.66666666666666</ele><time>2026-04-18T09:09:37Z</time></trkpt><trkpt lat="43.75456965479635" lon="13.023530122394977"><ele>134.33333333333334</ele><time>2026-04-18T09:09:38Z</time></trkpt><trkpt lat="43.75458330670226" lon="13.023746783819023"><ele>136.0</ele><time>2026-04-18T09:09:39Z</time></trkpt><trkpt lat="43.754607661814745" lon="13.023957063592992"><ele>138.0</ele><time>2026-04-18T09:09:40Z</time></trkpt><trkpt lat="43.754645213319385" lon="13.024158551645524"><ele>140.0</ele><time>2026-04-18T09:09:41Z</time></trkpt><trkpt lat="43.754653713079534" lon="13.024353272109222"><ele>142.0</ele><time>2026-04-18T09:09:42Z</time></trkpt><trkpt lat="43.75466549359006" lon="13.024536200642725"><ele>144.0</ele><time>2026-04-18T09:09:43Z</time></trkpt><trkpt lat="43.75467512461928" lon="13.024720641619377"><ele>144.0</ele><time>2026-04-18T09:09:44Z</time></trkpt><trkpt lat="43.75466607270114" lon="13.024902811771025"><ele>144.0</ele><time>2026-04-18T09:09:45Z</time></trkpt><trkpt lat="43.754688005115696" lon="13.025082800195287"><ele>144.0</ele><time>2026-04-18T09:09:46Z</time></trkpt><trkpt lat="43.7546945341014" lon="13.025266523202633"><ele>144.0</ele><time>2026-04-18T09:09:47Z</time></trkpt><trkpt lat="43.75470257600772" lon="13.02543559405613"><ele>145.5</ele><time>2026-04-18T09:09:48Z</time></trkpt><trkpt lat="43.75470840005096" lon="13.025607581991732"><ele>147.0</ele><time>2026-04-18T09:09:49Z</time></trkpt><trkpt lat="43.75471582167771" lon="13.02578407833591"><ele>148.5</ele><time>2026-04-18T09:09:50Z</time></trkpt><trkpt lat="43.754715819501136" lon="13.02597188521669"><ele>150.0</ele><time>2026-04-18T09:09:51Z</time></trkpt><trkpt lat="43.7547090880365" lon="13.026170763289912"><ele>150.66666666666666</ele><time>2026-04-18T09:09:52Z</time></trkpt><trkpt lat="43.75470209560004" lon="13.02637910679426"><ele>151.33333333333331</ele><time>2026-04-18T09:09:53Z</time></trkpt><trkpt lat="43.754699128844585" lon="13.026590849568317"><ele>152.0</ele><time>2026-04-18T09:09:54Z</time></trkpt><trkpt lat="43.75469430411159" lon="13.026832387709431"><ele>152.0</ele><time>2026-04-18T09:09:55Z</time></trkpt><trkpt lat="43.754722050257854" lon="13.027098889050505"><ele>152.0</ele><time>2026-04-18T09:09:56Z</time></trkpt><trkpt lat="43.75476483407212" lon="13.027383930263436"><ele>152.0</ele><time>2026-04-18T09:09:57Z</time></trkpt><trkpt lat="43.7548080527113" lon="13.027659693156265"><ele>150.33333333333331</ele><time>2026-04-18T09:09:58Z</time></trkpt><trkpt lat="43.754862447797656" lon="13.027922112945731"><ele>148.66666666666666</ele><time>2026-04-18T09:09:59Z</time></trkpt><trkpt lat="43.754893288625595" lon="13.028181504166373"><ele>147.0</ele><time>2026-04-18T09:10:00Z</time></trkpt><trkpt lat="43.754918487228196" lon="13.028454745404899"><ele>146.33333333333334</ele><time>2026-04-18T09:10:01Z</time></trkpt><trkpt lat="43.75494084083056" lon="13.028745896553062"><ele>145.66666666666669</ele><time>2026-04-18T09:10:02Z</time></trkpt><trkpt lat="43.75495662554566" lon="13.02905019822752"><ele>145.0</ele><time>2026-04-18T09:10:03Z</time></trkpt><trkpt lat="43.75496756815773" lon="13.029361233374333"><ele>144.0</ele><time>2026-04-18T09:10:04Z</time></trkpt><trkpt lat="43.75497426892505" lon="13.029666137893683"><ele>143.0</ele><time>2026-04-18T09:10:05Z</time></trkpt><trkpt lat="43.7549771134778" lon="13.029972232161379"><ele>142.0</ele><time>2026-04-18T09:10:06Z</time></trkpt><trkpt lat="43.754972826419305" lon="13.03026990775552"><ele>140.66666666666669</ele><time>2026-04-18T09:10:07Z</time></trkpt><trkpt lat="43.75496945440514" lon="13.030562190550077"><ele>139.33333333333334</ele><time>2026-04-18T09:10:08Z</time></trkpt><trkpt lat="43.75495040840592" lon="13.030830642988086"><ele>138.0</ele><time>2026-04-18T09:10:09Z</time></trkpt><trkpt lat="43.75493437493392" lon="13.031082411624045"><ele>138.0</ele><time>2026-04-18T09:10:10Z</time></trkpt><trkpt lat="43.75491435048475" lon="13.031335656646947"><ele>138.0</ele><time>2026-04-18T09:10:11Z</time></trkpt><trkpt lat="43.754891381833886" lon="13.031587270885991"><ele>138.0</ele><time>2026-04-18T09:10:12Z</time></trkpt><trkpt lat="43.75486307357959" lon="13.031841120896768"><ele>137.33333333333334</ele><time>2026-04-18T09:10:13Z</time></trkpt><trkpt lat="43.75482193776935" lon="13.032106212689099"><ele>136.66666666666669</ele><time>2026-04-18T09:10:14Z</time></trkpt><trkpt lat="43.75475969451591" lon="13.032380173677058"><ele>136.0</ele><time>2026-04-18T09:10:15Z</time></trkpt><trkpt lat="43.75468020354437" lon="13.03266661920451"><ele>134.33333333333334</ele><time>2026-04-18T09:10:16Z</time></trkpt><trkpt lat="43.75458866202058" lon="13.032936423245413"><ele>132.66666666666666</ele><time>2026-04-18T09:10:17Z</time></trkpt><trkpt lat="43.75453426867666" lon="13.03322913831059"><ele>131.0</ele><time>2026-04-18T09:10:18Z</time></trkpt><trkpt lat="43.754542166818936" lon="13.033438690416453"><ele>130.0</ele><time>2026-04-18T09:10:19Z</time></trkpt><trkpt lat="43.75448993883037" lon="13.033701480563519"><ele>129.0</ele><time>2026-04-18T09:10:20Z</time></trkpt><trkpt lat="43.75445663519835" lon="13.033979132060772"><ele>128.0</ele><time>2026-04-18T09:10:21Z</time></trkpt><trkpt lat="43.754447306913946" lon="13.034270512610293"><ele>127.5</ele><time>2026-04-18T09:10:22Z</time></trkpt><trkpt lat="43.75444323141937" lon="13.03457489711615"><ele>127.0</ele><time>2026-04-18T09:10:23Z</time></trkpt><trkpt lat="43.75444903109359" lon="13.03489294047522"><ele>126.0</ele><time>2026-04-18T09:10:24Z</time></trkpt><trkpt lat="43.75445306209472" lon="13.035225253986095"><ele>125.0</ele><time>2026-04-18T09:10:25Z</time></trkpt><trkpt lat="43.754454313273385" lon="13.035569738046243"><ele>124.5</ele><time>2026-04-18T09:10:26Z</time></trkpt><trkpt lat="43.75445468818222" lon="13.035905755137769"><ele>124.0</ele><time>2026-04-18T09:10:27Z</time></trkpt><trkpt lat="43.75444524465168" lon="13.036212077293433"><ele>124.0</ele><time>2026-04-18T09:10:28Z</time></trkpt><trkpt lat="43.754437141921244" lon="13.036495862785179"><ele>124.0</ele><time>2026-04-18T09:10:29Z</time></trkpt><trkpt lat="43.75443230326703" lon="13.03676723045132"><ele>124.0</ele><time>2026-04-18T09:10:30Z</time></trkpt><trkpt lat="43.75443368865269" lon="13.037030233414674"><ele>124.0</ele><time>2026-04-18T09:10:31Z</time></trkpt><trkpt lat="43.7544395572315" lon="13.037279009320098"><ele>124.0</ele><time>2026-04-18T09:10:32Z</time></trkpt><trkpt lat="43.75445770729237" lon="13.037529364338882"><ele>124.0</ele><time>2026-04-18T09:10:33Z</time></trkpt><trkpt lat="43.75448648395357" lon="13.037772957796895"><ele>125.0</ele><time>2026-04-18T09:10:34Z</time></trkpt><trkpt lat="43.75451688015736" lon="13.037990518162019"><ele>126.0</ele><time>2026-04-18T09:10:35Z</time></trkpt><trkpt lat="43.75453943573351" lon="13.038192366537057"><ele>127.0</ele><time>2026-04-18T09:10:36Z</time></trkpt><trkpt lat="43.754564781279235" lon="13.03838242497632"><ele>128.0</ele><time>2026-04-18T09:10:37Z</time></trkpt><trkpt lat="43.754586448941694" lon="13.038558589242458"><ele>129.5</ele><time>2026-04-18T09:10:38Z</time></trkpt><trkpt lat="43.75460814565783" lon="13.038733323327348"><ele>131.0</ele><time>2026-04-18T09:10:39Z</time></trkpt><trkpt lat="43.75462849683015" lon="13.038909347756068"><ele>132.5</ele><time>2026-04-18T09:10:40Z</time></trkpt><trkpt lat="43.754642835644326" lon="13.039086756015633"><ele>134.0</ele><time>2026-04-18T09:10:41Z</time></trkpt><trkpt lat="43.75466223519358" lon="13.039253529094927"><ele>134.5</ele><time>2026-04-18T09:10:42Z</time></trkpt><trkpt lat="43.75468011745821" lon="13.039436330186513"><ele>135.0</ele><time>2026-04-18T09:10:43Z</time></trkpt><trkpt lat="43.754691516219715" lon="13.03962493536894"><ele>135.5</ele><time>2026-04-18T09:10:44Z</time></trkpt><trkpt lat="43.75469229751167" lon="13.03980588755213"><ele>136.0</ele><time>2026-04-18T09:10:45Z</time></trkpt><trkpt lat="43.754694085498315" lon="13.040001152945472"><ele>137.0</ele><time>2026-04-18T09:10:46Z</time></trkpt><trkpt lat="43.75468789488479" lon="13.040171400838746"><ele>138.0</ele><time>2026-04-18T09:10:47Z</time></trkpt><trkpt lat="43.754684582022975" lon="13.04033819024244"><ele>139.0</ele><time>2026-04-18T09:10:48Z</time></trkpt><trkpt lat="43.75467711285276" lon="13.040517569031355"><ele>140.0</ele><time>2026-04-18T09:10:49Z</time></trkpt><trkpt lat="43.75465843045956" lon="13.04070411388505"><ele>139.5</ele><time>2026-04-18T09:10:50Z</time></trkpt><trkpt lat="43.75463113012781" lon="13.040889173934698"><ele>139.0</ele><time>2026-04-18T09:10:51Z</time></trkpt><trkpt lat="43.75459259440167" lon="13.041065271692451"><ele>138.5</ele><time>2026-04-18T09:10:52Z</time></trkpt><trkpt lat="43.75454947073383" lon="13.041224806295359"><ele>138.0</ele><time>2026-04-18T09:10:53Z</time></trkpt><trkpt lat="43.754492737193296" lon="13.041383705534983"><ele>138.0</ele><time>2026-04-18T09:10:54Z</time></trkpt><trkpt lat="43.75444145206348" lon="13.041540594171103"><ele>138.0</ele><time>2026-04-18T09:10:55Z</time></trkpt><trkpt lat="43.754392484643006" lon="13.04170949125392"><ele>138.0</ele><time>2026-04-18T09:10:56Z</time></trkpt><trkpt lat="43.754334969868154" lon="13.041879556980467"><ele>138.0</ele><time>2026-04-18T09:10:57Z</time></trkpt><trkpt lat="43.75429657268988" lon="13.042027041094089"><ele>138.0</ele><time>2026-04-18T09:10:58Z</time></trkpt><trkpt lat="43.75426403610051" lon="13.042177943277908"><ele>138.0</ele><time>2026-04-18T09:10:59Z</time></trkpt><trkpt lat="43.75424327892289" lon="13.042354013558123"><ele>138.0</ele><time>2026-04-18T09:11:00Z</time></trkpt><trkpt lat="43.75424431177765" lon="13.04254430482546"><ele>138.0</ele><time>2026-04-18T09:11:01Z</time></trkpt><trkpt lat="43.7542530533032" lon="13.042730340565416"><ele>137.5</ele><time>2026-04-18T09:11:02Z</time></trkpt><trkpt lat="43.7542642692211" lon="13.042915294140986"><ele>137.0</ele><time>2026-04-18T09:11:03Z</time></trkpt><trkpt lat="43.754274439781646" lon="13.04309223244967"><ele>136.5</ele><time>2026-04-18T09:11:04Z</time></trkpt><trkpt lat="43.75429438402455" lon="13.043273066386265"><ele>136.0</ele><time>2026-04-18T09:11:05Z</time></trkpt><trkpt lat="43.75430817525639" lon="13.043454928761447"><ele>135.5</ele><time>2026-04-18T09:11:06Z</time></trkpt><trkpt lat="43.754327325091886" lon="13.043644490152184"><ele>135.0</ele><time>2026-04-18T09:11:07Z</time></trkpt><trkpt lat="43.754337853969155" lon="13.043840698715101"><ele>134.5</ele><time>2026-04-18T09:11:08Z</time></trkpt><trkpt lat="43.754350204794896" lon="13.044039742498132"><ele>134.0</ele><time>2026-04-18T09:11:09Z</time></trkpt><trkpt lat="43.75436999182103" lon="13.044238796725969"><ele>130.0</ele><time>2026-04-18T09:11:10Z</time></trkpt><trkpt lat="43.75439609132532" lon="13.044434311988537"><ele>126.0</ele><time>2026-04-18T09:11:11Z</time></trkpt><trkpt lat="43.75445156952032" lon="13.044641425333653"><ele>122.0</ele><time>2026-04-18T09:11:12Z</time></trkpt><trkpt lat="43.75452012941302" lon="13.044850406154143"><ele>123.33333333333333</ele><time>2026-04-18T09:11:13Z</time></trkpt><trkpt lat="43.754580528218085" lon="13.045072637182145"><ele>124.66666666666666</ele><time>2026-04-18T09:11:14.001Z</time></trkpt><trkpt lat="43.75466750981389" lon="13.04531895188288"><ele>126.0</ele><time>2026-04-18T09:11:15.001Z</time></trkpt><trkpt lat="43.7547747658733" lon="13.045568007189965"><ele>128.0</ele><time>2026-04-18T09:11:16.001Z</time></trkpt><trkpt lat="43.754864251260976" lon="13.045833235077703"><ele>130.0</ele><time>2026-04-18T09:11:17.001Z</time></trkpt><trkpt lat="43.75494452332419" lon="13.046084214817773"><ele>132.0</ele><time>2026-04-18T09:11:18.001Z</time></trkpt><trkpt lat="43.755030942115674" lon="13.046323790790161"><ele>132.0</ele><time>2026-04-18T09:11:19.001Z</time></trkpt><trkpt lat="43.75511130646962" lon="13.046548872430725"><ele>132.0</ele><time>2026-04-18T09:11:20.001Z</time></trkpt><trkpt lat="43.75519333509521" lon="13.046783347699618"><ele>132.0</ele><time>2026-04-18T09:11:21.001Z</time></trkpt><trkpt lat="43.75527704065838" lon="13.047011416097288"><ele>132.66666666666666</ele><time>2026-04-18T09:11:22.001Z</time></trkpt><trkpt lat="43.7553579112975" lon="13.047251792835521"><ele>133.33333333333331</ele><time>2026-04-18T09:11:23.001Z</time></trkpt><trkpt lat="43.755423095187986" lon="13.047521030221455"><ele>134.0</ele><time>2026-04-18T09:11:24.001Z</time></trkpt><trkpt lat="43.755478637153935" lon="13.047796149752717"><ele>134.0</ele><time>2026-04-18T09:11:25.001Z</time></trkpt><trkpt lat="43.75551691941075" lon="13.048077747386113"><ele>134.0</ele><time>2026-04-18T09:11:26.001Z</time></trkpt><trkpt lat="43.755553036015364" lon="13.04834243593202"><ele>134.0</ele><time>2026-04-18T09:11:27.001Z</time></trkpt><trkpt lat="43.75559830256207" lon="13.04860497001566"><ele>136.33333333333331</ele><time>2026-04-18T09:11:28.001Z</time></trkpt><trkpt lat="43.75566786237054" lon="13.048873359409"><ele>138.66666666666666</ele><time>2026-04-18T09:11:29.001Z</time></trkpt><trkpt lat="43.755744852590105" lon="13.049153707863368"><ele>141.0</ele><time>2026-04-18T09:11:30.001Z</time></trkpt><trkpt lat="43.75582746735141" lon="13.049432376319423"><ele>141.66666666666666</ele><time>2026-04-18T09:11:31.001Z</time></trkpt><trkpt lat="43.75591315667578" lon="13.049710870355554"><ele>142.33333333333331</ele><time>2026-04-18T09:11:32.001Z</time></trkpt><trkpt lat="43.75600250990727" lon="13.049985907300135"><ele>143.0</ele><time>2026-04-18T09:11:33.001Z</time></trkpt><trkpt lat="43.7560832220567" lon="13.050250906517908"><ele>143.0</ele><time>2026-04-18T09:11:34.001Z</time></trkpt><trkpt lat="43.75615386794087" lon="13.050504005807813"><ele>143.0</ele><time>2026-04-18T09:11:35.001Z</time></trkpt><trkpt lat="43.75621077279379" lon="13.05075266195782"><ele>143.0</ele><time>2026-04-18T09:11:36.001Z</time></trkpt><trkpt lat="43.756244858919764" lon="13.0510108044306"><ele>145.33333333333331</ele><time>2026-04-18T09:11:37.001Z</time></trkpt><trkpt lat="43.756254755682136" lon="13.05127440349691"><ele>147.66666666666666</ele><time>2026-04-18T09:11:38.001Z</time></trkpt><trkpt lat="43.75624715928256" lon="13.051544728373406"><ele>150.0</ele><time>2026-04-18T09:11:39.001Z</time></trkpt><trkpt lat="43.75623733931708" lon="13.051812353159995"><ele>152.66666666666666</ele><time>2026-04-18T09:11:40.001Z</time></trkpt><trkpt lat="43.756243112655575" lon="13.05208362637435"><ele>155.33333333333331</ele><time>2026-04-18T09:11:41.001Z</time></trkpt><trkpt lat="43.75623573241596" lon="13.05234333369215"><ele>158.0</ele><time>2026-04-18T09:11:42.001Z</time></trkpt><trkpt lat="43.75623903975117" lon="13.05261230340135"><ele>160.0</ele><time>2026-04-18T09:11:43Z</time></trkpt><trkpt lat="43.7562378646562" lon="13.052864063143184"><ele>162.0</ele><time>2026-04-18T09:11:44Z</time></trkpt><trkpt lat="43.756234229906966" lon="13.053121302107886"><ele>164.0</ele><time>2026-04-18T09:11:45Z</time></trkpt><trkpt lat="43.75622512759328" lon="13.053371750232792"><ele>166.0</ele><time>2026-04-18T09:11:46Z</time></trkpt><trkpt lat="43.75622673524374" lon="13.053619581043012"><ele>168.0</ele><time>2026-04-18T09:11:47Z</time></trkpt><trkpt lat="43.756218349379886" lon="13.053863381491748"><ele>170.0</ele><time>2026-04-18T09:11:48Z</time></trkpt><trkpt lat="43.756197089026465" lon="13.054098382513397"><ele>171.66666666666666</ele><time>2026-04-18T09:11:49Z</time></trkpt><trkpt lat="43.75616484809001" lon="13.05433101824872"><ele>173.33333333333334</ele><time>2026-04-18T09:11:50Z</time></trkpt><trkpt lat="43.756124195851534" lon="13.05456981307873"><ele>175.0</ele><time>2026-04-18T09:11:51Z</time></trkpt><trkpt lat="43.756078978112335" lon="13.054810048589227"><ele>173.33333333333334</ele><time>2026-04-18T09:11:52Z</time></trkpt><trkpt lat="43.75603603856245" lon="13.055048340076102"><ele>171.66666666666666</ele><time>2026-04-18T09:11:53Z</time></trkpt><trkpt lat="43.755996652121965" lon="13.055295321395173"><ele>170.0</ele><time>2026-04-18T09:11:54Z</time></trkpt><trkpt lat="43.75597025648115" lon="13.055545201579699"><ele>171.33333333333331</ele><time>2026-04-18T09:11:55Z</time></trkpt><trkpt lat="43.75595042709575" lon="13.055796667849599"><ele>172.66666666666666</ele><time>2026-04-18T09:11:56Z</time></trkpt><trkpt lat="43.75592917610824" lon="13.056051753218187"><ele>174.0</ele><time>2026-04-18T09:11:57Z</time></trkpt><trkpt lat="43.75591540508655" lon="13.056310026916133"><ele>174.0</ele><time>2026-04-18T09:11:58Z</time></trkpt><trkpt lat="43.755899998223356" lon="13.05657515931485"><ele>174.0</ele><time>2026-04-18T09:11:59Z</time></trkpt><trkpt lat="43.75587444750841" lon="13.056819983866136"><ele>174.0</ele><time>2026-04-18T09:12:00Z</time></trkpt><trkpt lat="43.75585779220433" lon="13.057059609327492"><ele>175.66666666666666</ele><time>2026-04-18T09:12:01Z</time></trkpt><trkpt lat="43.75584441454915" lon="13.057291269428337"><ele>177.33333333333331</ele><time>2026-04-18T09:12:02Z</time></trkpt><trkpt lat="43.755835136225826" lon="13.057515908650041"><ele>179.0</ele><time>2026-04-18T09:12:03Z</time></trkpt><trkpt lat="43.75582645707899" lon="13.05773615156906"><ele>180.0</ele><time>2026-04-18T09:12:04Z</time></trkpt><trkpt lat="43.7558175920476" lon="13.057948284876062"><ele>181.0</ele><time>2026-04-18T09:12:05Z</time></trkpt><trkpt lat="43.755819221069935" lon="13.05817502379373"><ele>182.0</ele><time>2026-04-18T09:12:06Z</time></trkpt><trkpt lat="43.75581702472205" lon="13.058417069107175"><ele>182.0</ele><time>2026-04-18T09:12:07Z</time></trkpt><trkpt lat="43.75583067651516" lon="13.058677429270972"><ele>182.0</ele><time>2026-04-18T09:12:08Z</time></trkpt><trkpt lat="43.75586695005552" lon="13.058910195235086"><ele>182.0</ele><time>2026-04-18T09:12:09Z</time></trkpt><trkpt lat="43.75589319725253" lon="13.05915028362317"><ele>180.0</ele><time>2026-04-18T09:12:10Z</time></trkpt><trkpt lat="43.755919745369106" lon="13.059387213254935"><ele>178.0</ele><time>2026-04-18T09:12:11Z</time></trkpt><trkpt lat="43.755945174171835" lon="13.059617372876076"><ele>176.0</ele><time>2026-04-18T09:12:12Z</time></trkpt><trkpt lat="43.755962110755725" lon="13.05983567778666"><ele>174.75</ele><time>2026-04-18T09:12:13Z</time></trkpt><trkpt lat="43.75598388397333" lon="13.060040355241334"><ele>173.5</ele><time>2026-04-18T09:12:14Z</time></trkpt><trkpt lat="43.756007494454806" lon="13.060231936159926"><ele>172.25</ele><time>2026-04-18T09:12:15Z</time></trkpt><trkpt lat="43.75604550659318" lon="13.060410617769108"><ele>171.0</ele><time>2026-04-18T09:12:16Z</time></trkpt><trkpt lat="43.75610950977936" lon="13.060599059512711"><ele>169.33333333333334</ele><time>2026-04-18T09:12:17Z</time></trkpt><trkpt lat="43.7561783949247" lon="13.060794210630917"><ele>167.66666666666669</ele><time>2026-04-18T09:12:18Z</time></trkpt><trkpt lat="43.756255505474" lon="13.060985239499054"><ele>166.0</ele><time>2026-04-18T09:12:19Z</time></trkpt><trkpt lat="43.75633801455631" lon="13.061167873800764"><ele>166.0</ele><time>2026-04-18T09:12:20Z</time></trkpt><trkpt lat="43.75641004947122" lon="13.061345405696109"><ele>166.0</ele><time>2026-04-18T09:12:21Z</time></trkpt><trkpt lat="43.756483027973495" lon="13.06152264621857"><ele>166.0</ele><time>2026-04-18T09:12:22Z</time></trkpt><trkpt lat="43.756549677623504" lon="13.061687038540738"><ele>166.0</ele><time>2026-04-18T09:12:23Z</time></trkpt><trkpt lat="43.75661024682252" lon="13.061845620119964"><ele>164.75</ele><time>2026-04-18T09:12:24Z</time></trkpt><trkpt lat="43.75667485397362" lon="13.061993579489627"><ele>163.5</ele><time>2026-04-18T09:12:25Z</time></trkpt><trkpt lat="43.756729072505486" lon="13.062137929805884"><ele>162.25</ele><time>2026-04-18T09:12:26Z</time></trkpt><trkpt lat="43.7567869003297" lon="13.06226740968414"><ele>161.0</ele><time>2026-04-18T09:12:27Z</time></trkpt><trkpt lat="43.75683948893028" lon="13.062393641246217"><ele>158.75</ele><time>2026-04-18T09:12:28Z</time></trkpt><trkpt lat="43.75689419713379" lon="13.06252682339692"><ele>156.5</ele><time>2026-04-18T09:12:29Z</time></trkpt><trkpt lat="43.756948521299364" lon="13.062662907025343"><ele>154.25</ele><time>2026-04-18T09:12:30Z</time></trkpt><trkpt lat="43.75700796166554" lon="13.06280515302339"><ele>152.0</ele><time>2026-04-18T09:12:31Z</time></trkpt><trkpt lat="43.75707590293451" lon="13.062946906996576"><ele>152.0</ele><time>2026-04-18T09:12:32Z</time></trkpt><trkpt lat="43.757145911388356" lon="13.063092929497033"><ele>152.0</ele><time>2026-04-18T09:12:33Z</time></trkpt><trkpt lat="43.75722912376811" lon="13.063247315086002"><ele>152.0</ele><time>2026-04-18T09:12:34Z</time></trkpt><trkpt lat="43.757327053698965" lon="13.063407506915748"><ele>152.0</ele><time>2026-04-18T09:12:35Z</time></trkpt><trkpt lat="43.757431866776756" lon="13.063577601027465"><ele>151.33333333333331</ele><time>2026-04-18T09:12:36Z</time></trkpt><trkpt lat="43.757553147609755" lon="13.063742794090622"><ele>150.66666666666666</ele><time>2026-04-18T09:12:37Z</time></trkpt><trkpt lat="43.75767273885543" lon="13.063902094940817"><ele>150.0</ele><time>2026-04-18T09:12:38Z</time></trkpt><trkpt lat="43.75779491743397" lon="13.064045895199962"><ele>151.75</ele><time>2026-04-18T09:12:39Z</time></trkpt><trkpt lat="43.7579105049687" lon="13.064167620153238"><ele>153.5</ele><time>2026-04-18T09:12:40Z</time></trkpt><trkpt lat="43.75802345869525" lon="13.064269411939591"><ele>155.25</ele><time>2026-04-18T09:12:41Z</time></trkpt><trkpt lat="43.758142919676736" lon="13.064365966729907"><ele>157.0</ele><time>2026-04-18T09:12:42Z</time></trkpt><trkpt lat="43.758269914878674" lon="13.064449972611124"><ele>157.0</ele><time>2026-04-18T09:12:43Z</time></trkpt><trkpt lat="43.75839349871201" lon="13.064540210830781"><ele>157.0</ele><time>2026-04-18T09:12:44Z</time></trkpt><trkpt lat="43.75851386485628" lon="13.064633859824298"><ele>157.0</ele><time>2026-04-18T09:12:45Z</time></trkpt><trkpt lat="43.75863413629484" lon="13.064730573974439"><ele>157.0</ele><time>2026-04-18T09:12:46Z</time></trkpt><trkpt lat="43.75875139370946" lon="13.064840170739371"><ele>156.25</ele><time>2026-04-18T09:12:47Z</time></trkpt><trkpt lat="43.75886343194752" lon="13.064973400369425"><ele>155.5</ele><time>2026-04-18T09:12:48Z</time></trkpt><trkpt lat="43.75897635077437" lon="13.065103759874752"><ele>154.75</ele><time>2026-04-18T09:12:49Z</time></trkpt><trkpt lat="43.759087020051496" lon="13.065227962633351"><ele>154.0</ele><time>2026-04-18T09:12:50Z</time></trkpt><trkpt lat="43.75920250658754" lon="13.065352253019899"><ele>154.0</ele><time>2026-04-18T09:12:51Z</time></trkpt><trkpt lat="43.759315556587" lon="13.065462973015029"><ele>154.0</ele><time>2026-04-18T09:12:52Z</time></trkpt><trkpt lat="43.75941993204132" lon="13.06558303293224"><ele>154.0</ele><time>2026-04-18T09:12:53Z</time></trkpt><trkpt lat="43.75951992335586" lon="13.065692721307801"><ele>154.0</ele><time>2026-04-18T09:12:54Z</time></trkpt><trkpt lat="43.75960607970713" lon="13.06579197799891"><ele>153.83333333333334</ele><time>2026-04-18T09:12:55Z</time></trkpt><trkpt lat="43.759681616209654" lon="13.065879190785095"><ele>153.66666666666669</ele><time>2026-04-18T09:12:56Z</time></trkpt><trkpt lat="43.75973959580866" lon="13.065946826544355"><ele>153.5</ele><time>2026-04-18T09:12:57Z</time></trkpt><trkpt lat="43.75979872962913" lon="13.066006798140734"><ele>153.33333333333334</ele><time>2026-04-18T09:12:58Z</time></trkpt><trkpt lat="43.759861400236105" lon="13.066072152015854"><ele>153.16666666666666</ele><time>2026-04-18T09:12:59Z</time></trkpt><trkpt lat="43.75992530793331" lon="13.066146361256807"><ele>153.0</ele><time>2026-04-18T09:13:00Z</time></trkpt><trkpt lat="43.75999692464962" lon="13.066220572269069"><ele>153.0</ele><time>2026-04-18T09:13:01Z</time></trkpt><trkpt lat="43.760065470835556" lon="13.06628966727724"><ele>153.0</ele><time>2026-04-18T09:13:02Z</time></trkpt><trkpt lat="43.76012123197963" lon="13.066352889228321"><ele>153.0</ele><time>2026-04-18T09:13:03Z</time></trkpt><trkpt lat="43.76017168066807" lon="13.06640892496521"><ele>153.0</ele><time>2026-04-18T09:13:04Z</time></trkpt><trkpt lat="43.76026226543056" lon="13.066491318480345"><ele>153.0</ele><time>2026-04-18T09:13:06Z</time></trkpt><trkpt lat="43.76032747778492" lon="13.066481997852417"><ele>153.0</ele><time>2026-04-18T09:13:08Z</time></trkpt><trkpt lat="43.76024773203425" lon="13.066477080899665"><ele>153.0</ele><time>2026-04-18T09:13:11Z</time></trkpt><trkpt lat="43.76016527091691" lon="13.066388921304997"><ele>153.0</ele><time>2026-04-18T09:13:16Z</time></trkpt><trkpt lat="43.76010972653016" lon="13.066310795110516"><ele>153.0</ele><time>2026-04-18T09:13:17Z</time></trkpt><trkpt lat="43.76005720371403" lon="13.066241502191566"><ele>153.0</ele><time>2026-04-18T09:13:18Z</time></trkpt><trkpt lat="43.759993774798595" lon="13.066174210672424"><ele>153.0</ele><time>2026-04-18T09:13:19Z</time></trkpt><trkpt lat="43.75992247312183" lon="13.066114499672034"><ele>153.0</ele><time>2026-04-18T09:13:20.001Z</time></trkpt><trkpt lat="43.75987290875898" lon="13.066052591166681"><ele>153.0</ele><time>2026-04-18T09:13:21.001Z</time></trkpt><trkpt lat="43.75982205322171" lon="13.065993453349547"><ele>153.0</ele><time>2026-04-18T09:13:22.001Z</time></trkpt><trkpt lat="43.75973072787971" lon="13.0658926111203"><ele>153.0</ele><time>2026-04-18T09:13:24.001Z</time></trkpt><trkpt lat="43.75967236610099" lon="13.065825245170492"><ele>153.0</ele><time>2026-04-18T09:13:26.001Z</time></trkpt><trkpt lat="43.75960702943134" lon="13.065762028083235"><ele>153.0</ele><time>2026-04-18T09:13:30.001Z</time></trkpt><trkpt lat="43.759518570453466" lon="13.065837574724153"><ele>153.0</ele><time>2026-04-18T09:13:33.001Z</time></trkpt><trkpt lat="43.75950898573414" lon="13.065945040447746"><ele>153.0</ele><time>2026-04-18T09:13:34.001Z</time></trkpt><trkpt lat="43.75949567071182" lon="13.066056795615129"><ele>153.0</ele><time>2026-04-18T09:13:35.001Z</time></trkpt><trkpt lat="43.759478872629934" lon="13.06617994158889"><ele>153.0</ele><time>2026-04-18T09:13:36.001Z</time></trkpt><trkpt lat="43.759463718382904" lon="13.066316070189336"><ele>153.0</ele><time>2026-04-18T09:13:37.001Z</time></trkpt><trkpt lat="43.75944224194977" lon="13.066461753455517"><ele>153.0</ele><time>2026-04-18T09:13:38.001Z</time></trkpt><trkpt lat="43.759416979563056" lon="13.06662006327303"><ele>153.25</ele><time>2026-04-18T09:13:39.001Z</time></trkpt><trkpt lat="43.75939033460731" lon="13.066776495828433"><ele>153.5</ele><time>2026-04-18T09:13:40Z</time></trkpt><trkpt lat="43.7593623357853" lon="13.06693470273033"><ele>153.75</ele><time>2026-04-18T09:13:41Z</time></trkpt><trkpt lat="43.759331051099714" lon="13.067089003327697"><ele>154.0</ele><time>2026-04-18T09:13:42Z</time></trkpt><trkpt lat="43.75929754345762" lon="13.067239979942242"><ele>152.2</ele><time>2026-04-18T09:13:43Z</time></trkpt><trkpt lat="43.759264963470315" lon="13.067389887744223"><ele>150.4</ele><time>2026-04-18T09:13:44Z</time></trkpt><trkpt lat="43.75922902073669" lon="13.06752964619869"><ele>148.6</ele><time>2026-04-18T09:13:45Z</time></trkpt><trkpt lat="43.759202576849155" lon="13.067649120967074"><ele>146.8</ele><time>2026-04-18T09:13:46Z</time></trkpt><trkpt lat="43.75918215809883" lon="13.067737626910251"><ele>145.0</ele><time>2026-04-18T09:13:47Z</time></trkpt><trkpt lat="43.75915133514875" lon="13.067838285281837"><ele>144.2</ele><time>2026-04-18T09:13:50Z</time></trkpt><trkpt lat="43.75905928000551" lon="13.06784479055834"><ele>143.4</ele><time>2026-04-18T09:13:53Z</time></trkpt><trkpt lat="43.758980067314475" lon="13.067829629400965"><ele>142.6</ele><time>2026-04-18T09:13:55Z</time></trkpt><trkpt lat="43.758862111998" lon="13.067819786158978"><ele>141.8</ele><time>2026-04-18T09:13:57Z</time></trkpt><trkpt lat="43.75875461193036" lon="13.06779231426626"><ele>141.0</ele><time>2026-04-18T09:13:59Z</time></trkpt><trkpt lat="43.75867581695925" lon="13.067776342727658"><ele>141.0</ele><time>2026-04-18T09:14:00Z</time></trkpt><trkpt lat="43.75858028203625" lon="13.067766046156663"><ele>141.0</ele><time>2026-04-18T09:14:01Z</time></trkpt><trkpt lat="43.75847799372215" lon="13.067764922867353"><ele>141.0</ele><time>2026-04-18T09:14:02Z</time></trkpt><trkpt lat="43.75836909933144" lon="13.067772856036303"><ele>141.0</ele><time>2026-04-18T09:14:03Z</time></trkpt><trkpt lat="43.758254635364004" lon="13.067785431876308"><ele>141.0</ele><time>2026-04-18T09:14:04Z</time></trkpt><trkpt lat="43.758141161649135" lon="13.067795178173299"><ele>139.5</ele><time>2026-04-18T09:14:05Z</time></trkpt><trkpt lat="43.7580250924502" lon="13.067807831669837"><ele>138.0</ele><time>2026-04-18T09:14:06Z</time></trkpt><trkpt lat="43.75790929219879" lon="13.067810289408165"><ele>136.5</ele><time>2026-04-18T09:14:07Z</time></trkpt><trkpt lat="43.757794928494874" lon="13.067808626367954"><ele>135.0</ele><time>2026-04-18T09:14:08Z</time></trkpt><trkpt lat="43.757676052729835" lon="13.067807562834586"><ele>134.0</ele><time>2026-04-18T09:14:09Z</time></trkpt><trkpt lat="43.757558416131076" lon="13.0678002229921"><ele>133.0</ele><time>2026-04-18T09:14:10Z</time></trkpt><trkpt lat="43.75743757117592" lon="13.067790062826418"><ele>132.0</ele><time>2026-04-18T09:14:11Z</time></trkpt><trkpt lat="43.757330274773885" lon="13.067774567476388"><ele>131.0</ele><time>2026-04-18T09:14:12Z</time></trkpt><trkpt lat="43.757232329457395" lon="13.067757330639255"><ele>130.0</ele><time>2026-04-18T09:14:13Z</time></trkpt><trkpt lat="43.757137752519725" lon="13.06774796367705"><ele>130.0</ele><time>2026-04-18T09:14:14Z</time></trkpt><trkpt lat="43.75704223761317" lon="13.067752392200434"><ele>130.0</ele><time>2026-04-18T09:14:15Z</time></trkpt><trkpt lat="43.7569572247791" lon="13.067766104791609"><ele>130.0</ele><time>2026-04-18T09:14:16Z</time></trkpt><trkpt lat="43.75687407740525" lon="13.067781821061079"><ele>130.0</ele><time>2026-04-18T09:14:17Z</time></trkpt><trkpt lat="43.7567967714668" lon="13.06780587751145"><ele>130.0</ele><time>2026-04-18T09:14:18Z</time></trkpt><trkpt lat="43.75670629798796" lon="13.067823352869633"><ele>130.0</ele><time>2026-04-18T09:14:20Z</time></trkpt><trkpt lat="43.75662927817099" lon="13.067801069290537"><ele>129.42857142857144</ele><time>2026-04-18T09:14:22Z</time></trkpt><trkpt lat="43.75661096317589" lon="13.067713816445858"><ele>128.85714285714286</ele><time>2026-04-18T09:14:23Z</time></trkpt><trkpt lat="43.75658464810665" lon="13.067623746878299"><ele>128.28571428571428</ele><time>2026-04-18T09:14:25Z</time></trkpt><trkpt lat="43.756565083885924" lon="13.067529115108401"><ele>127.71428571428572</ele><time>2026-04-18T09:14:27Z</time></trkpt><trkpt lat="43.75653288644758" lon="13.067419694120458"><ele>127.14285714285714</ele><time>2026-04-18T09:14:29Z</time></trkpt><trkpt lat="43.756512433055505" lon="13.067322244596582"><ele>126.57142857142857</ele><time>2026-04-18T09:14:31Z</time></trkpt><trkpt lat="43.75649667687462" lon="13.067229290544336"><ele>126.0</ele><time>2026-04-18T09:14:33Z</time></trkpt><trkpt lat="43.75645257156591" lon="13.067117326911243"><ele>126.0</ele><time>2026-04-18T09:14:36Z</time></trkpt><trkpt lat="43.75638618615458" lon="13.06706284091573"><ele>126.0</ele><time>2026-04-18T09:14:38Z</time></trkpt><trkpt lat="43.75631195927084" lon="13.06704532289226"><ele>126.0</ele><time>2026-04-18T09:14:40Z</time></trkpt><trkpt lat="43.756234251885886" lon="13.067040996288735"><ele>126.0</ele><time>2026-04-18T09:14:42Z</time></trkpt><trkpt lat="43.75615764294074" lon="13.067037176582577"><ele>126.0</ele><time>2026-04-18T09:14:44Z</time></trkpt><trkpt lat="43.756083432725994" lon="13.067039003383254"><ele>126.0</ele><time>2026-04-18T09:14:46Z</time></trkpt><trkpt lat="43.756004528910964" lon="13.067035480834155"><ele>125.0</ele><time>2026-04-18T09:14:48Z</time></trkpt><trkpt lat="43.75591788832469" lon="13.06703584472692"><ele>124.0</ele><time>2026-04-18T09:14:50Z</time></trkpt><trkpt lat="43.75583082522056" lon="13.067042759486776"><ele>123.0</ele><time>2026-04-18T09:14:52Z</time></trkpt><trkpt lat="43.755746725124425" lon="13.067043372877174"><ele>122.0</ele><time>2026-04-18T09:14:54Z</time></trkpt><trkpt lat="43.75565352563288" lon="13.067041739271733"><ele>121.0</ele><time>2026-04-18T09:14:56Z</time></trkpt><trkpt lat="43.755564445663225" lon="13.067045091782894"><ele>120.0</ele><time>2026-04-18T09:14:58Z</time></trkpt><trkpt lat="43.75547615326052" lon="13.067037695336785"><ele>120.0</ele><time>2026-04-18T09:15:00Z</time></trkpt><trkpt lat="43.75540130600331" lon="13.06704011678705"><ele>120.0</ele><time>2026-04-18T09:15:02Z</time></trkpt><trkpt lat="43.75533513793678" lon="13.067043140718956"><ele>120.0</ele><time>2026-04-18T09:15:04Z</time></trkpt><trkpt lat="43.755236464114475" lon="13.067036669599737"><ele>120.0</ele><time>2026-04-18T09:15:06Z</time></trkpt><trkpt lat="43.755136288324636" lon="13.067046524849927"><ele>120.0</ele><time>2026-04-18T09:15:08Z</time></trkpt><trkpt lat="43.75504715565406" lon="13.067071192540118"><ele>120.0</ele><time>2026-04-18T09:15:10Z</time></trkpt><trkpt lat="43.7549502867836" lon="13.067101739862203"><ele>118.6</ele><time>2026-04-18T09:15:12Z</time></trkpt><trkpt lat="43.75485527148805" lon="13.067135519431988"><ele>117.2</ele><time>2026-04-18T09:15:14Z</time></trkpt><trkpt lat="43.7547612636062" lon="13.06718112772779"><ele>115.80000000000001</ele><time>2026-04-18T09:15:16Z</time></trkpt><trkpt lat="43.75466598419865" lon="13.06722923926726"><ele>114.4</ele><time>2026-04-18T09:15:18Z</time></trkpt><trkpt lat="43.75455890107317" lon="13.067263187068706"><ele>113.0</ele><time>2026-04-18T09:15:20Z</time></trkpt><trkpt lat="43.754449193584314" lon="13.067280979742874"><ele>111.33333333333333</ele><time>2026-04-18T09:15:22Z</time></trkpt><trkpt lat="43.754340043967645" lon="13.067299022765155"><ele>109.66666666666666</ele><time>2026-04-18T09:15:24Z</time></trkpt><trkpt lat="43.754248517458734" lon="13.06731566063417"><ele>108.0</ele><time>2026-04-18T09:15:26Z</time></trkpt><trkpt lat="43.75417672083192" lon="13.06734682961555"><ele>106.33333333333334</ele><time>2026-04-18T09:15:28Z</time></trkpt><trkpt lat="43.75410541062066" lon="13.06736716281081"><ele>104.66666666666667</ele><time>2026-04-18T09:15:30Z</time></trkpt><trkpt lat="43.754022839929576" lon="13.067389260316899"><ele>103.0</ele><time>2026-04-18T09:15:32Z</time></trkpt><trkpt lat="43.75393727899534" lon="13.067415884139313"><ele>101.80000000000001</ele><time>2026-04-18T09:15:34Z</time></trkpt><trkpt lat="43.753853599641936" lon="13.067448308711572"><ele>100.6</ele><time>2026-04-18T09:15:36Z</time></trkpt><trkpt lat="43.7537669972911" lon="13.067488043109915"><ele>99.4</ele><time>2026-04-18T09:15:38Z</time></trkpt><trkpt lat="43.75367258457128" lon="13.067517870801376"><ele>98.19999999999999</ele><time>2026-04-18T09:15:40Z</time></trkpt><trkpt lat="43.753569125565875" lon="13.067583844974665"><ele>97.0</ele><time>2026-04-18T09:15:42Z</time></trkpt><trkpt lat="43.75347061431914" lon="13.067627786795393"><ele>95.6</ele><time>2026-04-18T09:15:44Z</time></trkpt><trkpt lat="43.753376854511465" lon="13.067669609218274"><ele>94.19999999999999</ele><time>2026-04-18T09:15:46Z</time></trkpt><trkpt lat="43.75328578775454" lon="13.067711252444772"><ele>92.8</ele><time>2026-04-18T09:15:48Z</time></trkpt><trkpt lat="43.75318534609102" lon="13.067757166764935"><ele>91.4</ele><time>2026-04-18T09:15:50Z</time></trkpt><trkpt lat="43.753079456540625" lon="13.06782215012966"><ele>90.0</ele><time>2026-04-18T09:15:52Z</time></trkpt><trkpt lat="43.7529820979122" lon="13.067867345549397"><ele>90.0</ele><time>2026-04-18T09:15:54Z</time></trkpt><trkpt lat="43.752881503836015" lon="13.06790888122133"><ele>90.0</ele><time>2026-04-18T09:15:56Z</time></trkpt><trkpt lat="43.752785576712874" lon="13.067950721953947"><ele>90.0</ele><time>2026-04-18T09:15:58Z</time></trkpt><trkpt lat="43.75271088346261" lon="13.067989424254534"><ele>90.0</ele><time>2026-04-18T09:16:00Z</time></trkpt><trkpt lat="43.752616041564224" lon="13.067966514251657"><ele>90.0</ele><time>2026-04-18T09:16:02Z</time></trkpt><trkpt lat="43.75251498351026" lon="13.067888797319988"><ele>89.16666666666667</ele><time>2026-04-18T09:16:04Z</time></trkpt><trkpt lat="43.7524043470919" lon="13.067810435185818"><ele>88.33333333333333</ele><time>2026-04-18T09:16:06Z</time></trkpt><trkpt lat="43.752300222127076" lon="13.067727867104864"><ele>87.5</ele><time>2026-04-18T09:16:08Z</time></trkpt><trkpt lat="43.752239927746295" lon="13.067687191205541"><ele>86.66666666666666</ele><time>2026-04-18T09:16:09Z</time></trkpt><trkpt lat="43.75217648889248" lon="13.06765320495722"><ele>85.83333333333333</ele><time>2026-04-18T09:16:10Z</time></trkpt><trkpt lat="43.752111294385884" lon="13.067631718726773"><ele>85.0</ele><time>2026-04-18T09:16:11Z</time></trkpt><trkpt lat="43.752047579935734" lon="13.067597403839686"><ele>85.0</ele><time>2026-04-18T09:16:12Z</time></trkpt><trkpt lat="43.75192938276236" lon="13.06757268288059"><ele>85.0</ele><time>2026-04-18T09:16:14Z</time></trkpt><trkpt lat="43.75181179029237" lon="13.067557050736466"><ele>85.0</ele><time>2026-04-18T09:16:16Z</time></trkpt><trkpt lat="43.7517476872112" lon="13.067550984997945"><ele>85.0</ele><time>2026-04-18T09:16:17Z</time></trkpt><trkpt lat="43.75168103535564" lon="13.067568948423204"><ele>85.0</ele><time>2026-04-18T09:16:18Z</time></trkpt><trkpt lat="43.75161659487409" lon="13.067563240191765"><ele>85.0</ele><time>2026-04-18T09:16:19Z</time></trkpt><trkpt lat="43.75155051138814" lon="13.067560317169008"><ele>85.6</ele><time>2026-04-18T09:16:20Z</time></trkpt><trkpt lat="43.75142416628866" lon="13.067554039040928"><ele>86.2</ele><time>2026-04-18T09:16:22Z</time></trkpt><trkpt lat="43.75136135122518" lon="13.067547729470919"><ele>86.80000000000001</ele><time>2026-04-18T09:16:23Z</time></trkpt><trkpt lat="43.75124734604781" lon="13.067537331931787"><ele>87.4</ele><time>2026-04-18T09:16:25Z</time></trkpt><trkpt lat="43.751132333144874" lon="13.067542524601151"><ele>88.0</ele><time>2026-04-18T09:16:27Z</time></trkpt><trkpt lat="43.75103076047791" lon="13.067543788980473"><ele>90.60000000000001</ele><time>2026-04-18T09:16:29Z</time></trkpt><trkpt lat="43.750926530868846" lon="13.067589686778321"><ele>93.2</ele><time>2026-04-18T09:16:31Z</time></trkpt><trkpt lat="43.75083466826679" lon="13.067666777445947"><ele>95.8</ele><time>2026-04-18T09:16:33Z</time></trkpt><trkpt lat="43.75075302334395" lon="13.067669719489313"><ele>98.4</ele><time>2026-04-18T09:16:35Z</time></trkpt><trkpt lat="43.75066817711596" lon="13.06756691585057"><ele>101.0</ele><time>2026-04-18T09:16:37Z</time></trkpt><trkpt lat="43.750573607891766" lon="13.067526545247466"><ele>101.0</ele><time>2026-04-18T09:16:39Z</time></trkpt><trkpt lat="43.750475512685234" lon="13.067508584260493"><ele>101.0</ele><time>2026-04-18T09:16:41Z</time></trkpt><trkpt lat="43.75037212022613" lon="13.067523461498416"><ele>101.0</ele><time>2026-04-18T09:16:43Z</time></trkpt><trkpt lat="43.750285675792725" lon="13.067565288770135"><ele>101.0</ele><time>2026-04-18T09:16:45Z</time></trkpt><trkpt lat="43.75020649367677" lon="13.067635530667577"><ele>101.0</ele><time>2026-04-18T09:16:47Z</time></trkpt><trkpt lat="43.75013931862721" lon="13.067690763211218"><ele>104.0</ele><time>2026-04-18T09:16:49Z</time></trkpt><trkpt lat="43.75006736395481" lon="13.067761943278002"><ele>107.0</ele><time>2026-04-18T09:16:51Z</time></trkpt><trkpt lat="43.74998445407028" lon="13.067810108342078"><ele>110.0</ele><time>2026-04-18T09:16:53Z</time></trkpt><trkpt lat="43.749897360762844" lon="13.067812159169765"><ele>113.0</ele><time>2026-04-18T09:16:55Z</time></trkpt><trkpt lat="43.74983569991319" lon="13.067697911052987"><ele>116.0</ele><time>2026-04-18T09:16:57Z</time></trkpt><trkpt lat="43.74982386691224" lon="13.067567114709947"><ele>115.4</ele><time>2026-04-18T09:16:59Z</time></trkpt><trkpt lat="43.749814491858984" lon="13.06739821044608"><ele>114.8</ele><time>2026-04-18T09:17:01Z</time></trkpt><trkpt lat="43.749805190655266" lon="13.067224353424717"><ele>114.20000000000002</ele><time>2026-04-18T09:17:03Z</time></trkpt><trkpt lat="43.74980069672642" lon="13.067133841369401"><ele>113.60000000000001</ele><time>2026-04-18T09:17:04Z</time></trkpt><trkpt lat="43.74979254035214" lon="13.06703777351085"><ele>113.0</ele><time>2026-04-18T09:17:05Z</time></trkpt><trkpt lat="43.74976690954038" lon="13.066891837367212"><ele>113.0</ele><time>2026-04-18T09:17:07Z</time></trkpt><trkpt lat="43.74970339884356" lon="13.066751494657687"><ele>113.00000000000001</ele><time>2026-04-18T09:17:09Z</time></trkpt><trkpt lat="43.74963984441099" lon="13.066693547300378"><ele>113.00000000000001</ele><time>2026-04-18T09:17:10Z</time></trkpt><trkpt lat="43.749561782881905" lon="13.066609470547938"><ele>113.0</ele><time>2026-04-18T09:17:12Z</time></trkpt><trkpt lat="43.74947263857175" lon="13.066540392690147"><ele>113.0</ele><time>2026-04-18T09:17:14Z</time></trkpt><trkpt lat="43.74939635016005" lon="13.066465642520955"><ele>116.83333333333333</ele><time>2026-04-18T09:17:16Z</time></trkpt><trkpt lat="43.7493098512054" lon="13.066455303472928"><ele>120.66666666666666</ele><time>2026-04-18T09:17:19Z</time></trkpt><trkpt lat="43.749280763513426" lon="13.066543043678616"><ele>124.5</ele><time>2026-04-18T09:17:21Z</time></trkpt><trkpt lat="43.749299855162526" lon="13.066694718195262"><ele>128.33333333333334</ele><time>2026-04-18T09:17:23Z</time></trkpt><trkpt lat="43.74931173054879" lon="13.066824980661714"><ele>132.16666666666669</ele><time>2026-04-18T09:17:25Z</time></trkpt><trkpt lat="43.74927557055414" lon="13.066932768435162"><ele>136.0</ele><time>2026-04-18T09:17:27Z</time></trkpt><trkpt lat="43.7491884443576" lon="13.066978977227068"><ele>136.16666666666669</ele><time>2026-04-18T09:17:29Z</time></trkpt><trkpt lat="43.7491051264903" lon="13.067023764329454"><ele>136.33333333333334</ele><time>2026-04-18T09:17:31Z</time></trkpt><trkpt lat="43.74901250577261" lon="13.067054724099883"><ele>136.5</ele><time>2026-04-18T09:17:33Z</time></trkpt><trkpt lat="43.7489304657906" lon="13.067085482126766"><ele>136.66666666666666</ele><time>2026-04-18T09:17:35Z</time></trkpt><trkpt lat="43.74884923892851" lon="13.067122769339228"><ele>136.83333333333331</ele><time>2026-04-18T09:17:37Z</time></trkpt><trkpt lat="43.74876652354824" lon="13.067147979636985"><ele>137.0</ele><time>2026-04-18T09:17:39Z</time></trkpt><trkpt lat="43.748674146583724" lon="13.067188638945874"><ele>137.0</ele><time>2026-04-18T09:17:41Z</time></trkpt><trkpt lat="43.74857622258814" lon="13.06722925660002"><ele>137.0</ele><time>2026-04-18T09:17:43Z</time></trkpt><trkpt lat="43.74845955713735" lon="13.06725915683151"><ele>137.0</ele><time>2026-04-18T09:17:45Z</time></trkpt><trkpt lat="43.748344926425254" lon="13.067284790072321"><ele>137.0</ele><time>2026-04-18T09:17:47Z</time></trkpt><trkpt lat="43.7482459179448" lon="13.067317577653524"><ele>137.0</ele><time>2026-04-18T09:17:49Z</time></trkpt><trkpt lat="43.74814799932645" lon="13.067340960784753"><ele>139.83333333333331</ele><time>2026-04-18T09:17:52Z</time></trkpt><trkpt lat="43.74815054212682" lon="13.067161569656168"><ele>142.66666666666666</ele><time>2026-04-18T09:18:18Z</time></trkpt><trkpt lat="43.7481471582811" lon="13.067073069097775"><ele>145.5</ele><time>2026-04-18T09:18:19Z</time></trkpt><trkpt lat="43.74814109199253" lon="13.066977155961084"><ele>148.33333333333334</ele><time>2026-04-18T09:18:20Z</time></trkpt><trkpt lat="43.74813310363174" lon="13.066872407280275"><ele>151.16666666666669</ele><time>2026-04-18T09:18:21Z</time></trkpt><trkpt lat="43.74812388016501" lon="13.066754588503144"><ele>154.0</ele><time>2026-04-18T09:18:22Z</time></trkpt><trkpt lat="43.748113959690464" lon="13.066627866307028"><ele>154.0</ele><time>2026-04-18T09:18:23Z</time></trkpt><trkpt lat="43.74808461688105" lon="13.066495010598492"><ele>154.0</ele><time>2026-04-18T09:18:24Z</time></trkpt><trkpt lat="43.74807793180681" lon="13.06635218105124"><ele>154.0</ele><time>2026-04-18T09:18:25Z</time></trkpt><trkpt lat="43.748061602651624" lon="13.06621260268824"><ele>154.0</ele><time>2026-04-18T09:18:26Z</time></trkpt><trkpt lat="43.74802297840258" lon="13.06606879264789"><ele>154.0</ele><time>2026-04-18T09:18:27Z</time></trkpt><trkpt lat="43.74795058303291" lon="13.065752467031688"><ele>153.5</ele><time>2026-04-18T09:18:29Z</time></trkpt><trkpt lat="43.74791397532262" lon="13.065591198380822"><ele>153.0</ele><time>2026-04-18T09:18:30Z</time></trkpt><trkpt lat="43.747871382263305" lon="13.065432761273582"><ele>152.5</ele><time>2026-04-18T09:18:31Z</time></trkpt><trkpt lat="43.74781977498878" lon="13.065263412977206"><ele>152.0</ele><time>2026-04-18T09:18:32Z</time></trkpt><trkpt lat="43.74777715836097" lon="13.06508191185782"><ele>150.0</ele><time>2026-04-18T09:18:33Z</time></trkpt><trkpt lat="43.7477322230336" lon="13.064887716519685"><ele>148.0</ele><time>2026-04-18T09:18:34Z</time></trkpt><trkpt lat="43.74769237999827" lon="13.064693372296768"><ele>146.0</ele><time>2026-04-18T09:18:35Z</time></trkpt><trkpt lat="43.74765669093774" lon="13.064498992136219"><ele>144.0</ele><time>2026-04-18T09:18:36Z</time></trkpt><trkpt lat="43.747624374617295" lon="13.064305581454112"><ele>147.75</ele><time>2026-04-18T09:18:37Z</time></trkpt><trkpt lat="43.747588583421845" lon="13.064114038522726"><ele>151.5</ele><time>2026-04-18T09:18:38Z</time></trkpt><trkpt lat="43.747546052375924" lon="13.063924975662594"><ele>155.25</ele><time>2026-04-18T09:18:39Z</time></trkpt><trkpt lat="43.747519858804466" lon="13.063735073653238"><ele>159.0</ele><time>2026-04-18T09:18:40Z</time></trkpt><trkpt lat="43.747492605872836" lon="13.063559618612105"><ele>159.0</ele><time>2026-04-18T09:18:41Z</time></trkpt><trkpt lat="43.747471810542045" lon="13.063384257523927"><ele>159.0</ele><time>2026-04-18T09:18:42Z</time></trkpt><trkpt lat="43.74746049647498" lon="13.06322244221173"><ele>159.0</ele><time>2026-04-18T09:18:43Z</time></trkpt><trkpt lat="43.747453375079715" lon="13.063071363303843"><ele>159.0</ele><time>2026-04-18T09:18:44Z</time></trkpt><trkpt lat="43.747458339768734" lon="13.062922751412211"><ele>158.6</ele><time>2026-04-18T09:18:45Z</time></trkpt><trkpt lat="43.74745247291517" lon="13.062789413561942"><ele>158.2</ele><time>2026-04-18T09:18:46Z</time></trkpt><trkpt lat="43.747451251215004" lon="13.062648638995018"><ele>157.79999999999998</ele><time>2026-04-18T09:18:47Z</time></trkpt><trkpt lat="43.74745505593739" lon="13.062520515340392"><ele>157.4</ele><time>2026-04-18T09:18:48Z</time></trkpt><trkpt lat="43.747455562333" lon="13.062404943492924"><ele>157.0</ele><time>2026-04-18T09:18:49Z</time></trkpt><trkpt lat="43.747453181643856" lon="13.062277339995946"><ele>157.0</ele><time>2026-04-18T09:18:50Z</time></trkpt><trkpt lat="43.74746198829763" lon="13.062146310276741"><ele>157.0</ele><time>2026-04-18T09:18:51Z</time></trkpt><trkpt lat="43.747491220106525" lon="13.062019508632492"><ele>157.0</ele><time>2026-04-18T09:18:52Z</time></trkpt><trkpt lat="43.747512680306215" lon="13.061903826556549"><ele>157.0</ele><time>2026-04-18T09:18:53Z</time></trkpt><trkpt lat="43.74753926926998" lon="13.0617962355387"><ele>157.0</ele><time>2026-04-18T09:18:54Z</time></trkpt><trkpt lat="43.747570358884786" lon="13.061707005812906"><ele>157.0</ele><time>2026-04-18T09:18:55Z</time></trkpt><trkpt lat="43.7476065437876" lon="13.061631631201134"><ele>157.0</ele><time>2026-04-18T09:18:56Z</time></trkpt><trkpt lat="43.74767074856172" lon="13.061532857156667"><ele>157.0</ele><time>2026-04-18T09:18:58Z</time></trkpt><trkpt lat="43.74771622389564" lon="13.061456034210082"><ele>157.0</ele><time>2026-04-18T09:19:01Z</time></trkpt><trkpt lat="43.74766535010411" lon="13.061540140785176"><ele>157.0</ele><time>2026-04-18T09:19:40Z</time></trkpt><trkpt lat="43.74759449428322" lon="13.061655815967525"><ele>157.0</ele><time>2026-04-18T09:19:42Z</time></trkpt><trkpt lat="43.747560315449086" lon="13.061735767892088"><ele>157.0</ele><time>2026-04-18T09:19:43Z</time></trkpt><trkpt lat="43.747529493772305" lon="13.061826681907176"><ele>157.0</ele><time>2026-04-18T09:19:44Z</time></trkpt><trkpt lat="43.747456330895815" lon="13.062009065016703"><ele>157.0</ele><time>2026-04-18T09:19:45Z</time></trkpt><trkpt lat="43.74744242845747" lon="13.062144362088487"><ele>157.0</ele><time>2026-04-18T09:19:46Z</time></trkpt><trkpt lat="43.747432328520304" lon="13.062283172835071"><ele>157.0</ele><time>2026-04-18T09:19:47Z</time></trkpt><trkpt lat="43.74742428178015" lon="13.062423929132734"><ele>156.79999999999998</ele><time>2026-04-18T09:19:48Z</time></trkpt><trkpt lat="43.74742033658576" lon="13.062568242451697"><ele>156.6</ele><time>2026-04-18T09:19:49Z</time></trkpt><trkpt lat="43.74741656600555" lon="13.06272053838725"><ele>156.39999999999998</ele><time>2026-04-18T09:19:50Z</time></trkpt><trkpt lat="43.747416524590605" lon="13.06287570324811"><ele>156.2</ele><time>2026-04-18T09:19:51Z</time></trkpt><trkpt lat="43.747418484241635" lon="13.063033901091462"><ele>156.0</ele><time>2026-04-18T09:19:52Z</time></trkpt><trkpt lat="43.74742636875958" lon="13.063193246979896"><ele>156.75</ele><time>2026-04-18T09:19:53Z</time></trkpt><trkpt lat="43.747439962164414" lon="13.063352397789977"><ele>157.5</ele><time>2026-04-18T09:19:54Z</time></trkpt><trkpt lat="43.747460641417746" lon="13.06351220168993"><ele>158.25</ele><time>2026-04-18T09:19:55Z</time></trkpt><trkpt lat="43.7474833369693" lon="13.06367553243977"><ele>159.0</ele><time>2026-04-18T09:19:56Z</time></trkpt><trkpt lat="43.74751183845821" lon="13.063841686045205"><ele>159.0</ele><time>2026-04-18T09:19:57Z</time></trkpt><trkpt lat="43.74754380768823" lon="13.064015030232762"><ele>159.0</ele><time>2026-04-18T09:19:58Z</time></trkpt><trkpt lat="43.74758013068729" lon="13.064185289240624"><ele>159.0</ele><time>2026-04-18T09:19:59Z</time></trkpt><trkpt lat="43.747600613318134" lon="13.064360301980937"><ele>159.0</ele><time>2026-04-18T09:20:00Z</time></trkpt><trkpt lat="43.74763594533157" lon="13.064526959914645"><ele>159.75</ele><time>2026-04-18T09:20:01Z</time></trkpt><trkpt lat="43.74767312954007" lon="13.06470235444761"><ele>160.5</ele><time>2026-04-18T09:20:02Z</time></trkpt><trkpt lat="43.74770674214904" lon="13.064860902094162"><ele>161.25</ele><time>2026-04-18T09:20:03Z</time></trkpt><trkpt lat="43.7477501403601" lon="13.065000927146414"><ele>162.0</ele><time>2026-04-18T09:20:04Z</time></trkpt><trkpt lat="43.74777607102407" lon="13.065135782624166"><ele>160.4</ele><time>2026-04-18T09:20:05Z</time></trkpt><trkpt lat="43.74779905580489" lon="13.06525885396949"><ele>158.79999999999998</ele><time>2026-04-18T09:20:06Z</time></trkpt><trkpt lat="43.74782577240043" lon="13.065381772272527"><ele>157.2</ele><time>2026-04-18T09:20:07Z</time></trkpt><trkpt lat="43.74785596446824" lon="13.065509553446619"><ele>155.6</ele><time>2026-04-18T09:20:08Z</time></trkpt><trkpt lat="43.7478975966244" lon="13.065646906314534"><ele>154.0</ele><time>2026-04-18T09:20:09Z</time></trkpt><trkpt lat="43.747937817919734" lon="13.065786106984422"><ele>154.0</ele><time>2026-04-18T09:20:10Z</time></trkpt><trkpt lat="43.747973674379125" lon="13.065935558139511"><ele>154.0</ele><time>2026-04-18T09:20:11Z</time></trkpt><trkpt lat="43.74800660613283" lon="13.066096620587341"><ele>154.0</ele><time>2026-04-18T09:20:12Z</time></trkpt><trkpt lat="43.748030886482596" lon="13.066266827869168"><ele>154.0</ele><time>2026-04-18T09:20:13Z</time></trkpt><trkpt lat="43.74805042831197" lon="13.06644473269488"><ele>154.0</ele><time>2026-04-18T09:20:14Z</time></trkpt><trkpt lat="43.74806529486639" lon="13.066626631829179"><ele>154.0</ele><time>2026-04-18T09:20:15Z</time></trkpt><trkpt lat="43.74807976589154" lon="13.06681250544414"><ele>154.0</ele><time>2026-04-18T09:20:16Z</time></trkpt><trkpt lat="43.748090705725296" lon="13.066999247287612"><ele>154.0</ele><time>2026-04-18T09:20:17Z</time></trkpt><trkpt lat="43.74809472665824" lon="13.067188047384962"><ele>154.0</ele><time>2026-04-18T09:20:18Z</time></trkpt><trkpt lat="43.74809894759911" lon="13.067378415976489"><ele>154.0</ele><time>2026-04-18T09:20:19Z</time></trkpt><trkpt lat="43.748098238616215" lon="13.067568284035364"><ele>154.0</ele><time>2026-04-18T09:20:20Z</time></trkpt><trkpt lat="43.748104744934956" lon="13.067751221665683"><ele>154.0</ele><time>2026-04-18T09:20:21Z</time></trkpt><trkpt lat="43.74811170622869" lon="13.067934762966837"><ele>154.0</ele><time>2026-04-18T09:20:22Z</time></trkpt><trkpt lat="43.74812549467216" lon="13.068114827879139"><ele>154.0</ele><time>2026-04-18T09:20:23Z</time></trkpt><trkpt lat="43.74815048801243" lon="13.068285141766802"><ele>154.0</ele><time>2026-04-18T09:20:24Z</time></trkpt><trkpt lat="43.7481899190973" lon="13.068454578872597"><ele>154.0</ele><time>2026-04-18T09:20:25Z</time></trkpt><trkpt lat="43.748240488941924" lon="13.068613594377988"><ele>154.0</ele><time>2026-04-18T09:20:26Z</time></trkpt><trkpt lat="43.74830070492072" lon="13.068777452061486"><ele>154.0</ele><time>2026-04-18T09:20:27Z</time></trkpt><trkpt lat="43.74835046687291" lon="13.068943971221813"><ele>154.0</ele><time>2026-04-18T09:20:28Z</time></trkpt><trkpt lat="43.748422133701084" lon="13.069096032376068"><ele>154.0</ele><time>2026-04-18T09:20:29Z</time></trkpt><trkpt lat="43.74846824819582" lon="13.069272670156332"><ele>154.0</ele><time>2026-04-18T09:20:30Z</time></trkpt><trkpt lat="43.74849985264094" lon="13.069452065521276"><ele>154.0</ele><time>2026-04-18T09:20:31Z</time></trkpt><trkpt lat="43.74853278159232" lon="13.069617909179561"><ele>154.0</ele><time>2026-04-18T09:20:32Z</time></trkpt><trkpt lat="43.74855776928272" lon="13.0697760953524"><ele>154.0</ele><time>2026-04-18T09:20:33Z</time></trkpt><trkpt lat="43.748585740477424" lon="13.069921037959826"><ele>151.25</ele><time>2026-04-18T09:20:34Z</time></trkpt><trkpt lat="43.748611648228945" lon="13.070071921707337"><ele>148.5</ele><time>2026-04-18T09:20:35Z</time></trkpt><trkpt lat="43.748617819930445" lon="13.070218365090023"><ele>145.75</ele><time>2026-04-18T09:20:36Z</time></trkpt><trkpt lat="43.748612002860455" lon="13.070379415987974"><ele>143.0</ele><time>2026-04-18T09:20:37Z</time></trkpt><trkpt lat="43.74858423114276" lon="13.070539873413448"><ele>143.75</ele><time>2026-04-18T09:20:38Z</time></trkpt><trkpt lat="43.74854007387108" lon="13.070687924268048"><ele>144.5</ele><time>2026-04-18T09:20:39Z</time></trkpt><trkpt lat="43.74848681017869" lon="13.070837249764276"><ele>145.25</ele><time>2026-04-18T09:20:40Z</time></trkpt><trkpt lat="43.74843821682622" lon="13.070995929129161"><ele>146.0</ele><time>2026-04-18T09:20:41Z</time></trkpt><trkpt lat="43.74840132931434" lon="13.07116350233467"><ele>146.0</ele><time>2026-04-18T09:20:42Z</time></trkpt><trkpt lat="43.74837627158685" lon="13.071375662540218"><ele>146.0</ele><time>2026-04-18T09:20:43Z</time></trkpt><trkpt lat="43.748359585034244" lon="13.0716069725523"><ele>146.0</ele><time>2026-04-18T09:20:44Z</time></trkpt><trkpt lat="43.74833541249482" lon="13.071844815433602"><ele>145.25</ele><time>2026-04-18T09:20:45Z</time></trkpt><trkpt lat="43.74831545849825" lon="13.072054810861895"><ele>144.5</ele><time>2026-04-18T09:20:46Z</time></trkpt><trkpt lat="43.748280995384185" lon="13.072245713742895"><ele>143.75</ele><time>2026-04-18T09:20:47Z</time></trkpt><trkpt lat="43.74825278386144" lon="13.07242835083309"><ele>143.0</ele><time>2026-04-18T09:20:48Z</time></trkpt><trkpt lat="43.74821847174269" lon="13.072609785063708"><ele>143.0</ele><time>2026-04-18T09:20:49Z</time></trkpt><trkpt lat="43.74819337308469" lon="13.07279720992655"><ele>143.0</ele><time>2026-04-18T09:20:50Z</time></trkpt><trkpt lat="43.74817759754337" lon="13.072993082098556"><ele>143.0</ele><time>2026-04-18T09:20:51Z</time></trkpt><trkpt lat="43.74817537694615" lon="13.073194622423442"><ele>143.0</ele><time>2026-04-18T09:20:52Z</time></trkpt><trkpt lat="43.74818613374611" lon="13.073395953644564"><ele>143.25</ele><time>2026-04-18T09:20:53Z</time></trkpt><trkpt lat="43.74820035296371" lon="13.073595126611972"><ele>143.5</ele><time>2026-04-18T09:20:54Z</time></trkpt><trkpt lat="43.74822144962035" lon="13.073794166806604"><ele>143.75</ele><time>2026-04-18T09:20:55Z</time></trkpt><trkpt lat="43.748248991518786" lon="13.073989703730598"><ele>144.0</ele><time>2026-04-18T09:20:56Z</time></trkpt><trkpt lat="43.74828617294" lon="13.074181436058904"><ele>145.25</ele><time>2026-04-18T09:20:57Z</time></trkpt><trkpt lat="43.74832636540843" lon="13.0743735783708"><ele>146.5</ele><time>2026-04-18T09:20:58Z</time></trkpt><trkpt lat="43.74836778372132" lon="13.074561392389734"><ele>147.75</ele><time>2026-04-18T09:20:59Z</time></trkpt><trkpt lat="43.7484196796126" lon="13.074741249295647"><ele>149.0</ele><time>2026-04-18T09:21:00Z</time></trkpt><trkpt lat="43.748471445471786" lon="13.074902674530714"><ele>150.5</ele><time>2026-04-18T09:21:01Z</time></trkpt><trkpt lat="43.748524668655236" lon="13.075050677454128"><ele>152.0</ele><time>2026-04-18T09:21:02Z</time></trkpt><trkpt lat="43.74857039155465" lon="13.075205562155316"><ele>153.5</ele><time>2026-04-18T09:21:03Z</time></trkpt><trkpt lat="43.7486015852943" lon="13.07536061139193"><ele>155.0</ele><time>2026-04-18T09:21:04Z</time></trkpt><trkpt lat="43.74862289403677" lon="13.075523898949825"><ele>152.0</ele><time>2026-04-18T09:21:05Z</time></trkpt><trkpt lat="43.74864104686713" lon="13.075686557194462"><ele>149.0</ele><time>2026-04-18T09:21:06Z</time></trkpt><trkpt lat="43.74866098142553" lon="13.075844543471636"><ele>146.0</ele><time>2026-04-18T09:21:07Z</time></trkpt><trkpt lat="43.748677520598804" lon="13.076002068103616"><ele>143.0</ele><time>2026-04-18T09:21:08Z</time></trkpt><trkpt lat="43.74868268899396" lon="13.076161769238524"><ele>143.0</ele><time>2026-04-18T09:21:09Z</time></trkpt><trkpt lat="43.74868121645212" lon="13.076313895459501"><ele>143.0</ele><time>2026-04-18T09:21:10Z</time></trkpt><trkpt lat="43.74866082387415" lon="13.076461079801344"><ele>143.0</ele><time>2026-04-18T09:21:11Z</time></trkpt><trkpt lat="43.7486289289562" lon="13.076594768725244"><ele>143.0</ele><time>2026-04-18T09:21:12Z</time></trkpt><trkpt lat="43.74858090376162" lon="13.07672120801218"><ele>143.0</ele><time>2026-04-18T09:21:13Z</time></trkpt><trkpt lat="43.74852674400758" lon="13.076838486942679"><ele>146.8</ele><time>2026-04-18T09:21:14Z</time></trkpt><trkpt lat="43.748446969554124" lon="13.076946757693097"><ele>150.60000000000002</ele><time>2026-04-18T09:21:15Z</time></trkpt><trkpt lat="43.748360053776736" lon="13.077046145084111"><ele>154.39999999999998</ele><time>2026-04-18T09:21:16Z</time></trkpt><trkpt lat="43.748266920265905" lon="13.077131585175115"><ele>158.2</ele><time>2026-04-18T09:21:17Z</time></trkpt><trkpt lat="43.74818753162048" lon="13.077205636033765"><ele>162.0</ele><time>2026-04-18T09:21:18Z</time></trkpt><trkpt lat="43.74810633937461" lon="13.07726716217449"><ele>162.0</ele><time>2026-04-18T09:21:19Z</time></trkpt><trkpt lat="43.74802865549463" lon="13.077310988204134"><ele>162.0</ele><time>2026-04-18T09:21:20Z</time></trkpt><trkpt lat="43.74795911921351" lon="13.07735580346295"><ele>162.0</ele><time>2026-04-18T09:21:21Z</time></trkpt><trkpt lat="43.74789333884496" lon="13.0774274884585"><ele>162.0</ele><time>2026-04-18T09:21:22Z</time></trkpt><trkpt lat="43.747831086112136" lon="13.077496886918194"><ele>162.0</ele><time>2026-04-18T09:21:23Z</time></trkpt><trkpt lat="43.74775843954057" lon="13.07756485348089"><ele>162.0</ele><time>2026-04-18T09:21:24Z</time></trkpt><trkpt lat="43.74767679840723" lon="13.077662251573885"><ele>160.0</ele><time>2026-04-18T09:21:25Z</time></trkpt><trkpt lat="43.74759311194633" lon="13.077761904639827"><ele>158.0</ele><time>2026-04-18T09:21:26Z</time></trkpt><trkpt lat="43.74751306968644" lon="13.077860089012734"><ele>156.0</ele><time>2026-04-18T09:21:27Z</time></trkpt><trkpt lat="43.74742578588782" lon="13.077964741201422"><ele>154.0</ele><time>2026-04-18T09:21:28Z</time></trkpt><trkpt lat="43.747332440537356" lon="13.07807687327873"><ele>154.0</ele><time>2026-04-18T09:21:29Z</time></trkpt><trkpt lat="43.74725197070993" lon="13.078179612717939"><ele>154.0</ele><time>2026-04-18T09:21:30Z</time></trkpt><trkpt lat="43.74717789200093" lon="13.078290657363045"><ele>154.0</ele><time>2026-04-18T09:21:31Z</time></trkpt><trkpt lat="43.747110933439885" lon="13.078411073696616"><ele>154.0</ele><time>2026-04-18T09:21:32Z</time></trkpt><trkpt lat="43.747059854694456" lon="13.078562498642626"><ele>154.0</ele><time>2026-04-18T09:21:33Z</time></trkpt><trkpt lat="43.74701842213184" lon="13.078739576654902"><ele>153.0</ele><time>2026-04-18T09:21:34Z</time></trkpt><trkpt lat="43.74698885438045" lon="13.07892661383279"><ele>152.0</ele><time>2026-04-18T09:21:35Z</time></trkpt><trkpt lat="43.7469546349092" lon="13.079105873462865"><ele>151.0</ele><time>2026-04-18T09:21:36Z</time></trkpt><trkpt lat="43.74691096944327" lon="13.07927537504743"><ele>150.0</ele><time>2026-04-18T09:21:37Z</time></trkpt><trkpt lat="43.74686036389457" lon="13.079437004578619"><ele>150.0</ele><time>2026-04-18T09:21:38Z</time></trkpt><trkpt lat="43.74679392822601" lon="13.079592837181977"><ele>150.0</ele><time>2026-04-18T09:21:39Z</time></trkpt><trkpt lat="43.74671811384977" lon="13.079746963504144"><ele>150.0</ele><time>2026-04-18T09:21:40Z</time></trkpt><trkpt lat="43.746637110895676" lon="13.079898737443171"><ele>150.0</ele><time>2026-04-18T09:21:41Z</time></trkpt><trkpt lat="43.7465514382326" lon="13.080051388057598"><ele>148.75</ele><time>2026-04-18T09:21:42Z</time></trkpt><trkpt lat="43.746471289891566" lon="13.080209211822204"><ele>147.5</ele><time>2026-04-18T09:21:43Z</time></trkpt><trkpt lat="43.746401386498114" lon="13.08037270103335"><ele>146.25</ele><time>2026-04-18T09:21:44Z</time></trkpt><trkpt lat="43.746337009526286" lon="13.080537057979596"><ele>145.0</ele><time>2026-04-18T09:21:45Z</time></trkpt><trkpt lat="43.74626732265906" lon="13.080697816294078"><ele>143.5</ele><time>2026-04-18T09:21:46Z</time></trkpt><trkpt lat="43.74620098451774" lon="13.080848873481052"><ele>142.0</ele><time>2026-04-18T09:21:47Z</time></trkpt><trkpt lat="43.74613867117816" lon="13.080994047401559"><ele>140.5</ele><time>2026-04-18T09:21:48Z</time></trkpt><trkpt lat="43.74607583272199" lon="13.081122980941077"><ele>139.0</ele><time>2026-04-18T09:21:49Z</time></trkpt><trkpt lat="43.74600609162874" lon="13.081234385743848"><ele>139.0</ele><time>2026-04-18T09:21:50Z</time></trkpt><trkpt lat="43.74592550107084" lon="13.08131314834659"><ele>139.0</ele><time>2026-04-18T09:21:51Z</time></trkpt><trkpt lat="43.74583414543771" lon="13.081363367966643"><ele>139.0</ele><time>2026-04-18T09:21:52Z</time></trkpt><trkpt lat="43.745730182218374" lon="13.081387471957427"><ele>139.0</ele><time>2026-04-18T09:21:53Z</time></trkpt><trkpt lat="43.745615224867095" lon="13.081377830009725"><ele>139.0</ele><time>2026-04-18T09:21:54Z</time></trkpt><trkpt lat="43.74549091395899" lon="13.081346087131847"><ele>139.0</ele><time>2026-04-18T09:21:55Z</time></trkpt><trkpt lat="43.745348638465565" lon="13.081304450771343"><ele>139.0</ele><time>2026-04-18T09:21:56Z</time></trkpt><trkpt lat="43.74519160583439" lon="13.081253094399079"><ele>139.0</ele><time>2026-04-18T09:21:57Z</time></trkpt><trkpt lat="43.745018348845164" lon="13.081196489748434"><ele>137.0</ele><time>2026-04-18T09:21:58Z</time></trkpt><trkpt lat="43.74484346395035" lon="13.08115076090167"><ele>135.0</ele><time>2026-04-18T09:21:59Z</time></trkpt><trkpt lat="43.74467830483374" lon="13.081094874338435"><ele>133.0</ele><time>2026-04-18T09:22:00Z</time></trkpt><trkpt lat="43.744514589906686" lon="13.081044731209776"><ele>131.0</ele><time>2026-04-18T09:22:01Z</time></trkpt><trkpt lat="43.744351532880415" lon="13.08099681422482"><ele>129.0</ele><time>2026-04-18T09:22:02Z</time></trkpt><trkpt lat="43.744196126887" lon="13.080932669666254"><ele>127.0</ele><time>2026-04-18T09:22:03Z</time></trkpt><trkpt lat="43.74405062323825" lon="13.080850952064338"><ele>124.33333333333334</ele><time>2026-04-18T09:22:04Z</time></trkpt><trkpt lat="43.74391932219383" lon="13.080753096780658"><ele>121.66666666666666</ele><time>2026-04-18T09:22:05Z</time></trkpt><trkpt lat="43.74377827293608" lon="13.08067800173775"><ele>119.0</ele><time>2026-04-18T09:22:06Z</time></trkpt><trkpt lat="43.743611695385155" lon="13.080637749513533"><ele>120.33333333333333</ele><time>2026-04-18T09:22:07Z</time></trkpt><trkpt lat="43.74344486653833" lon="13.080593133000969"><ele>121.66666666666666</ele><time>2026-04-18T09:22:08Z</time></trkpt><trkpt lat="43.743296736254855" lon="13.08056471808766"><ele>123.0</ele><time>2026-04-18T09:22:09Z</time></trkpt><trkpt lat="43.743148418902194" lon="13.080492355224507"><ele>123.0</ele><time>2026-04-18T09:22:10Z</time></trkpt><trkpt lat="43.74300805056591" lon="13.080425122960614"><ele>123.0</ele><time>2026-04-18T09:22:11Z</time></trkpt><trkpt lat="43.742871880356674" lon="13.080365530503931"><ele>123.0</ele><time>2026-04-18T09:22:12Z</time></trkpt><trkpt lat="43.74274279157204" lon="13.080375496327488"><ele>123.0</ele><time>2026-04-18T09:22:13Z</time></trkpt><trkpt lat="43.74259106195248" lon="13.080395566775808"><ele>123.33333333333334</ele><time>2026-04-18T09:22:14Z</time></trkpt><trkpt lat="43.74241244360573" lon="13.080429841946245"><ele>123.66666666666667</ele><time>2026-04-18T09:22:15Z</time></trkpt><trkpt lat="43.742237887802524" lon="13.080473385490205"><ele>124.0</ele><time>2026-04-18T09:22:16Z</time></trkpt><trkpt lat="43.74206909746716" lon="13.080483406342529"><ele>124.0</ele><time>2026-04-18T09:22:17Z</time></trkpt><trkpt lat="43.74189337755681" lon="13.08050256661377"><ele>124.0</ele><time>2026-04-18T09:22:18Z</time></trkpt><trkpt lat="43.741730020264484" lon="13.080540403576988"><ele>124.0</ele><time>2026-04-18T09:22:19Z</time></trkpt><trkpt lat="43.74157168096262" lon="13.080567825454777"><ele>123.33333333333334</ele><time>2026-04-18T09:22:20Z</time></trkpt><trkpt lat="43.74141836739601" lon="13.080594269765662"><ele>122.66666666666666</ele><time>2026-04-18T09:22:21Z</time></trkpt><trkpt lat="43.74126671342386" lon="13.080615129217302"><ele>122.0</ele><time>2026-04-18T09:22:22Z</time></trkpt><trkpt lat="43.74110526686131" lon="13.080647153293445"><ele>119.33333333333333</ele><time>2026-04-18T09:22:23Z</time></trkpt><trkpt lat="43.74094634167592" lon="13.080689286635122"><ele>116.66666666666666</ele><time>2026-04-18T09:22:24Z</time></trkpt><trkpt lat="43.740779803878574" lon="13.080730052000229"><ele>114.0</ele><time>2026-04-18T09:22:25Z</time></trkpt><trkpt lat="43.740608972675055" lon="13.080753892982214"><ele>114.0</ele><time>2026-04-18T09:22:26Z</time></trkpt><trkpt lat="43.74043854339208" lon="13.080760120938846"><ele>114.0</ele><time>2026-04-18T09:22:27Z</time></trkpt><trkpt lat="43.74027319289648" lon="13.080759279094512"><ele>114.0</ele><time>2026-04-18T09:22:28Z</time></trkpt><trkpt lat="43.740102532536696" lon="13.080737565391056"><ele>112.33333333333334</ele><time>2026-04-18T09:22:29Z</time></trkpt><trkpt lat="43.739948286079525" lon="13.080700124069814"><ele>110.66666666666667</ele><time>2026-04-18T09:22:30Z</time></trkpt><trkpt lat="43.739807359845685" lon="13.080645216085628"><ele>109.0</ele><time>2026-04-18T09:22:31Z</time></trkpt><trkpt lat="43.739671325560636" lon="13.080569462399776"><ele>109.0</ele><time>2026-04-18T09:22:32Z</time></trkpt><trkpt lat="43.73953509680461" lon="13.08049833537632"><ele>109.0</ele><time>2026-04-18T09:22:33Z</time></trkpt><trkpt lat="43.739422803148706" lon="13.080472059754118"><ele>109.0</ele><time>2026-04-18T09:22:34Z</time></trkpt><trkpt lat="43.739297512813046" lon="13.080483072932337"><ele>109.0</ele><time>2026-04-18T09:22:35Z</time></trkpt><trkpt lat="43.73918325390306" lon="13.080501742476024"><ele>109.75</ele><time>2026-04-18T09:22:36Z</time></trkpt><trkpt lat="43.739056807523454" lon="13.080540133050357"><ele>110.5</ele><time>2026-04-18T09:22:37Z</time></trkpt><trkpt lat="43.738931206370545" lon="13.08058498238142"><ele>111.25</ele><time>2026-04-18T09:22:38Z</time></trkpt><trkpt lat="43.738804785479694" lon="13.080624267249405"><ele>112.0</ele><time>2026-04-18T09:22:39Z</time></trkpt><trkpt lat="43.738679461500126" lon="13.08066311839719"><ele>112.0</ele><time>2026-04-18T09:22:40Z</time></trkpt><trkpt lat="43.73856364751012" lon="13.080706981645527"><ele>112.0</ele><time>2026-04-18T09:22:41Z</time></trkpt><trkpt lat="43.738457423254935" lon="13.080756515999116"><ele>112.0</ele><time>2026-04-18T09:22:42Z</time></trkpt><trkpt lat="43.73835305809077" lon="13.08082254529357"><ele>112.0</ele><time>2026-04-18T09:22:43Z</time></trkpt><trkpt lat="43.73824303576458" lon="13.080908018503342"><ele>113.5</ele><time>2026-04-18T09:22:44Z</time></trkpt><trkpt lat="43.73814347178227" lon="13.081037806264895"><ele>115.0</ele><time>2026-04-18T09:22:45Z</time></trkpt><trkpt lat="43.73804334951097" lon="13.081175556575149"><ele>116.5</ele><time>2026-04-18T09:22:46Z</time></trkpt><trkpt lat="43.7379406417474" lon="13.081318598349037"><ele>118.0</ele><time>2026-04-18T09:22:47Z</time></trkpt><trkpt lat="43.73782589812963" lon="13.081436185214098"><ele>117.5</ele><time>2026-04-18T09:22:48Z</time></trkpt><trkpt lat="43.73770533235889" lon="13.081558078670199"><ele>117.0</ele><time>2026-04-18T09:22:49Z</time></trkpt><trkpt lat="43.73757377604005" lon="13.081663187756353"><ele>116.5</ele><time>2026-04-18T09:22:50Z</time></trkpt><trkpt lat="43.73744166534348" lon="13.081744971893825"><ele>116.0</ele><time>2026-04-18T09:22:51Z</time></trkpt><trkpt lat="43.737327478883046" lon="13.081821461806362"><ele>116.0</ele><time>2026-04-18T09:22:52Z</time></trkpt><trkpt lat="43.737232068564566" lon="13.08189957130315"><ele>116.0</ele><time>2026-04-18T09:22:53Z</time></trkpt><trkpt lat="43.73715242642592" lon="13.081980161138274"><ele>116.0</ele><time>2026-04-18T09:22:54Z</time></trkpt><trkpt lat="43.73707906625635" lon="13.082089081514603"><ele>116.0</ele><time>2026-04-18T09:22:55Z</time></trkpt><trkpt lat="43.7370245917519" lon="13.082204967591224"><ele>116.0</ele><time>2026-04-18T09:22:56Z</time></trkpt><trkpt lat="43.736998185234484" lon="13.08232008600722"><ele>115.6</ele><time>2026-04-18T09:22:57Z</time></trkpt><trkpt lat="43.73698397733407" lon="13.082459035402712"><ele>115.19999999999999</ele><time>2026-04-18T09:22:58Z</time></trkpt><trkpt lat="43.73697794559553" lon="13.082607186524521"><ele>114.80000000000001</ele><time>2026-04-18T09:22:59Z</time></trkpt><trkpt lat="43.73697718904427" lon="13.0827500854305"><ele>114.4</ele><time>2026-04-18T09:23:00Z</time></trkpt><trkpt lat="43.7369594093534" lon="13.082887222203702"><ele>114.0</ele><time>2026-04-18T09:23:01Z</time></trkpt><trkpt lat="43.736934714122754" lon="13.083044388862003"><ele>114.0</ele><time>2026-04-18T09:23:02Z</time></trkpt><trkpt lat="43.73689444206225" lon="13.083208566927754"><ele>114.0</ele><time>2026-04-18T09:23:03Z</time></trkpt><trkpt lat="43.73686512746654" lon="13.083372131302577"><ele>114.0</ele><time>2026-04-18T09:23:04Z</time></trkpt><trkpt lat="43.73685681536628" lon="13.083562498783422"><ele>114.0</ele><time>2026-04-18T09:23:05Z</time></trkpt><trkpt lat="43.73685184537328" lon="13.083746700797276"><ele>111.75</ele><time>2026-04-18T09:23:06Z</time></trkpt><trkpt lat="43.736840131693896" lon="13.083940084913872"><ele>109.5</ele><time>2026-04-18T09:23:07Z</time></trkpt><trkpt lat="43.73682907836147" lon="13.084139358041444"><ele>107.25</ele><time>2026-04-18T09:23:08Z</time></trkpt><trkpt lat="43.73680948502101" lon="13.084339822602242"><ele>105.0</ele><time>2026-04-18T09:23:09Z</time></trkpt><trkpt lat="43.7367819577569" lon="13.08454150653666"><ele>102.33333333333334</ele><time>2026-04-18T09:23:10Z</time></trkpt><trkpt lat="43.73674164837744" lon="13.084739766378457"><ele>99.66666666666667</ele><time>2026-04-18T09:23:11Z</time></trkpt><trkpt lat="43.73668253446997" lon="13.084947067313689"><ele>97.0</ele><time>2026-04-18T09:23:12Z</time></trkpt><trkpt lat="43.73661245702719" lon="13.085122781775123"><ele>94.66666666666667</ele><time>2026-04-18T09:23:13Z</time></trkpt><trkpt lat="43.73653948686678" lon="13.085278436228288"><ele>92.33333333333334</ele><time>2026-04-18T09:23:14Z</time></trkpt><trkpt lat="43.73643394552421" lon="13.085447982309148"><ele>90.0</ele><time>2026-04-18T09:23:15Z</time></trkpt><trkpt lat="43.73632032596559" lon="13.08561827395858"><ele>89.33333333333333</ele><time>2026-04-18T09:23:16Z</time></trkpt><trkpt lat="43.73618297704923" lon="13.085779654768197"><ele>88.66666666666666</ele><time>2026-04-18T09:23:17Z</time></trkpt><trkpt lat="43.736031299779484" lon="13.085922613513437"><ele>88.0</ele><time>2026-04-18T09:23:18Z</time></trkpt><trkpt lat="43.73589405187162" lon="13.086056835992808"><ele>88.0</ele><time>2026-04-18T09:23:19Z</time></trkpt><trkpt lat="43.73576597313735" lon="13.086189959245754"><ele>88.0</ele><time>2026-04-18T09:23:20Z</time></trkpt><trkpt lat="43.73564309886547" lon="13.086320435377894"><ele>88.0</ele><time>2026-04-18T09:23:21Z</time></trkpt><trkpt lat="43.73552622469818" lon="13.086456985773099"><ele>86.5</ele><time>2026-04-18T09:23:22Z</time></trkpt><trkpt lat="43.73541432542039" lon="13.086603922220524"><ele>85.0</ele><time>2026-04-18T09:23:23Z</time></trkpt><trkpt lat="43.735312624055965" lon="13.086744703722417"><ele>83.5</ele><time>2026-04-18T09:23:24Z</time></trkpt><trkpt lat="43.73521009471914" lon="13.086884515190265"><ele>82.0</ele><time>2026-04-18T09:23:25Z</time></trkpt><trkpt lat="43.73510655480641" lon="13.0870176637476"><ele>82.0</ele><time>2026-04-18T09:23:26Z</time></trkpt><trkpt lat="43.735010606058765" lon="13.087158245673798"><ele>82.0</ele><time>2026-04-18T09:23:27Z</time></trkpt><trkpt lat="43.7349091215695" lon="13.087309399046244"><ele>82.0</ele><time>2026-04-18T09:23:28Z</time></trkpt><trkpt lat="43.734809634781534" lon="13.08747565389614"><ele>82.0</ele><time>2026-04-18T09:23:29Z</time></trkpt><trkpt lat="43.73471237103005" lon="13.08765372342215"><ele>80.75</ele><time>2026-04-18T09:23:30Z</time></trkpt><trkpt lat="43.734622523825664" lon="13.087810244956543"><ele>79.5</ele><time>2026-04-18T09:23:31Z</time></trkpt><trkpt lat="43.73453197787676" lon="13.087952709899877"><ele>78.25</ele><time>2026-04-18T09:23:32Z</time></trkpt><trkpt lat="43.734453491926395" lon="13.088076122739105"><ele>77.0</ele><time>2026-04-18T09:23:33Z</time></trkpt><trkpt lat="43.73434824098568" lon="13.088205970210831"><ele>76.0</ele><time>2026-04-18T09:23:34Z</time></trkpt><trkpt lat="43.734238337496194" lon="13.08833293770249"><ele>75.0</ele><time>2026-04-18T09:23:35Z</time></trkpt><trkpt lat="43.734124042165554" lon="13.088456003302463"><ele>74.0</ele><time>2026-04-18T09:23:36Z</time></trkpt><trkpt lat="43.733996008876" lon="13.088584521208519"><ele>73.0</ele><time>2026-04-18T09:23:37Z</time></trkpt><trkpt lat="43.73386174769072" lon="13.088708761523222"><ele>73.0</ele><time>2026-04-18T09:23:38Z</time></trkpt><trkpt lat="43.73372800310587" lon="13.08882957752109"><ele>73.0</ele><time>2026-04-18T09:23:39Z</time></trkpt><trkpt lat="43.73359025264629" lon="13.088947284858142"><ele>73.0</ele><time>2026-04-18T09:23:40Z</time></trkpt><trkpt lat="43.733464099329375" lon="13.08906442962433"><ele>70.75</ele><time>2026-04-18T09:23:41Z</time></trkpt><trkpt lat="43.733333324532175" lon="13.089179928158789"><ele>68.5</ele><time>2026-04-18T09:23:42Z</time></trkpt><trkpt lat="43.73320900976917" lon="13.08928878539342"><ele>66.25</ele><time>2026-04-18T09:23:43Z</time></trkpt><trkpt lat="43.73309398438033" lon="13.089386947329531"><ele>64.0</ele><time>2026-04-18T09:23:44Z</time></trkpt><trkpt lat="43.73298376408213" lon="13.089478589262143"><ele>64.0</ele><time>2026-04-18T09:23:45Z</time></trkpt><trkpt lat="43.73288574893353" lon="13.089595622062044"><ele>64.0</ele><time>2026-04-18T09:23:46Z</time></trkpt><trkpt lat="43.732793412132324" lon="13.089688399854879"><ele>64.0</ele><time>2026-04-18T09:23:47Z</time></trkpt><trkpt lat="43.73270774481185" lon="13.089822743212244"><ele>64.0</ele><time>2026-04-18T09:23:48Z</time></trkpt><trkpt lat="43.73262300819629" lon="13.08998262304745"><ele>62.666666666666664</ele><time>2026-04-18T09:23:49Z</time></trkpt><trkpt lat="43.73253804741443" lon="13.090152647559957"><ele>61.33333333333333</ele><time>2026-04-18T09:23:50Z</time></trkpt><trkpt lat="43.732452628774176" lon="13.090347050459433"><ele>60.0</ele><time>2026-04-18T09:23:51Z</time></trkpt><trkpt lat="43.73236768112949" lon="13.09052567422637"><ele>60.0</ele><time>2026-04-18T09:23:52Z</time></trkpt><trkpt lat="43.73227917046613" lon="13.090725422862402"><ele>60.0</ele><time>2026-04-18T09:23:53Z</time></trkpt><trkpt lat="43.73219715983094" lon="13.090929048758092"><ele>60.0</ele><time>2026-04-18T09:23:54Z</time></trkpt><trkpt lat="43.73211546890545" lon="13.09111585729713"><ele>59.0</ele><time>2026-04-18T09:23:55Z</time></trkpt><trkpt lat="43.73202795618346" lon="13.09130164584138"><ele>58.0</ele><time>2026-04-18T09:23:56Z</time></trkpt><trkpt lat="43.73193742071778" lon="13.091476146405002"><ele>57.0</ele><time>2026-04-18T09:23:57Z</time></trkpt><trkpt lat="43.73185507378505" lon="13.091666361913077"><ele>54.33333333333333</ele><time>2026-04-18T09:23:58Z</time></trkpt><trkpt lat="43.73176793835375" lon="13.091871558020555"><ele>51.666666666666664</ele><time>2026-04-18T09:23:59Z</time></trkpt><trkpt lat="43.73167647764334" lon="13.09208601856642"><ele>49.0</ele><time>2026-04-18T09:24:00Z</time></trkpt><trkpt lat="43.7315813281967" lon="13.092297922206"><ele>48.33333333333333</ele><time>2026-04-18T09:24:01Z</time></trkpt><trkpt lat="43.7314980772052" lon="13.09250197799827"><ele>47.666666666666664</ele><time>2026-04-18T09:24:02Z</time></trkpt><trkpt lat="43.731406289545085" lon="13.092701496194527"><ele>47.0</ele><time>2026-04-18T09:24:03Z</time></trkpt><trkpt lat="43.73131984600387" lon="13.092891260880059"><ele>47.0</ele><time>2026-04-18T09:24:04Z</time></trkpt><trkpt lat="43.73121811641944" lon="13.093079332129312"><ele>47.0</ele><time>2026-04-18T09:24:05Z</time></trkpt><trkpt lat="43.73110566232767" lon="13.093262920057454"><ele>47.0</ele><time>2026-04-18T09:24:06Z</time></trkpt><trkpt lat="43.73099935488619" lon="13.093440341499225"><ele>45.0</ele><time>2026-04-18T09:24:07Z</time></trkpt><trkpt lat="43.730891904810576" lon="13.093619897471676"><ele>43.0</ele><time>2026-04-18T09:24:08Z</time></trkpt><trkpt lat="43.730781846914695" lon="13.093802763857909"><ele>41.0</ele><time>2026-04-18T09:24:09Z</time></trkpt><trkpt lat="43.73068532777066" lon="13.093977706451494"><ele>41.33333333333333</ele><time>2026-04-18T09:24:10Z</time></trkpt><trkpt lat="43.73058973034763" lon="13.094171186795178"><ele>41.666666666666664</ele><time>2026-04-18T09:24:11Z</time></trkpt><trkpt lat="43.73050104807561" lon="13.094364974960563"><ele>42.0</ele><time>2026-04-18T09:24:12Z</time></trkpt><trkpt lat="43.7304068027304" lon="13.094552726682677"><ele>42.0</ele><time>2026-04-18T09:24:13Z</time></trkpt><trkpt lat="43.73031955965752" lon="13.094734486245054"><ele>42.0</ele><time>2026-04-18T09:24:14Z</time></trkpt><trkpt lat="43.73023460802605" lon="13.09491121170924"><ele>42.0</ele><time>2026-04-18T09:24:15Z</time></trkpt><trkpt lat="43.73015776982449" lon="13.095088743745626"><ele>40.5</ele><time>2026-04-18T09:24:16Z</time></trkpt><trkpt lat="43.73008764359906" lon="13.095261592730266"><ele>39.0</ele><time>2026-04-18T09:24:17Z</time></trkpt><trkpt lat="43.73002921633097" lon="13.095441449561665"><ele>37.5</ele><time>2026-04-18T09:24:18Z</time></trkpt><trkpt lat="43.7299800043956" lon="13.095621811559525"><ele>36.0</ele><time>2026-04-18T09:24:19Z</time></trkpt><trkpt lat="43.72993611642045" lon="13.09579996192332"><ele>36.0</ele><time>2026-04-18T09:24:20Z</time></trkpt><trkpt lat="43.72988973646328" lon="13.095974771775005"><ele>36.0</ele><time>2026-04-18T09:24:21Z</time></trkpt><trkpt lat="43.7298416379619" lon="13.096140559981274"><ele>36.0</ele><time>2026-04-18T09:24:22Z</time></trkpt><trkpt lat="43.729800278055734" lon="13.096310392245714"><ele>36.0</ele><time>2026-04-18T09:24:23Z</time></trkpt><trkpt lat="43.729756263582296" lon="13.096483596052112"><ele>36.75</ele><time>2026-04-18T09:24:24Z</time></trkpt><trkpt lat="43.72970575576184" lon="13.096634766843358"><ele>37.5</ele><time>2026-04-18T09:24:25Z</time></trkpt><trkpt lat="43.72963089089972" lon="13.096794214148872"><ele>38.25</ele><time>2026-04-18T09:24:26Z</time></trkpt><trkpt lat="43.729551112051745" lon="13.096918154912204"><ele>39.0</ele><time>2026-04-18T09:24:27Z</time></trkpt><trkpt lat="43.72947611128997" lon="13.097061728462167"><ele>39.0</ele><time>2026-04-18T09:24:28Z</time></trkpt><trkpt lat="43.72941269548989" lon="13.097203123372413"><ele>39.0</ele><time>2026-04-18T09:24:29Z</time></trkpt><trkpt lat="43.7293721406241" lon="13.097318415297416"><ele>36.0</ele><time>2026-04-18T09:24:30Z</time></trkpt><trkpt lat="43.72934884831176" lon="13.097413823338071"><ele>36.0</ele><time>2026-04-18T09:24:31Z</time></trkpt><trkpt lat="43.72932957028397" lon="13.097517521580082"><ele>37.0</ele><time>2026-04-18T09:24:33Z</time></trkpt></trkseg></trk></gpx>